Selectionnez le mois :


31/08/2019:Tournoi n°20082 amgadgong(2450)-vickort(2240):1-0
31/08/2019:Eq:Royal Kids-Mission Impossible : jogador49(1970)-adrifou(1480):1-0
31/08/2019:Défi mainecoon(2130)-leredoutable(1710):0-1
31/08/2019:Défi anumisme(1420)-tootsienet(1080):1-0
31/08/2019:Défi cloclo(1840)-berjay(1790):0-1
31/08/2019:Défi( 5J+36H/c 30J Max ) christie(1150)-anumisme(1390):0-1
31/08/2019:Tournoi n°20022 jlr(1440)-panchoa(1650):1-0
31/08/2019:Tournoi n°20068 leredoutable(1670)-zukchess(1720):1-0
31/08/2019:Eq:Les Seigneurs de l Atlantide-Pirates du Mat : daiwen(2160)-capitaine(2150):1-0
31/08/2019:Défi( 5J+12H/c 10J Max ) patau(1740)-nimzoindien(1880):1/2-1/2
31/08/2019:Défi tbeau44(1740)-ramo(1690):0-1
31/08/2019:Défi( 5J+36H/c 30J Max ) anumisme(1430)-marcol(1030):1-0
31/08/2019:Défi( 5J+36H/c 30J Max ) hebro(1760)-tiounet(1660):0-1
31/08/2019:Défi tiounet(1660)-hebro(1760):1-0
31/08/2019:Défi( 5J+12H/c 10J Max ) verson(1830)-nimzoindien(1870):1-0
31/08/2019:Un miserable boudapeste upsalin(1990)-ptitefrez(2110):0-1
31/08/2019:Memorial Lara XLIX upsalin(1970)-jogador49(1970):0-1
31/08/2019:Tetraktus 21 upsalin(2040)-vachefolle(2090):1-0
31/08/2019:Tournoi échelle division 3 cedric77(1520)-sebastien(1200):1-0
31/08/2019:Tournoi échelle division 3 jlr(1420)-upsalin(2040):0-1
31/08/2019:Tournoi n°19773 louis67(1670)-hinnol(1770):0-1
31/08/2019:Tournoi n°20061 tinou(2290)-burgman(2110):1-0
31/08/2019:Tournoi n°19839 jlr(1610)-zozo(1690):0-1
31/08/2019:Tournoi n°20057 gui004(999)-alien(1150):0-1
31/08/2019:Tournoi n°20055 mikeharris(1620)-berthe(1830):0-1
31/08/2019:Tournoi n°20017 jlr(1450)-jpmr(1580):0-1
31/08/2019:Tournoi n°20091 percheval(1740)-coyotov(1710):1-0
31/08/2019:Tournoi n°20113 bb7553(1910)-verson(1830):0-1
31/08/2019:Eq:Pirates du Mat-les modestes : breitenbach(2310)-blutch70(2220):1-0
31/08/2019:Eq:Pirates du Mat-les modestes : volatile(2520)-escargot08(2870):0-1
31/08/2019:Eq:Pirates du Mat-les modestes : escargot08(2870)-volatile(2520):1-0
31/08/2019:Coupe Niveau 2 gulliver7761(1720)-patau(1680):1-0
31/08/2019:Défi francis94(2020)-loco11(1950):0-1
31/08/2019:Défi papymiche(1710)-tartu(1720):0-1
31/08/2019:Défi tartu(1680)-cortaz(1840):1/2-1/2
31/08/2019:Défi arno(1820)-den(1890):0-1
31/08/2019:Défi( 5J+36H/c 30J Max ) kaspy(2000)-amanotep(1820):1-0
31/08/2019:Défi( 5J+36H/c 30J Max ) fly(2020)-stripchess3(1670):1/2-1/2
31/08/2019:Défi superman(1760)-zozo(1720):1-0
31/08/2019:Défi( 5J+36H/c 30J Max ) titine(1390)-perepeinard34(1370):0-1
31/08/2019:Défi( 5J+36H/c 30J Max ) patau(1770)-connecticcut(1790):0-1
31/08/2019:Défi( 5J+36H/c 30J Max ) alain34(2160)-tiounet(1660):1-0
31/08/2019:PtiteloDeviendraGrandAvec2Fous brettsinclair(1640)-epervier14(1420):1-0
31/08/2019:Gant bite de Boudapeste dragon(1900)-mollusque(1910):0-1
31/08/2019:Modernité intrigue(1690)-baudoin(1960):1-0
31/08/2019:Tetraktus 21 turbo(1530)-karkaskat(2230):0-1
31/08/2019:Tournoi n°20033 breitenbach(2300)-francis95(2020):1-0
31/08/2019:Tournoi n°19931 kiki24(1910)-xercott(1800):1-0
31/08/2019:Tournoi n°19957 albescab(1640)-pionfou(1670):1-0
31/08/2019:Tournoi n°19973 mokanne(1510)-mandrak(1680):1-0
31/08/2019:Tournoi n°20112 spizdee(1690)-wenoketo(1590):1-0
31/08/2019:Eq:Les Quebecois-cotenstock : janolapin(1830)-alain64(2230):0-1
31/08/2019:Défi hargas(1480)-lancov(1890):1-0
31/08/2019:Défi midas(1690)-wenoketo(1630):0-1
31/08/2019:Défi( 5J+36H/c 30J Max ) turbo(1520)-perepeinard34(1410):1-0
31/08/2019:ÉchangeEspagnol flo71(1970)-youliyouli(1850):1-0
31/08/2019:Un miserable boudapeste youliyouli(1820)-alien(1150):1-0
31/08/2019:A 8 a alien(1150)-zozo(1690):1-0
31/08/2019:A 8 a titit1(1150)-alien(1150):0-1
31/08/2019:Memorial Lara L karkaskat(2240)-dragon(1900):0-1
31/08/2019:Memorial Lara L karkaskat(2240)-zozo(1690):1-0
31/08/2019:Tetraktus 22 turbo(1520)-karkaskat(2200):0-1
31/08/2019:Tournoi n°19886 willkommen54(2040)-rvsinovitch(2070):1/2-1/2
31/08/2019:Tournoi n°19917 lebelgicain(1690)-jlr(1610):1-0
31/08/2019:Tournoi n°20078 tiounet(1680)-intrigue(1650):1-0
31/08/2019:Eq:Mission Impossible-Vikings : apage(2100)-moutarde18(2010):0-1
31/08/2019:Eq:O fou d hello-Les Seigneurs de l Atlantide : mrmatchnul(2310)-sanvic76(2100):1-0
31/08/2019:Défi( 5J+36H/c 30J Max ) ziviol(1460)-vb83(1390):0-1
31/08/2019:Memorial Lara L tartu(1750)-karkaskat(2240):0-1
31/08/2019:Tetraktus 22 glouton(1569)-turbo(1520):1-0
31/08/2019:Tournoi n°20099 desaintfegor(1790)-scarfield(1760):1-0
31/08/2019:Tournoi n°19950 xercott(1800)-mazdaroket(1950):0-1
31/08/2019:Tournoi n°20067 doriphore(1960)-arno(1800):0-1
31/08/2019:Eq:LES CHATTERBOX-Les Seigneurs de l Atlantide : mazdaroket(2000)-uji40(1710):1/2-1/2
31/08/2019:Coupe Niveau 5 djayphil(2300)-tartu(1730):1-0
31/08/2019:Défi turbo(1530)-baloo(1450):1-0
31/08/2019:Défi( 5J+36H/c 30J Max ) coyotov(1730)-titit1(1200):1-0
31/08/2019:Défi( 5J+36H/c 30J Max ) djayphil(2280)-pascalou50(1810):1/2-1/2
31/08/2019:Sicilienne magique tragique joliguppy(1769)-zeus87(1950):0-1
31/08/2019:Marion nous tiounet(1680)-intrigue(1650):0-1
31/08/2019:Marion nous intrigue(1650)-tiounet(1680):0-1
31/08/2019:Tetraktus 21 vachefolle(2090)-turbo(1530):0-1
31/08/2019:Memorial Lara XLIX karkaskat(2230)-titit1(1150):1-0
31/08/2019:Tetraktus 21 vachefolle(2090)-emmanuel(1990):0-1
31/08/2019:Tetraktus 22 titit1(1220)-tiounet(1690):0-1
31/08/2019:CC Printemps 2019 pournelle(2700)-pionroi(2780):1/2-1/2
31/08/2019:Tournoi n°20101 panchoa(1650)-francus(1690):1-0
31/08/2019:Tournoi n°20090 intrigue(1650)-panchoa(1650):1-0
31/08/2019:Tournoi n°20009 petitjoueur(2060)-mazdaroket(2000):1-0
31/08/2019:Tournoi n°20093 jlr(1500)-patetmat(1480):0-1
31/08/2019:Tournoi n°20089 jlr(1500)-patetmat(1480):0-1
31/08/2019:Tournoi n°19978 jlr(1450)-katastrofic(1460):0-1
31/08/2019:Tournoi n°20062 oranmore(2030)-kichmat(1990):0-1
31/08/2019:Tournoi n°20112 joel(1540)-spizdee(1690):0-1
31/08/2019:Tournoi n°20114 wenoketo(1600)-jlr(1430):0-1
31/08/2019:Coupe Niveau 2 jlr(1440)-tartu(1660):0-1
31/08/2019:Coupe Niveau 4 elghribi(1960)-upsalin(2040):1-0
31/08/2019:Défi arno(1820)-koi34(1800):1-0
31/08/2019:Défi( 5J+36H/c 30J Max ) danivarl(1660)-stripchess3(1670):1-0
31/08/2019:Défi ephixe(1710)-wenoketo(1630):1-0
31/08/2019:Défi dave04(1350)-epervier14(1430):1-0
31/08/2019:Défi baudoin(1960)-hubble(1910):1-0
31/08/2019:Défi katastrofic(1470)-epervier14(1430):1-0
31/08/2019:Défi hubble(1599)-marmotte50(2250):0-1
31/08/2019:Défi tbeau44(1750)-superman(1760):1-0
31/08/2019:Défi sebastien(1200)-kerenor(1680):0-1
31/08/2019:Défi epervier14(1440)-rocinante(1540):0-1
31/08/2019:Défi morloch(1870)-ecjc(1950):0-1
31/08/2019:Défi den(1890)-arno(1820):1-0
31/08/2019:Défi( 5J+36H/c 30J Max ) den(1900)-alain34(2180):1/2-1/2
31/08/2019:Défi( 5J+36H/c 30J Max ) pitchoune50(1000)-pascalou50(1800):0-1
31/08/2019:Défi flo71(2000)-salut(1900):0-1
31/08/2019:Défi( 5J+36H/c 30J Max ) jajaf1959(1790)-patau(1730):1-0
31/08/2019:Défi( 5J+36H/c 30J Max ) titit1(1220)-pitchoune50(1000):1-0
31/08/2019:Jaune est la révolution 6 ficherre(2290)-upsalin(1940):1-0
31/08/2019:Gisèle 42 stripchess3(1690)-upsalin(1990):1-0
31/08/2019:A 8 a sebastien(1150)-lecevenol(1380):0-1
31/08/2019:Le Roi est mort 7 turbo(1520)-lecevenol(1330):1-0
31/08/2019:Tetraktus 22 stripchess3(1650)-glouton(1569):0-1
31/08/2019:Tetraktus 22 glouton(1569)-epervier14(1440):1-0
31/08/2019:CC Aut19 Asc(2/4) sebastien(1200)-tinenfant(1850):0-1
31/08/2019:Tournoi n°20046 vb83(1390)-sebastien(1200):1-0
31/08/2019:Tournoi n°20044 pionfou(1660)-doudou(1670):0-1
31/08/2019:Tournoi n°20114 wenoketo(1600)-coyotov(1670):0-1
31/08/2019:Eq:Pirates du Mat-les modestes : pilinapolgar(2450)-daiwen(2270):1-0
31/08/2019:Eq:CHESS MASTER-roichess : sebastien(1200)-chocotov(1940):0-1
31/08/2019:Coupe Niveau 3 doriphore(1970)-xey(1980):0-1
31/08/2019:Défi( 5J+36H/c 30J Max ) gervaise(1000)-anumisme(1490):0-1
31/08/2019:Défi( 5J+36H/c 30J Max ) patau(1750)-cramsnellac(1730):1-0
31/08/2019:Défi( 5J+36H/c 30J Max ) sebastien(1070)-maximax(1340):0-1
31/08/2019:Défi( 5J+36H/c 30J Max ) pitchoune50(1000)-pascalou50(1810):0-1
31/08/2019:Défi teacup(1720)-tbeau44(1740):0-1
31/08/2019:Défi( 5J+36H/c 30J Max ) ys07(1390)-dave04(1400):0-1
31/08/2019:Défi( 5J+36H/c 30J Max ) oliver5(1550)-jlr(1510):0-1
31/08/2019:Défi morloch(1910)-zayka(1950):1/2-1/2
31/08/2019:Défi payne42(1670)-anglais(1650):1-0
31/08/2019:Défi( 5J+36H/c 30J Max ) tousostade(1540)-vb83(1390):0-1
31/08/2019:Défi bonafous(1420)-gilberthellemans(1580):0-1
31/08/2019:Défi( 5J+36H/c 30J Max ) tartu(1730)-chobi(1780):1-0
31/08/2019:Défi fisher(1620)-wenoketo(1630):1-0
31/08/2019:Défi pierrejean(1370)-malvina(1370):1-0
31/08/2019:Défi tiounet(1680)-thierry06(1700):1-0
31/08/2019:Défi( 5J+36H/c 30J Max ) perepeinard34(1400)-turbo(1510):1-0
31/08/2019:Défi( 5J+36H/c 30J Max ) patau(1770)-tiounet(1660):1-0
31/08/2019:A8b tiounet(1660)-petitlulu64(1650):0-1
31/08/2019:Tournoi échelle élite salut(1900)-elghribi(1960):1-0
31/08/2019:Tournoi n°20102 joel(1540)-patetmat(1510):0-1
31/08/2019:Tournoi n°20042 pierrejean(1390)-cicerond(1450):0-1
31/08/2019:Tournoi n°20042 kiki37(1440)-pierrejean(1390):1-0
31/08/2019:Tournoi n°20094 domenico(1840)-verson(1850):0-1
31/08/2019:Tournoi n°20100 ghostdog(1640)-simer(1740):1-0
31/08/2019:Tournoi n°20113 bb7553(1910)-elghribi(1980):0-1
31/08/2019:Défi asvel69(1820)-arno(1790):0-1
31/08/2019:Défi( 5J+36H/c 30J Max ) panchoa(1640)-stripchess3(1690):0-1
31/08/2019:Défi( 5J+36H/c 30J Max ) tichaton(1450)-minon(2040):1/2-1/2
31/08/2019:Défi( 5J+12H/c 10J Max ) baudoin(1930)-jipix(2140):1/2-1/2
31/08/2019:Amical( 5J+36H/c 30J Max ) bonafous(1410)-joel(1570):0-1
31/08/2019:Défi( 5J+36H/c 30J Max ) pascalou50(1730)-stripchess3(1640):1-0
31/08/2019:Défi riothamus(1730)-asvel69(1800):0-1
31/08/2019:Défi( 5J+36H/c 30J Max ) pitchoune50(1000)-pascalou50(1810):0-1
31/08/2019:Un miserable boudapeste youliyouli(1820)-stripchess3(1690):1-0
31/08/2019:Un miserable boudapeste ptitefrez(2110)-stripchess3(1690):1-0
31/08/2019:Marion nous danivarl(1680)-stripchess3(1640):1-0
31/08/2019:Memorial Lara L fly(2030)-karkaskat(2240):0-1
31/08/2019:Tetraktus 21 upsalin(2040)-rons(2610):0-1
31/08/2019:Tetraktus 22 fly(2010)-tiounet(1690):1-0
31/08/2019:Tetraktus 22 stripchess3(1650)-tiounet(1690):0-1
31/08/2019:Tournoi échelle division 3 danivarl(1660)-bim(2120):0-1
01/09/2019:Tournoi n°20048 intrigue(1720)-jyf(1890):1-0
01/09/2019:Coupe Niveau 6 bournivergne(2290)-cobraxx10(2410):1/2-1/2
01/09/2019:Défi( 5J+36H/c 30J Max ) bb7553(1890)-moris54(1980):1-0
01/09/2019:Défi( 5J+36H/c 30J Max ) fly(2010)-stripchess3(1640):1-0
01/09/2019:Défi papymiche(1720)-florencia1260(1640):1-0
01/09/2019:Défi zayka(1970)-morloch(1900):1-0
01/09/2019:Boudha peste tiounet(1590)-stripchess3(1580):1-0
01/09/2019:Gambite de Boudapeste tiounet(1660)-stripchess3(1600):1-0
01/09/2019:Tournoi échelle élite fly(2010)-ptitefrez(2130):1-0
01/09/2019:Tournoi échelle division 3 danivarl(1680)-glouton(1609):0-1
01/09/2019:Tournoi n°20059 mojo(1800)-scarfield(1760):1-0
01/09/2019:Tournoi n°19869 jlr(1620)-sergesee(1540):1-0
01/09/2019:Défi roschecx(1680)-florencia1260(1710):1/2-1/2
01/09/2019:Défi valentinov(2640)-scapin(2619):1/2-1/2
01/09/2019:Défi felicio(2210)-leredoutable(1580):1/2-1/2
01/09/2019:Défi tbeau44(1740)-trueman(1870):0-1
01/09/2019:Défi tbeau44(1730)-tbeau44(1730):0-1
01/09/2019:Défi marcol(1050)-anumisme(1420):1-0
01/09/2019:Défi( 5J+36H/c 30J Max ) holyhour(1830)-samjf(1300):1-0
01/09/2019:Memorial Lara XLIX titit1(1150)-jogador49(1970):0-1
01/09/2019:Tournoi échelle division 1 domenico(1840)-verson(1860):1-0
01/09/2019:Tournoi n°19588 nogean(1680)-sergesee(1500):1/2-1/2
01/09/2019:Tournoi n°20084 jyf(1870)-scarfield(1750):1-0
01/09/2019:Tournoi n°20051 verson(1810)-pier13(1780):1-0
01/09/2019:Tournoi n°20087 kiki24(1930)-verson(1900):1-0
01/09/2019:Coupe Niveau 4 doriphore(1970)-verson(1860):1-0
01/09/2019:Coupe Niveau 4 coincoin18(2120)-verson(1840):1-0
01/09/2019:Défi( 5J+36H/c 30J Max ) artorg(2090)-alain34(2180):0-1
01/09/2019:Défi( 5J+36H/c 30J Max ) bibisept(1890)-alain34(2180):0-1
01/09/2019:Défi( 5J+36H/c 30J Max ) anumisme(1390)-pasq60(1280):0-1
01/09/2019:Défi quentin(1499)-turbo(1530):0-1
01/09/2019:Défi( 5J+36H/c 30J Max ) perepeinard34(1410)-rocinante(1520):1-0
01/09/2019:Memorial Lara XLIX jogador49(1970)-upsalin(1970):1/2-1/2
01/09/2019:Tetraktus 21 rons(2610)-emmanuel(1990):1-0
01/09/2019:Tournoi n°20106 intrigue(1630)-verson(1870):1-0
01/09/2019:Tournoi n°20104 tartu(1750)-verson(1870):1-0
01/09/2019:Tournoi n°19813 loco11(1910)-francis95(1980):0-1
01/09/2019:CC Aut19 Asc(2/4) tinenfant(1850)-sebastien(1200):1-0
01/09/2019:Tournoi n°20046 jlr(1450)-sebastien(1220):1-0
01/09/2019:Tournoi n°20078 intrigue(1690)-scarfield(1750):0-1
01/09/2019:Tournoi n°20113 verson(1830)-elghribi(1980):0-1
01/09/2019:Eq:les modestes-Mission Impossible : breitenbach(2330)-akhaline(2400):1-0
01/09/2019:Eq:Vikings-O fou d hello : cobraxx10(2490)-vtt(1680):0-1
01/09/2019:Eq:Pirates du Mat-Les Gens du Sud : emmanuel69(1770)-blutch70(2210):0-1
01/09/2019:Eq:CHESS MASTER-roichess : chocotov(1940)-sebastien(1200):1-0
01/09/2019:Eq:Mission Impossible-Fair play : ramoutch91(1760)-joel(1560):0-1
01/09/2019:Eq:Pirates du Mat-les modestes : blutch70(2220)-breitenbach(2310):1/2-1/2
01/09/2019:Eq:Pirates du Mat-Les Corsaires de Lechiquier : unsingeenhiver(2800)-volatile(2520):1-0
01/09/2019:Eq:Pirates du Mat-Les Corsaires de Lechiquier : scroff(2730)-eltche(2410):1-0
01/09/2019:Coupe Niveau 1 sebastien(1200)-jlr(1470):0-1
01/09/2019:Défi( 5J+36H/c 30J Max ) turbo(1520)-perepeinard34(1400):0-1
01/09/2019:Défi morloch(1880)-fly(2010):1-0
01/09/2019:Défi joelcouturier(1260)-anumisme(1350):1-0
01/09/2019:Défi( 5J+36H/c 30J Max ) sebastien(1290)-matlepuma(1340):0-1
01/09/2019:Défi zozo(1690)-teacup(1670):0-1
01/09/2019:Défi wenoketo(1700)-pahlo111(1690):1-0
01/09/2019:Défi( 5J+36H/c 30J Max ) sebastien(1070)-perepeinard34(1400):0-1
01/09/2019:Défi steflam(1410)-coincoin18(2010):0-1
01/09/2019:Défi teacup(1720)-patau(1780):0-1
01/09/2019:Défi( 5J+36H/c 30J Max ) chobi(1770)-patau(1790):0-1
01/09/2019:Défi felin(1590)-doudou(1660):1-0
01/09/2019:Défi fredoparis(1740)-claudius94(2260):0-1
01/09/2019:Défi elghribi(1980)-arno(1820):1/2-1/2
01/09/2019:Défi zozo(1690)-tiounet(1630):0-1
01/09/2019:Défi( 5J+36H/c 30J Max ) turbo(1520)-perepeinard34(1410):1-0
01/09/2019:chaud chaud mathador93(1520)-zozo(1700):1-0
01/09/2019:Marion nous intrigue(1650)-artorg(2110):0-1
01/09/2019:Le Roi est mort 7 turbo(1520)-titit1(1190):1-0
01/09/2019:A8b sebastien(1060)-zozo(1670):0-1
01/09/2019:A8b zozo(1670)-sebastien(1060):1-0
01/09/2019:Tetraktus 21 rons(2610)-fly(2010):1-0
01/09/2019:Tetraktus 21 vachefolle(2090)-fly(2010):0-1
01/09/2019:Tetraktus 22 fly(2010)-turbo(1520):1-0
01/09/2019:Tetraktus 22 turbo(1520)-titit1(1220):0-1
01/09/2019:Tournoi échelle division 3 jlr(1490)-sebastien(1070):1-0
01/09/2019:Tournoi n°20005 brettsinclair(1700)-teacup(1680):1-0
01/09/2019:Tournoi n°20094 loco11(1980)-domenico(1840):0-1
01/09/2019:Tournoi n°20062 nicodemouscron(2120)-breitenbach(2300):0-1
01/09/2019:Tournoi n°20077 coyotov(1700)-mandrak(1670):0-1
01/09/2019:Tournoi n°20079 titit1(1220)-sebastien(1060):1-0
01/09/2019:Tournoi n°20121 verson(1820)-tiounet(1670):0-1
01/09/2019:Eq:Les Gens du Sud-Les Seigneurs de l Atlantide : vostok(1440)-emmanuel69(1780):0-1
01/09/2019:Eq:Les Seigneurs de l Atlantide-Danielsen City : pasctin(1970)-burgman(2090):0-1
01/09/2019:Eq:Mission Impossible-Fair play : joel(1560)-ramoutch91(1760):1-0
01/09/2019:Coupe Niveau 4 emmanuel(2030)-silveur(1990):0-1
01/09/2019:Coupe Niveau 5 breitenbach(2300)-fly(2010):1-0
01/09/2019:Défi gambitor(1490)-geld108(1500):0-1
01/09/2019:Défi( 5J+36H/c 30J Max ) teacup(1690)-perepeinard34(1400):1-0
01/09/2019:Défi( 5J+36H/c 30J Max ) geld108(1500)-lilou(1490):1-0
01/09/2019:Défi tiounet(1700)-teacup(1670):1-0
01/09/2019:Défi( 5J+36H/c 30J Max ) stripchess3(1660)-sebastien(1310):1-0
01/09/2019:Défi katastrofic(1460)-turbo(1530):0-1
01/09/2019:Défi( 5J+36H/c 30J Max ) asvel69(1800)-zayka(1950):0-1
01/09/2019:Défi wenoketo(1630)-ephixe(1710):0-1
01/09/2019:Défi ephixe(1710)-wenoketo(1630):0-1
01/09/2019:Défi( 5J+36H/c 30J Max ) perepeinard34(1410)-turbo(1520):1-0
01/09/2019:Os court jogador49(1990)-stripchess3(1630):1-0
01/09/2019:Jaune est la révolution 6 salut(1900)-dragon(1890):0-1
01/09/2019:Marion nous fly(2000)-artorg(2110):0-1
01/09/2019:A8b zozo(1670)-turbo(1500):0-1
01/09/2019:A8b sebastien(1060)-tiounet(1660):0-1
01/09/2019:A8b tiounet(1660)-sebastien(1060):1-0
01/09/2019:A8b sebastien(1060)-coyotov(1700):0-1
01/09/2019:A8b coyotov(1700)-sebastien(1060):1-0
01/09/2019:A8b zozo(1670)-tiounet(1660):1-0
01/09/2019:A8b coyotov(1700)-tiounet(1660):1-0
01/09/2019:Najdorf à foison upsalin(2010)-tiounet(1700):1-0
01/09/2019:Memorial Lara XLIX emmanuel(2020)-jogador49(1970):1/2-1/2
01/09/2019:Tournoi n°20102 patetmat(1500)-wenoketo(1600):1-0
01/09/2019:Tournoi n°20104 arno(1790)-verson(1860):1-0
01/09/2019:Tournoi n°20100 simer(1740)-verson(1880):0-1
01/09/2019:Tournoi n°20089 patetmat(1480)-katastrofic(1470):1-0
01/09/2019:Tournoi n°19931 mazdaroket(1940)-xercott(1810):1-0
01/09/2019:Tournoi n°20073 katastrofic(1440)-lecevenol(1350):1-0
01/09/2019:Eq:Les Gens du Sud-Les Seigneurs de l Atlantide : emmanuel(2040)-capitaine(2150):1-0
01/09/2019:Eq:Vikings-LES CHATTERBOX : ephixe(1710)-seb(1770):0-1
01/09/2019:Coupe Niveau 3 verson(1810)-jogador49(1970):1/2-1/2
01/09/2019:Défi roxane(1420)-castor(1430):0-1
01/09/2019:Défi( 5J+36H/c 30J Max ) titit1(1130)-gervaise(1000):1-0
01/09/2019:Défi titine(1370)-maximax(1330):0-1
01/09/2019:Défi( 5J+36H/c 30J Max ) fragol(1740)-ycar(1630):1-0
01/09/2019:Défi florencia1260(1650)-reemyyy(1650):0-1
01/09/2019:Défi wenoketo(1630)-midas(1690):1-0
01/09/2019:Défi( 5J+36H/c 30J Max ) titine(1410)-perepeinard34(1400):0-1
01/09/2019:Défi bubbly(1360)-maximax(1340):0-1
01/09/2019:Défi( 5J+36H/c 30J Max ) pitchoune50(1000)-pascalou50(1810):0-1
01/09/2019:Tartaruga 5 mollusque(1910)-upsalin(1960):1-0
01/09/2019:Gisèle 42 upsalin(1990)-fly(2010):0-1
01/09/2019:Marion nous artorg(2110)-upsalin(2030):1-0
01/09/2019:Gant bite de Boudapeste stripchess3(1630)-mollusque(1910):1-0
01/09/2019:A8b tiounet(1660)-coyotov(1700):0-1
01/09/2019:Memorial Lara XLIX turbo(1540)-jogador49(1970):1/2-1/2
01/09/2019:Memorial Lara XLIX jogador49(1970)-emmanuel(2020):1/2-1/2
01/09/2019:Tetraktus 21 upsalin(2040)-fly(2010):1/2-1/2
01/09/2019:Tetraktus 22 glouton(1569)-fly(2010):1-0
01/09/2019:Tournoi échelle division 2 ephixe(1710)-uji40(1700):1-0
01/09/2019:Tournoi n°20102 patetmat(1510)-coyotov(1680):1-0
01/09/2019:Tournoi n°19949 c13e(1750)-verson(1830):1/2-1/2
01/09/2019:Tournoi n°20105 doriphore(1970)-verson(1850):1-0
01/09/2019:Tournoi n°20090 intrigue(1650)-coyotov(1710):0-1
01/09/2019:Tournoi n°20065 bazart(1920)-loco11(1980):1-0
01/09/2019:Tournoi n°19927 mollusque(1910)-bylka(1800):1-0
01/09/2019:Tournoi n°20122 wenoketo(1590)-joel(1570):1-0
01/09/2019:Tournoi n°20048 mrhodge(1699)-intrigue(1730):1-0
01/09/2019:Tournoi n°20121 simer(1740)-tiounet(1670):1-0
01/09/2019:Tournoi n°20115 onetwoyve(1790)-verson(1840):1/2-1/2
01/09/2019:Tournoi n°20115 glouton(1740)-onetwoyve(1790):1-0
01/09/2019:Tournoi n°20115 glouton(1740)-ephixe(1710):1-0
01/09/2019:Coupe Niveau 5 percy62(2140)-fly(2040):0-1
01/09/2019:Coupe Niveau 3 harrypotter(1640)-verson(1830):0-1
01/09/2019:Coupe Niveau 2 harrypotter(1690)-intrigue(1660):1/2-1/2
01/09/2019:Coupe Niveau 3 elghribi(2000)-harrypotter(1740):1-0
01/09/2019:Coupe Niveau 2 patau(1780)-harrypotter(1740):1-0
01/09/2019:Défi cortaz(1850)-arno(1790):1-0
01/09/2019:Défi arno(1790)-pj612(1770):1-0
01/09/2019:Défi( 5J+36H/c 30J Max ) chobi(1780)-intrigue(1710):1-0
01/09/2019:Défi( 5J+36H/c 30J Max ) sebastien(1030)-pitchoune50(1000):0-1
01/09/2019:Défi anumisme(1400)-titit1(1220):1-0
01/09/2019:Défi( 5J+36H/c 30J Max ) c13e(1840)-aikki(1609):1-0
01/09/2019:Défi( 5J+36H/c 30J Max ) perepeinard34(1430)-sebastien(1030):1-0
01/09/2019:Défi( 5J+36H/c 30J Max ) perepeinard34(1430)-sebastien(1040):1-0
01/09/2019:Défi sebastien(1040)-sylvia13(999):0-1
01/09/2019:Défi titit1(1230)-sebastien(1050):1-0
01/09/2019:Défi( 30J+12H/c 30J Max ) indya(1810)-damotte(1990):1-0
01/09/2019:Défi( 5J+36H/c 30J Max ) sebastien(1110)-duncanlaurence2019(999):0-1
01/09/2019:Défi midas(1680)-wenoketo(1630):1-0
01/09/2019:Défi( 5J+36H/c 30J Max ) youpla14(999)-sebastien(1040):1-0
01/09/2019:Défi( 5J+36H/c 30J Max ) sylvia13(999)-pitchoune50(1000):1-0
01/09/2019:Défi( 5J+36H/c 30J Max ) patau(1700)-epervier14(1430):1-0
01/09/2019:Défi( 5J+36H/c 30J Max ) patetmat(1500)-vb83(1430):1-0
01/09/2019:Défi tiounet(1700)-arno(1790):0-1
01/09/2019:Défi( 5J+36H/c 30J Max ) morloch(1870)-vb83(1410):1-0
01/09/2019:Défi( 5J+36H/c 30J Max ) pitchoune50(1000)-anumisme(1360):0-1
01/09/2019:Défi( 5J+36H/c 30J Max ) pitchoune50(1000)-duncanlaurence2019(1229):0-1
01/09/2019:Os court skalfa(1740)-jogador49(1990):0-1
01/09/2019:Le Roi est mort 7 turbo(1520)-sebastien(1100):1-0
01/09/2019:Le Roi est mort 7 titit1(1190)-turbo(1520):1-0
01/09/2019:A8b turbo(1500)-tiounet(1660):1-0
01/09/2019:Najdorf à foison tiounet(1700)-upsalin(2010):0-1
01/09/2019:Tetraktus 22 titit1(1220)-stripchess3(1650):0-1
01/09/2019:Tournoi échelle division 3 sebastien(1140)-danivarl(1660):0-1
01/09/2019:Tournoi échelle division 2 tiounet(1670)-harrypotter(1740):0-1
01/09/2019:Tournoi échelle division 1 verson(1840)-doriphore(1980):0-1
01/09/2019:Tournoi n°20070 silveur(2010)-fredbauduret(2000):0-1
01/09/2019:Tournoi n°20007 legrillon(1730)-intrigue(1750):0-1
01/09/2019:Tournoi n°20012 jlr(1450)-epervier14(1430):1-0
01/09/2019:Tournoi n°20021 epervier14(1440)-katastrofic(1470):0-1
01/09/2019:Tournoi n°20045 legrillon(1760)-tartu(1740):1-0
01/09/2019:Tournoi n°19999 sebastien(1200)-olilac(1290):0-1
01/09/2019:Tournoi n°20077 kaiser69(1650)-coyotov(1700):0-1
01/09/2019:Tournoi n°20110 verson(1830)-desaintfegor(1820):1-0
01/09/2019:Tournoi n°20096 tiounet(1670)-pilouface(1550):1-0
01/09/2019:Tournoi n°20126 elghribi(1960)-verson(1810):1/2-1/2
01/09/2019:Eq:Les Gens du Sud-Royal Kids : emmanuel(1970)-vickort(2280):0-1
01/09/2019:Eq:Pirates du Mat-Les Gens du Sud : goedendag(1890)-daiwen(2170):0-1
01/09/2019:Eq:Les Seigneurs de l Atlantide-La Crim Team : vladtepes(2560)-capitaine(2130):1-0
01/09/2019:Coupe Niveau 6 fly(2020)-abc47(2100):1-0
01/09/2019:Coupe Niveau 3 elghribi(2000)-jogador49(1960):0-1
01/09/2019:Coupe Niveau 4 fly(2020)-onetwoyve(1790):1/2-1/2
01/09/2019:Coupe Niveau 2 sebastien(1150)-patau(1790):0-1
01/09/2019:Coupe Niveau 5 domenico(1840)-verson(1850):0-1
01/09/2019:Coupe Niveau 5 zax(2140)-elghribi(1970):1/2-1/2
01/09/2019:Coupe Niveau 3 elghribi(1970)-harrypotter(1760):1-0
01/09/2019:Défi florencia1260(1710)-algors(1670):0-1
01/09/2019:Défi superman(1740)-algors(1700):1-0
01/09/2019:Défi superman(1740)-fredoparis(1730):1-0
01/09/2019:Défi( 5J+36H/c 30J Max ) fly(2010)-stripchess3(1690):1-0
01/09/2019:Défi swallow(2050)-goedendag(1930):1-0
01/09/2019:Défi( 5J+36H/c 30J Max ) turbo(1500)-perepeinard34(1400):1-0
01/09/2019:Défi( 5J+36H/c 30J Max ) roxane(1470)-arzbro(1480):1-0
01/09/2019:Défi goedendag(1910)-lancov(1850):1-0
01/09/2019:Défi sebastien(1050)-mc2108(1160):0-1
01/09/2019:Défi( 5J+36H/c 30J Max ) tiounet(1680)-patau(1730):0-1
01/09/2019:Défi( 5J+36H/c 30J Max ) pitchoune50(1000)-sebastien(1030):1-0
01/09/2019:Défi( 5J+36H/c 30J Max ) pascalou50(1810)-pitchoune50(1000):1-0
01/09/2019:Amical( 100J+100H/c 100J Max ) xav77(1799)-edriss(1440):1/2-1/2
01/09/2019:Défi pj612(1780)-superman(1760):1-0
01/09/2019:Défi( 5J+36H/c 30J Max ) mano(1470)-lyly(1560):1-0
01/09/2019:Défi( 5J+36H/c 30J Max ) ptitefrez(2110)-gonzok67(1770):1-0
01/09/2019:Défi fafamanga(2220)-kaspi007(2220):0-1
01/09/2019:Défi( 5J+36H/c 30J Max ) eloyoy(1990)-pascalou50(1770):1-0
01/09/2019:Défi claudius94(2260)-sergiodevienne(1730):1-0
01/09/2019:Défi( 5J+36H/c 30J Max ) samjf(1290)-pionfou(1690):0-1
01/09/2019:Défi( 5J+36H/c 30J Max ) sebastien(1010)-pitchoune50(1020):0-1
01/09/2019:Défi duncanlaurence2019(1179)-roxane(1420):1-0
01/09/2019:chaud chaud petitlulu64(1610)-tartu(1680):0-1
01/09/2019:Le Roi est mort 6 harrypotter(1640)-turbo(1530):1-0
01/09/2019:A 8 a petitlulu64(1630)-vostok(1470):0-1
01/09/2019:A 8 a petitlulu64(1630)-titit1(1150):1-0
01/09/2019:A 8 a lecevenol(1380)-sebastien(1150):1-0
01/09/2019:Tournoi Thématique Française retraite53(2430)-coups42(2520):1/2-1/2
01/09/2019:A8b sebastien(1060)-turbo(1500):0-1
01/09/2019:Tetraktus 21 rons(2610)-vachefolle(2090):1-0
01/09/2019:Tetraktus 21 salut(1880)-rons(2610):0-1
01/09/2019:Tetraktus 22 stripchess3(1650)-turbo(1520):1-0
01/09/2019:Tournoi n°20041 albescab(1700)-simer(1750):1-0
01/09/2019:Tournoi n°20033 mudra(2240)-breitenbach(2300):0-1
01/09/2019:Tournoi n°20046 orlane(1370)-vb83(1390):0-1
01/09/2019:Tournoi n°20096 coyotov(1690)-pilouface(1550):1-0
01/09/2019:Eq:les modestes-Vikings : cobraxx10(2430)-berniz(2230):0-1
02/09/2019:Eq:Les Quebecois-cotenstock : alain64(2230)-janolapin(1830):1-0
02/09/2019:Eq:Les Gens du Sud-LES CHATTERBOX : ryba(1890)-ephixe(1700):0-1
02/09/2019:Eq:Vikings-Danielsen City : lecavaliernoir(1520)-pasctin(1960):0-1
02/09/2019:Eq:cotenstock-Les Gens du Sud : eloyoy(1980)-emmanuel69(1770):1/2-1/2
02/09/2019:Coupe Niveau 5 daniel1(1730)-berniz(2220):0-1
02/09/2019:Défi matsonic(1740)-sergio69(1490):1-0
02/09/2019:Défi( 5J+36H/c 30J Max ) danivarl(1750)-stripchess3(1610):1-0
02/09/2019:Défi berjay(1790)-riothamus(1710):0-1
02/09/2019:Défi( 5J+36H/c 30J Max ) fly(2010)-stripchess3(1680):1-0
02/09/2019:Défi( 5J+36H/c 30J Max ) sebastien(1150)-julia(1490):0-1
02/09/2019:Défi( 5J+36H/c 30J Max ) pascalou50(1810)-pitchoune50(1000):1-0
02/09/2019:Défi sergiodevienne(1730)-asvel69(1800):1-0
02/09/2019:Défi wak(1809)-bibisept(1930):1-0
02/09/2019:Défi( 5J+12H/c 10J Max ) pascalou50(1810)-djayphil(2270):0-1
02/09/2019:Défi wak(2189)-nicodemouscron(2100):1-0
02/09/2019:Jaune est la révolution 6 karkaskat(2230)-fly(2040):1-0
02/09/2019:Tetraktus 21 karkaskat(2230)-vachefolle(2090):1-0
02/09/2019:Tournoi échelle division 3 ovo(1709)-danivarl(1660):1-0
02/09/2019:CMC Niveau 2 joliguppy(1769)-zincou75(1960):0-1
02/09/2019:Tournoi n°19668 danivarl(1710)-picasso(1890):1-0
02/09/2019:Tournoi n°19892 jlr(1620)-jmjustice(1540):0-1
02/09/2019:Tournoi n°19910 johan1977(2050)-fly(2020):0-1
02/09/2019:Tournoi n°20052 leredoutable(1680)-ghostdog(1660):0-1
02/09/2019:Coupe Niveau 3 doriphore(1950)-emmanuel69(1770):1-0
02/09/2019:Coupe Niveau 2 panchoa(1640)-brettsinclair(1730):1-0
02/09/2019:Défi( 5J+36H/c 30J Max ) rocinante(1560)-dan84(1400):0-1
02/09/2019:Défi( 5J+36H/c 30J Max ) anumisme(1400)-pasq60(1270):1-0
02/09/2019:Défi morloch(1870)-roquefort(1970):1-0
02/09/2019:Défi anumisme(1390)-titit1(1190):1-0
02/09/2019:Défi( 5J+36H/c 30J Max ) voyageur14(1360)-anumisme(1410):1-0
02/09/2019:Défi burgman(2100)-pangolin(2140):0-1
02/09/2019:Najdorf à foison tiounet(1700)-flmnh(1720):0-1
02/09/2019:Memorial Lara L fly(2030)-zozo(1690):1-0
02/09/2019:Tournoi n°19827 vostok(1350)-bibi07(1460):1-0
02/09/2019:Eq:les modestes-Vikings : breitenbach(2340)-ratzi(2180):1/2-1/2
02/09/2019:Défi tartu(1670)-boisdechene(1660):1-0
02/09/2019:Défi burgman(2110)-arno(1790):1-0
02/09/2019:Défi( 5J+36H/c 30J Max ) temistocles(1430)-aikki(1609):1-0
02/09/2019:Défi epervier14(1450)-baloo(1450):1-0
02/09/2019:Défi papillon22(1790)-riothamus(1710):1-0
02/09/2019:Défi( 5J+36H/c 30J Max ) tryphon(1530)-speedyfil(1540):1-0
02/09/2019:Défi( 5J+36H/c 30J Max ) ghostdog(1660)-teacup(1700):0-1
02/09/2019:Défi wenoketo(1650)-zozo(1690):1-0
02/09/2019:Défi hubble(1940)-burgman(2110):0-1
02/09/2019:Défi turbo(1520)-gambitor(1480):1-0
02/09/2019:A8b coyotov(1700)-turbo(1500):1-0
02/09/2019:Tournoi n°19878 moris54(1990)-manulatus(1810):0-1
02/09/2019:Tournoi n°20020 berniz(2220)-nicodemouscron(2110):1-0
02/09/2019:Tournoi n°20049 elghribi(1980)-jaimelamer(2090):1/2-1/2
02/09/2019:Eq:Les Gens du Sud-Les Quebecois : sinople(2320)-ryba(1880):1-0
02/09/2019:Coupe Niveau 2 gonzok67(1740)-baranowsky(1730):0-1
02/09/2019:Coupe Niveau 3 c13e(1790)-verson(1820):1-0
02/09/2019:Défi( 5J+36H/c 30J Max ) katastrofic(1470)-rocinante(1540):1-0
02/09/2019:Défi( 5J+36H/c 30J Max ) bidoche(1640)-patau(1750):0-1
02/09/2019:Défi( 5J+36H/c 30J Max ) ryba(1870)-alain34(2200):0-1
02/09/2019:Défi pierrejean(1380)-max2007(1370):1-0
02/09/2019:Défi( 5J+36H/c 30J Max ) intrigue(1730)-ycar(1650):1-0
02/09/2019:Défi( 5J+36H/c 30J Max ) fragol(1740)-ziviol(1460):0-1
02/09/2019:Défi( 5J+36H/c 30J Max ) bidoche(1660)-uji40(1650):0-1
02/09/2019:A 8 a lecevenol(1380)-petitlulu64(1630):0-1
02/09/2019:A8b tiounet(1660)-zozo(1670):1-0
02/09/2019:Tetraktus 22 tiounet(1690)-epervier14(1440):1-0
02/09/2019:Tournoi n°20094 loco11(1980)-verson(1880):0-1
02/09/2019:Tournoi n°20029 c13e(1800)-wenoketo(1730):1-0
02/09/2019:Tournoi n°20036 verson(1820)-picasso(1900):1/2-1/2
02/09/2019:Tournoi n°20044 wenoketo(1670)-jm29(1570):0-1
02/09/2019:Tournoi n°20085 leredoutable(1690)-verson(1880):0-1
02/09/2019:Eq:les modestes-Pirates du Mat : thierry7ardeche(2040)-blutch70(2200):0-1
02/09/2019:Eq:Les Gens du Sud-O fou d hello : ryba(1880)-yab414(1660):1-0
02/09/2019:Eq:les modestes-Vikings : pilinapolgar(2520)-cobraxx10(2480):1-0
02/09/2019:Coupe Niveau 6 grouik(2360)-ramoutch91(2090):1-0
02/09/2019:Coupe Niveau 3 panchoa(1660)-kasad(1830):0-1
02/09/2019:Coupe Niveau 2 gonzok67(1770)-patau(1780):1-0
02/09/2019:Coupe Niveau 2 leredoutable(1720)-patau(1770):0-1
02/09/2019:Coupe Niveau 2 intrigue(1750)-patau(1790):1/2-1/2
02/09/2019:Défi( 5J+36H/c 30J Max ) sylvia13(1249)-pierrejean(1410):1-0
02/09/2019:Défi( 5J+36H/c 30J Max ) pascalou50(1810)-pitchoune50(1030):1-0
02/09/2019:Défi( 5J+36H/c 30J Max ) xercott(1820)-patau(1780):1-0
02/09/2019:Défi( 5J+36H/c 30J Max ) vvvv(1790)-patau(1790):1-0
02/09/2019:Défi( 5J+36H/c 30J Max ) arno(1790)-asvel69(1830):1-0
02/09/2019:Défi nimzoindien(1880)-flo71(2000):0-1
02/09/2019:Défi( 5J+12H/c 10J Max ) nimzoindien(1870)-patau(1740):1-0
02/09/2019:Canicule sur 64 cases legrillon(1710)-brettsinclair(1700):1-0
02/09/2019:Najdorf à foison upsalin(2010)-flmnh(1720):1-0
02/09/2019:Najdorf à foison flmnh(1720)-upsalin(2010):0-1
02/09/2019:Tournoi n°20077 mandrak(1670)-wenoketo(1610):0-1
02/09/2019:Tournoi n°20025 albescab(1690)-aramis(1670):1-0
02/09/2019:Tournoi n°20091 verson(1890)-leredoutable(1710):1-0
02/09/2019:Tournoi n°20122 panchoa(1620)-joel(1550):1/2-1/2
02/09/2019:Défi( 5J+36H/c 30J Max ) christie(1130)-anumisme(1410):0-1
02/09/2019:Défi( 5J+36H/c 30J Max ) gervaise(1020)-anumisme(1370):0-1
02/09/2019:Défi( 5J+36H/c 30J Max ) pascalou50(1810)-titit1(1220):1-0
02/09/2019:Défi( 5J+12H/c 10J Max ) nimzoindien(1870)-verson(1800):1/2-1/2
02/09/2019:Défi( 5J+36H/c 30J Max ) pitchoune50(1030)-pascalou50(1810):0-1
02/09/2019:Gambite de Boudapeste leet(1790)-flmnh(1700):0-1
02/09/2019:Tournoi des Interstitiels 2 joliguppy(1650)-stripchess3(1620):0-1
02/09/2019:Sicilienne magique tragique joliguppy(1769)-maya24(1390):0-1
02/09/2019:Le Roi est mort 7 tiounet(1680)-lecevenol(1330):1-0
02/09/2019:Tetraktus 22 karkaskat(2200)-titit1(1220):1-0
02/09/2019:Tournoi n°20101 wenoketo(1630)-panchoa(1650):0-1
02/09/2019:Tournoi n°19788 mayaapof(1580)-jlr(1550):1-0
02/09/2019:Tournoi n°20094 u27940(1990)-loco11(1980):1-0
02/09/2019:Tournoi n°19928 samjf(1260)-dingue(1400):0-1
02/09/2019:Tournoi n°20121 coyotov(1690)-verson(1820):0-1
02/09/2019:Tournoi n°20097 u27940(2000)-blutch70(2220):0-1
02/09/2019:Eq:Les Gens du Sud-les fous de bassans : ericb(2300)-emmanuel(2010):1-0
02/09/2019:Eq:Les Gens du Sud-Royal Kids : hallon(2410)-emmanuel(1990):1-0
02/09/2019:Coupe Niveau 7 kereon(2750)-alain64(2250):1-0
02/09/2019:Coupe Niveau 6 vickort(2290)-guig47(2140):1/2-1/2
02/09/2019:Coupe Niveau 2 mayaapof(1600)-intrigue(1700):0-1
02/09/2019:Défi trueman(1880)-goedendag(1930):0-1
02/09/2019:Défi( 5J+36H/c 30J Max ) chessgaston(2180)-titit1(1200):1-0
02/09/2019:Défi( 5J+36H/c 30J Max ) teacup(1660)-epervier14(1460):1/2-1/2
02/09/2019:Défi berjay(1770)-vvvv(1770):1/2-1/2
02/09/2019:Défi epervier14(1430)-maluel(1610):1/2-1/2
02/09/2019:Défi trebuchet(2020)-intrigue(1660):1-0
02/09/2019:Défi( 5J+36H/c 30J Max ) mano(1530)-augustin(1490):1-0
02/09/2019:Défi( 5J+36H/c 30J Max ) augustin(1490)-rocinante(1510):0-1
02/09/2019:Défi wenoketo(1600)-cortaz(1850):1-0
02/09/2019:Défi( 5J+36H/c 30J Max ) fragol(1730)-francus(1690):1-0
02/09/2019:Modernité connecticcut(1780)-xey(1960):1-0
02/09/2019:Tournoi n°20104 verson(1860)-scarfield(1750):1-0
02/09/2019:Tournoi n°20100 scarfield(1750)-verson(1850):0-1
02/09/2019:Tournoi n°20100 simer(1740)-scarfield(1750):1-0
02/09/2019:Tournoi n°20073 katastrofic(1440)-epervier14(1430):0-1
02/09/2019:Tournoi n°20037 mick13(1650)-verson(1880):0-1
02/09/2019:Tournoi n°19987 epervier14(1410)-sebastien(1160):1-0
02/09/2019:Tournoi n°20042 cicerond(1450)-sebastien(1200):1-0
02/09/2019:Tournoi n°19977 vickort(2270)-milarepa(2360):1-0
02/09/2019:Tournoi n°19993 cioran(2330)-vodouz(2250):1-0
02/09/2019:Tournoi n°19986 philou(1930)-thierry7ardeche(2000):1/2-1/2
02/09/2019:Tournoi n°20132 scarfield(1760)-simer(1710):1-0
02/09/2019:Tournoi n°19821 kiki37(1490)-dingue(1350):1-0
02/09/2019:Tournoi n°20066 katastrofic(1430)-dingue(1470):1-0
02/09/2019:Tournoi n°20104 tartu(1750)-scarfield(1750):0-1
02/09/2019:Tournoi n°19910 cuda71(1990)-johan1977(2050):0-1
02/09/2019:Tournoi n°20072 pilouface(1510)-paul2012(1520):1-0
02/09/2019:Tournoi n°20073 lecevenol(1350)-epervier14(1430):0-1
02/09/2019:Tournoi n°20108 verson(1830)-scarfield(1760):1-0
02/09/2019:Tournoi n°20127 tartu(1760)-verson(1820):1-0
02/09/2019:Tournoi n°20121 simer(1730)-verson(1820):0-1
02/09/2019:Tournoi n°20121 coyotov(1690)-simer(1730):0-1
02/09/2019:Eq:Les Seigneurs de l Atlantide-Vikings : tumultusgallicus(1380)-bubblegum(1830):0-1
02/09/2019:Eq:Les Seigneurs de l Atlantide-La Crim Team : pessoa(2110)-chronik(2090):0-1
02/09/2019:Eq:Les Rebelles-Vikings : skyfall(1970)-ghostdog(1700):1-0
02/09/2019:Eq:Les Rebelles-Royal Kids : tartu(1740)-skyfall(1960):0-1
02/09/2019:Eq:Les Gens du Sud-Pirates du Mat : dragon(1930)-blutch70(2210):0-1
02/09/2019:Coupe Niveau 2 tartu(1660)-dingue(1390):1-0
02/09/2019:Coupe Niveau 3 jogador49(1960)-xey(1930):1-0
02/09/2019:Coupe Niveau 3 verson(1840)-jogador49(1970):0-1
02/09/2019:Défi( 5J+36H/c 30J Max ) michel(1270)-anumisme(1400):0-1
02/09/2019:Défi( 5J+36H/c 30J Max ) michel(1280)-quentin(1499):1-0
02/09/2019:Défi( 5J+36H/c 30J Max ) flmnh(1710)-patau(1790):1-0
02/09/2019:Défi( 5J+36H/c 30J Max ) marlu(1630)-rocinante(1510):0-1
02/09/2019:Défi( 5J+36H/c 30J Max ) stripchess3(1690)-danivarl(1650):1-0
02/09/2019:Défi patau(1740)-tbeau44(1730):0-1
02/09/2019:Défi( 5J+36H/c 30J Max ) fly(2020)-stripchess3(1660):1-0
02/09/2019:Défi maximeg(1740)-thierry06(1700):1-0
02/09/2019:Défi( 5J+36H/c 30J Max ) hberlioz(1580)-upsalin(2040):0-1
02/09/2019:Défi goedendag(1940)-morloch(1870):0-1
02/09/2019:Défi( 5J+36H/c 30J Max ) pascalou50(1810)-pitchoune50(1030):1-0
02/09/2019:Le Roi est mort 7 epervier14(1440)-turbo(1520):0-1
02/09/2019:A8b turbo(1500)-coyotov(1700):0-1
02/09/2019:Najdorf à foison flmnh(1720)-tiounet(1700):1/2-1/2
02/09/2019:Memorial Lara XLIX jogador49(1970)-karkaskat(2230):1-0
02/09/2019:Tetraktus 22 karkaskat(2200)-glouton(1569):1-0
02/09/2019:Tournoi échelle élite fly(2010)-ptitefrez(2100):0-1
02/09/2019:Tournoi n°20100 bidoche(1640)-ghostdog(1650):1-0
02/09/2019:Tournoi n°20123 coyotov(1700)-tiounet(1700):1-0
02/09/2019:Eq:Les Corsaires de Lechiquier-cotenstock : mordom(2260)-ychiduodlatour(2870):1-0
02/09/2019:Eq:Les Gens du Sud-LES CHATTERBOX : ephixe(1700)-ryba(1890):0-1
02/09/2019:Défi tbeau44(1730)-patau(1740):0-1
02/09/2019:Défi goedendag(1930)-arno(1790):1-0
02/09/2019:Défi goedendag(1930)-trueman(1880):1-0
02/09/2019:Défi( 5J+36H/c 30J Max ) pascalou50(1810)-pitchoune50(1030):1-0
02/09/2019:Défi morloch(1870)-ecjc(1950):0-1
02/09/2019:Défi( 5J+36H/c 30J Max ) hberlioz(1580)-mequinho(1840):1-0
02/09/2019:Défi patau(1770)-thierry06(1700):1-0
02/09/2019:Défi( 5J+36H/c 30J Max ) lantana(1140)-anumisme(1360):0-1
02/09/2019:Défi( 5J+36H/c 30J Max ) patau(1770)-pascalou50(1810):1-0
02/09/2019:Défi degun(1980)-hubble(1990):0-1
02/09/2019:Défi anumisme(1400)-joelcouturier(1260):1-0
02/09/2019:Magellan oliver5(1670)-vtt(1640):0-1
02/09/2019:Marion nous upsalin(2030)-stripchess3(1640):1-0
02/09/2019:A8b tiounet(1660)-turbo(1500):0-1
02/09/2019:Tournoi échelle champions emmanuel69(1770)-domenico(1840):1-0
03/09/2019:Tournoi n°20090 coyotov(1710)-lyly(1600):1-0
03/09/2019:Tournoi n°20123 panchoa(1610)-coyotov(1700):1-0
03/09/2019:Tournoi n°20094 jmarcboury(1930)-loco11(1980):1-0
03/09/2019:Tournoi n°20094 u27940(1990)-domenico(1840):1-0
03/09/2019:Coupe Niveau 2 coyotov(1690)-brettsinclair(1720):1-0
03/09/2019:Défi( 5J+36H/c 30J Max ) anumisme(1400)-samjf(1300):1-0
03/09/2019:Défi( 5J+36H/c 30J Max ) perepeinard34(1410)-malvina(1370):1-0
03/09/2019:Défi( 5J+36H/c 30J Max ) pascalou50(1810)-pitchoune50(1030):1-0
03/09/2019:Défi berjay(1780)-kaspy(2010):0-1
03/09/2019:Tournoi n°20092 glouton(1930)-samjf(1290):1-0
03/09/2019:Coupe Niveau 2 leredoutable(1620)-mayaapof(1580):0-1
03/09/2019:Coupe Niveau 2 leredoutable(1720)-c13e(1770):0-1
03/09/2019:Défi johan1977(2060)-hubble(1950):0-1
03/09/2019:Défi burgman(2090)-leredoutable(1660):1-0
03/09/2019:Défi killfish(1970)-asvel69(1830):1-0
03/09/2019:CC Aut19 Asc(4/4) thomas(1770)-cedric77(1510):0-1
03/09/2019:CC Aut19 Asc(4/4) thomas(1770)-gonzok67(1770):0-1
03/09/2019:Tournoi n°19880 petitlulu64(1660)-thierry22(1650):1-0
03/09/2019:Tournoi n°19880 thierry22(1650)-jlr(1640):1-0
03/09/2019:Tournoi n°20072 paul2012(1520)-jlr(1490):1-0
03/09/2019:Tournoi n°20085 tiounet(1660)-myka(1770):1-0
03/09/2019:Défi sebastien(1070)-anumisme(1420):0-1
03/09/2019:Défi regor(2000)-hubble(1910):1-0
03/09/2019:Défi( 5J+36H/c 30J Max ) kawa750(1600)-patau(1780):0-1
03/09/2019:Défi sebastien(1060)-anumisme(1400):0-1
03/09/2019:Défi morloch(1870)-degun(1980):0-1
03/09/2019:Le Roi est mort 5 epervier14(1380)-stripchess3(1560):0-1
03/09/2019:Gambite de Boudapeste leet(1790)-tiounet(1660):1-0
03/09/2019:Le Roi est mort 6 sebastien(1210)-epervier14(1430):0-1
03/09/2019:Le Roi est mort 7 tiounet(1680)-epervier14(1440):1-0
03/09/2019:Tournoi n°20126 verson(1810)-upsalin(1990):0-1
03/09/2019:Tournoi n°19977 milarepa(2360)-breitenbach(2330):1-0
03/09/2019:Tournoi n°19937 holyhour(1790)-kendo2d(1810):1-0
03/09/2019:Tournoi n°20075 tartu(1730)-leredoutable(1680):0-1
03/09/2019:Eq:les modestes-O fou d hello : berniz(2200)-vtt(1640):1-0
03/09/2019:Eq:Pirates du Mat-les modestes : sherezo(2700)-blutch70(2200):1-0
03/09/2019:Défi kerenor(1680)-ohnopleyel(1360):1-0
03/09/2019:Défi( 5J+36H/c 30J Max ) matlepuma(1300)-titit1(1230):0-1
03/09/2019:Défi trueman(1890)-tartu(1730):1-0
03/09/2019:Défi degun(1990)-tartu(1730):1/2-1/2
03/09/2019:Défi( 5J+36H/c 30J Max ) leet(1770)-vb83(1550):1-0
03/09/2019:Défi( 5J+36H/c 30J Max ) marcol(1070)-anumisme(1420):0-1
03/09/2019:Défi( 5J+36H/c 30J Max ) blackrider(1710)-patau(1790):1/2-1/2
03/09/2019:Défi( 5J+36H/c 30J Max ) patau(1790)-tbeau44(1720):1-0
03/09/2019:Défi( 50J+12H/c 50J Max ) marmotte50(2240)-indya(1880):1-0
03/09/2019:Défi( 5J+36H/c 30J Max ) chobi(1750)-matsonic(1750):1-0
03/09/2019:Défi( 5J+36H/c 30J Max ) jimi50(1910)-goedendag(1940):0-1
03/09/2019:Sicilienne magique tragique paul2012(1640)-gaynormand(1459):1-0
03/09/2019:Tournoi n°20094 verson(1870)-jmarcboury(1930):0-1
03/09/2019:Tournoi n°20077 wenoketo(1610)-kaiser69(1650):0-1
03/09/2019:Tournoi n°20081 capitaine(2140)-burgman(2110):1-0
03/09/2019:Tournoi n°20088 francus(1700)-ragg(1590):0-1
03/09/2019:Eq:Pirates du Mat-Danielsen City : azerty1(2130)-orchidee(2280):0-1
03/09/2019:Eq:Les Gens du Sud-Fair play : tetene(1790)-gulliver(2130):0-1
03/09/2019:Eq:O fou d hello-CHESS MASTER : c69(1560)-yab414(1630):0-1
03/09/2019:Défi flo71(1990)-hubble(1990):0-1
03/09/2019:Défi( 5J+36H/c 30J Max ) vb83(1430)-spizdee(1680):0-1
03/09/2019:Défi( 5J+36H/c 30J Max ) kiki(2180)-vb83(1430):1-0
03/09/2019:Défi( 5J+36H/c 30J Max ) cocodou(1890)-campa(1650):0-1
03/09/2019:Défi hubble(1960)-kaby771(2100):0-1
03/09/2019:Défi( 5J+36H/c 30J Max ) youliyouli(1820)-jetjet91330(2000):0-1
03/09/2019:Défi( 5J+12H/c 10J Max ) verson(1800)-nimzoindien(1860):1/2-1/2
03/09/2019:Défi( 5J+36H/c 30J Max ) ghostdog(1690)-toucco67(1710):1-0
03/09/2019:Défi arno(1820)-pj612(1770):1-0
03/09/2019:Défi malvina(1370)-lancien57(1600):1-0
03/09/2019:Défi boisdechene(1640)-pourquoipas(1490):1-0
03/09/2019:Défi roger72(1510)-youpla13(999):1-0
03/09/2019:Défi( 5J+36H/c 30J Max ) pourquoipas(1500)-mano(1540):0-1
03/09/2019:Défi wak(1809)-nathand(2070):1-0
03/09/2019:Défi( 5J+36H/c 30J Max ) pilouface(1540)-duncanlaurence2019(1179):1-0
03/09/2019:Défi den(1890)-vvvv(1750):1-0
03/09/2019:Os court connecticcut(1840)-stripchess3(1630):1-0
03/09/2019:Gant bite de Boudapeste stripchess3(1630)-fly(2010):0-1
03/09/2019:Marion nous stripchess3(1640)-artorg(2110):0-1
03/09/2019:Marion nous stripchess3(1640)-tiounet(1680):1-0
03/09/2019:Memorial Lara XLIX emmanuel(2020)-karkaskat(2230):0-1
03/09/2019:Tournoi n°20009 thierry7ardeche(2000)-willkommen54(2030):1/2-1/2
03/09/2019:Tournoi n°20036 tartu(1710)-picasso(1900):0-1
03/09/2019:Tournoi n°20076 jetjet91330(1990)-artorg(2100):1-0
03/09/2019:Eq:Pirates du Mat-Les Gens du Sud : emmanuel(2020)-sp52(2360):1/2-1/2
03/09/2019:Eq:Vikings-LES CHATTERBOX : uji40(1690)-ghostdog(1650):1/2-1/2
03/09/2019:Coupe Niveau 3 verson(1830)-kasad(1900):0-1
03/09/2019:Défi steflam(1460)-roidechecs(1260):1-0
03/09/2019:Défi( 5J+36H/c 30J Max ) tiounet(1680)-titit1(1230):1-0
03/09/2019:Défi teacup(1670)-tiounet(1700):0-1
03/09/2019:Défi mokanne(1550)-castor(1440):1-0
03/09/2019:Défi( 5J+36H/c 30J Max ) gui004(1129)-pitchoune50(1000):1-0
03/09/2019:Défi beru(1570)-wenoketo(1580):1-0
03/09/2019:Défi hubble(1960)-johan1977(2080):1-0
03/09/2019:Défi francis94(2010)-hubble(1940):0-1
03/09/2019:Défi titit1(1160)-roger72(1510):0-1
03/09/2019:Défi kawa750(1620)-wenoketo(1590):1-0
03/09/2019:Défi kaby771(2100)-wak(1809):0-1
03/09/2019:Le Roi est mort 4 tiounet(1620)-stripchess3(1550):1/2-1/2
03/09/2019:Tournoi n°20037 leredoutable(1680)-vvvv(1780):0-1
03/09/2019:Tournoi n°20074 jlr(1490)-qsdmlk(1640):1-0
03/09/2019:Tournoi n°19917 lebelgicain(1660)-legrillon(1670):0-1
03/09/2019:Tournoi n°20051 pier13(1780)-leredoutable(1690):0-1
03/09/2019:Eq:Vikings-O fou d hello : vtt(1680)-cobraxx10(2490):1-0
03/09/2019:Coupe Niveau 2 harrypotter(1620)-dingue(1480):1-0
03/09/2019:Coupe Niveau 2 tartu(1730)-harrypotter(1690):1-0
03/09/2019:Défi( 5J+36H/c 30J Max ) cathy17(1000)-pascalou50(1810):0-1
03/09/2019:Défi( 5J+36H/c 30J Max ) hberlioz(1580)-perepeinard34(1400):1-0
03/09/2019:Défi( 5J+36H/c 30J Max ) pitchoune50(1020)-pascalou50(1800):0-1
03/09/2019:Défi( 5J+36H/c 30J Max ) turbo(1510)-perepeinard34(1430):1-0
03/09/2019:Défi malvina(1360)-lecevenol(1380):0-1
03/09/2019:Défi( 5J+36H/c 30J Max ) jajaf1959(1790)-nimzoindien(1880):0-1
03/09/2019:Najdorf à foison upsalin(2010)-skalfa(1770):1-0
03/09/2019:Tetraktus 23 upsalin(1990)-tiounet(1650):1-0
03/09/2019:Tournoi n°19820 laurent69001(1460)-jlr(1600):0-1
03/09/2019:Tournoi n°20092 samjf(1290)-jlr(1440):0-1
03/09/2019:Tournoi n°19809 kiki51(1610)-jlr(1610):1-0
03/09/2019:Tournoi n°20128 patetmat(1590)-joel(1550):1-0
03/09/2019:Tournoi n°20089 katastrofic(1470)-jlr(1480):0-1
03/09/2019:Tournoi n°19958 bed2bed(1940)-fredbauduret(1920):0-1
03/09/2019:Tournoi n°20051 intrigue(1720)-pier13(1780):0-1
03/09/2019:Tournoi n°20031 willkommen54(2040)-nicodemouscron(2100):0-1
03/09/2019:Eq:Royal Kids-Fair play : uliczny(1840)-papillon22(1790):1-0
03/09/2019:Défi( 5J+36H/c 30J Max ) kawa750(1600)-matsonic(1730):0-1
03/09/2019:Défi upsalin(1950)-algors(1710):0-1
03/09/2019:Défi( 5J+36H/c 30J Max ) jetjet91330(1970)-katastrofic(1460):1-0
03/09/2019:Tetraktus 23 stripchess3(1650)-upsalin(1990):0-1
03/09/2019:Tournoi n°20037 vvvv(1780)-mick13(1650):1-0
03/09/2019:Tournoi n°20071 papyrolo(1840)-tifointer(1860):1-0
03/09/2019:Tournoi n°20099 danivarl(1680)-desaintfegor(1790):1-0
03/09/2019:Tournoi n°19960 vvvv(1780)-jyf(1860):1-0
03/09/2019:Tournoi n°20111 scarfield(1760)-albescab(1690):0-1
03/09/2019:Eq:Vikings-Pirates du Mat : tombelaine(2250)-sp52(2350):0-1
03/09/2019:Eq:Vikings-Les Corsaires de Lechiquier : tombelaine(2220)-scroff(2700):0-1
03/09/2019:Défi( 5J+36H/c 30J Max ) perepeinard34(1400)-vb83(1430):1-0
03/09/2019:Défi morloch(1910)-jazzzz(2050):1-0
03/09/2019:Défi cioran(2390)-johan1977(2080):1-0
03/09/2019:Défi( 5J+36H/c 30J Max ) tiounet(1670)-patau(1770):0-1
03/09/2019:Défi( 5J+36H/c 30J Max ) roidechecs(1340)-christie(1180):1-0
03/09/2019:Défi( 5J+36H/c 30J Max ) patau(1780)-ragg(1600):1-0
03/09/2019:Défi( 5J+36H/c 30J Max ) perepeinard34(1410)-mimie(1530):0-1
03/09/2019:Défi( 5J+36H/c 30J Max ) janolapin(1830)-asvel69(1810):1-0
03/09/2019:Défi roidechecs(1400)-bouffon(2000):0-1
03/09/2019:Gisèle 42 fly(2010)-upsalin(1990):1-0
03/09/2019:Un miserable boudapeste fly(2030)-upsalin(1990):1-0
03/09/2019:Modernité goedendag(1920)-baudoin(1960):1-0
03/09/2019:Le Roi est mort 7 epervier14(1440)-titit1(1190):1-0
03/09/2019:Le Roi est mort 7 sebastien(1100)-turbo(1520):0-1
03/09/2019:Najdorf à foison karkaskat(2220)-fly(2010):1-0
03/09/2019:Najdorf à foison fly(2010)-karkaskat(2220):0-1
03/09/2019:Najdorf à foison skalfa(1770)-upsalin(2010):0-1
03/09/2019:Najdorf à foison tiounet(1700)-fly(2010):0-1
03/09/2019:Tetraktus 22 fly(2010)-epervier14(1440):1-0
03/09/2019:Tournoi échelle élite ptitefrez(2110)-franroc(2040):0-1
03/09/2019:Tournoi n°19880 petitlulu64(1670)-jlr(1660):1-0
03/09/2019:Tournoi n°19996 panchoa(1650)-jlr(1470):1-0
03/09/2019:Tournoi n°20128 wenoketo(1590)-joel(1550):1/2-1/2
03/09/2019:Tournoi n°20051 pier13(1780)-legrillon(1760):1-0
03/09/2019:Tournoi n°20097 u27940(2000)-nicodemouscron(2100):0-1
03/09/2019:Eq:Les Gens du Sud-Les Seigneurs de l Atlantide : emmanuel69(1780)-vostok(1440):1-0
03/09/2019:Eq:Vikings-Danielsen City : pasctin(1960)-lecavaliernoir(1520):1-0
03/09/2019:Eq:Mission Impossible-O fou d hello : champignac(1720)-apage(2020):0-1
03/09/2019:Eq:les fous de bassans-Royal Kids : manulatus(1890)-trueman(1890):0-1
03/09/2019:Coupe Niveau 4 fly(2010)-senegaulois(1970):0-1
03/09/2019:Défi( 5J+36H/c 30J Max ) cortaz(1840)-tunellavage(1730):0-1
03/09/2019:Défi arno(1790)-koi34(1800):1-0
03/09/2019:Défi( 5J+36H/c 30J Max ) ohnopleyel(1390)-anumisme(1450):1-0
03/09/2019:Défi popetto(1809)-arno(1790):1-0
03/09/2019:Défi( 5J+36H/c 30J Max ) hberlioz(1580)-pascalou50(1810):0-1
03/09/2019:Défi( 5J+36H/c 30J Max ) djayphil(2270)-pascalou50(1810):1/2-1/2
03/09/2019:Défi( 5J+36H/c 30J Max ) hberlioz(1600)-flo71(1980):0-1
03/09/2019:Défi( 5J+36H/c 30J Max ) quentaro(1480)-jpmr(1600):0-1
03/09/2019:Défi( 5J+36H/c 30J Max ) vvvv(1820)-gui004(999):1-0
03/09/2019:Défi wenoketo(1630)-papymiche(1700):1-0
03/09/2019:Défi( 5J+12H/c 10J Max ) joraq(2330)-coups42(2510):0-1
03/09/2019:Défi( 5J+12H/c 10J Max ) coups42(2500)-joraq(2340):1-0
03/09/2019:Le Roi est mort 4 stripchess3(1550)-lecevenol(1290):1/2-1/2
03/09/2019:Boudha peste saruman(1730)-flmnh(1690):1/2-1/2
03/09/2019:Jean Chimelle stripchess3(1600)-ptitefrez(2060):0-1
03/09/2019:PtiteloDeviendraGrandAvec2Fous mathador93(1510)-tartu(1680):0-1
03/09/2019:Un miserable boudapeste fly(2030)-stripchess3(1690):1-0
03/09/2019:Un miserable boudapeste stripchess3(1690)-upsalin(1990):0-1
03/09/2019:A 8 a petitlulu64(1630)-lecevenol(1380):0-1
03/09/2019:Najdorf à foison tiounet(1700)-xey(2020):1-0
03/09/2019:Tetraktus 23 fly(2030)-upsalin(1990):0-1
04/09/2019:Tournoi n°19915 skalfa(1760)-jyf(1830):0-1
04/09/2019:Tournoi n°19956 panchoa(1630)-bobbietje(1540):0-1
04/09/2019:Tournoi n°20034 jlr(1460)-sam94(1510):0-1
04/09/2019:Défi( 5J+36H/c 30J Max ) ramo(1700)-matsonic(1740):1-0
04/09/2019:Défi chomi64(1740)-ephixe(1700):0-1
04/09/2019:Défi( 5J+36H/c 30J Max ) fly(2030)-stripchess3(1680):1-0
04/09/2019:Défi( 5J+36H/c 30J Max ) fly(2020)-stripchess3(1660):1-0
04/09/2019:CMC Niveau 2 zeus87(1930)-zincou75(1990):1-0
04/09/2019:Tournoi n°20108 scarfield(1760)-kawa750(1620):1-0
04/09/2019:Tournoi n°20111 leredoutable(1750)-tiounet(1670):1-0
04/09/2019:Défi fafamanga(2220)-goodwater(2290):1-0
04/09/2019:Défi( 5J+36H/c 30J Max ) sebastien(1040)-titit1(1250):0-1
04/09/2019:Najdorf à foison fly(2010)-tiounet(1700):1-0
04/09/2019:Tournoi n°20084 scarfield(1750)-koi34(1800):1-0
04/09/2019:Tournoi n°20084 cramsnellac(1730)-scarfield(1750):0-1
04/09/2019:Tournoi n°20007 c13e(1750)-vvvv(1770):1-0
04/09/2019:Tournoi n°20132 ghostdog(1680)-verson(1780):0-1
04/09/2019:Tournoi n°20038 jlr(1460)-albescab(1720):0-1
04/09/2019:Tournoi n°20097 blutch70(2220)-burgman(2110):1-0
04/09/2019:Tournoi n°20113 upsalin(2040)-burgman(2100):1/2-1/2
04/09/2019:Tournoi n°20121 verson(1820)-vvvv(1760):1-0
04/09/2019:Défi( 5J+36H/c 30J Max ) patau(1740)-cramsnellac(1730):0-1
04/09/2019:Un miserable boudapeste upsalin(1990)-fly(2030):0-1
04/09/2019:Tournoi n°20020 berniz(2210)-oranmore(2050):1-0
04/09/2019:Tournoi n°20136 verson(1830)-patau(1760):0-1
04/09/2019:Tournoi n°20003 sylvainwb(1710)-wenoketo(1730):0-1
04/09/2019:Tournoi n°20029 tartu(1730)-c13e(1800):0-1
04/09/2019:Tournoi n°20084 cramsnellac(1710)-koi34(1790):1-0
04/09/2019:Tournoi n°20112 nogean(1630)-wenoketo(1580):1-0
04/09/2019:Eq:les modestes-Les diplomates : chrislee76(2440)-yogour(2210):1-0
04/09/2019:Eq:Les Seigneurs de l Atlantide-La Crim Team : capitaine(2130)-vladtepes(2560):0-1
04/09/2019:Eq:O fou d hello-LES CHATTERBOX : yab414(1610)-hberlioz(1610):1-0
04/09/2019:Coupe Niveau 2 panchoa(1650)-tartu(1730):1-0
04/09/2019:Coupe Niveau 3 patau(1780)-tartu(1770):1-0
04/09/2019:Défi( 5J+36H/c 30J Max ) algors(1700)-matsonic(1730):0-1
04/09/2019:Défi marmotte50(2270)-roger72(1530):1-0
04/09/2019:Défi roger72(1520)-kaspy(2000):0-1
04/09/2019:Défi( 5J+36H/c 30J Max ) algors(1730)-patau(1680):1/2-1/2
04/09/2019:Défi( 5J+36H/c 30J Max ) julia(1480)-marcol(1030):1-0
04/09/2019:Défi maximax(1320)-paul2012(1520):1-0
04/09/2019:Défi zozo(1690)-wenoketo(1640):1-0
04/09/2019:Défi( 5J+36H/c 30J Max ) hberlioz(1590)-patau(1780):0-1
04/09/2019:Défi( 5J+36H/c 30J Max ) ghostdog(1650)-patau(1800):1-0
04/09/2019:Défi hubble(1990)-francis94(2000):1-0
04/09/2019:chaud chaud tartu(1680)-mathador93(1520):0-1
04/09/2019:Le Roi est mort 7 sebastien(1100)-lecevenol(1330):0-1
04/09/2019:Tournoi échelle élite burgman(2080)-elghribi(1960):1-0
04/09/2019:Tournoi n°20022 nogean(1630)-wenoketo(1690):1-0
04/09/2019:Tournoi n°20020 kichmat(2010)-berniz(2220):1/2-1/2
04/09/2019:Tournoi n°20081 breitenbach(2310)-capitaine(2140):0-1
04/09/2019:Tournoi n°20111 albescab(1690)-verson(1830):0-1
04/09/2019:Tournoi n°20115 verson(1830)-legros(1780):1-0
04/09/2019:Défi chess54(1520)-kiki38(1530):1-0
04/09/2019:Défi max2007(1370)-kerenor(1700):0-1
04/09/2019:Défi( 5J+36H/c 30J Max ) joelcouturier(1240)-kerenor(1700):0-1
04/09/2019:Défi( 5J+36H/c 30J Max ) ziviol(1450)-perepeinard34(1360):0-1
04/09/2019:Défi kawa750(1600)-hebro(1760):1-0
04/09/2019:Najdorf à foison upsalin(2010)-xey(2020):1-0
04/09/2019:Tournoi n°20063 clemm(1590)-wenoketo(1630):1-0
04/09/2019:Tournoi n°20034 sam94(1510)-zozo(1690):0-1
04/09/2019:Coupe Niveau 3 elghribi(1970)-verson(1780):1-0
04/09/2019:Défi elghribi(1960)-hubble(1960):0-1
04/09/2019:Défi( 5J+36H/c 30J Max ) matlepuma(1300)-anumisme(1420):0-1
04/09/2019:Défi hubble(1910)-zayka(1930):1-0
04/09/2019:Défi nimzoindien(1860)-swallow(2060):0-1
04/09/2019:Défi( 5J+36H/c 30J Max ) nanaluce(1290)-anumisme(1420):0-1
04/09/2019:Défi( 5J+36H/c 30J Max ) champignac(1740)-patau(1780):1-0
04/09/2019:Défi tinenfant(1860)-chomi64(1780):1/2-1/2
04/09/2019:Défi maluel(1610)-speedyfil(1550):1-0
04/09/2019:Défi marcol(1060)-anumisme(1390):0-1
04/09/2019:Défi( 5J+36H/c 30J Max ) gervaise(1000)-anumisme(1390):0-1
04/09/2019:Défi anumisme(1390)-gervaise(1030):1-0
04/09/2019:Défi regor(1980)-wak(1809):0-1
04/09/2019:Défi( 5J+36H/c 30J Max ) nimzoindien(1860)-verson(1830):1-0
04/09/2019:chaud chaud legrillon(1760)-petitlulu64(1610):0-1
04/09/2019:Tournoi échelle champions jajaf1959(1780)-artorg(2110):1-0
04/09/2019:Tournoi n°20007 c13e(1750)-legrillon(1730):0-1
04/09/2019:Tournoi n°19997 intrigue(1680)-mathador93(1520):1-0
04/09/2019:Tournoi n°20128 joel(1550)-blackrider(1700):0-1
04/09/2019:Tournoi n°19993 amgadgong(2440)-oscar(2300):1-0
04/09/2019:Eq:O fou d hello-LES CHATTERBOX : flo71(1970)-jazzzz(2060):1-0
04/09/2019:Défi( 5J+36H/c 30J Max ) pierrejean(1380)-joel(1540):0-1
04/09/2019:Défi pj612(1770)-popetto(1809):0-1
04/09/2019:Défi( 5J+36H/c 30J Max ) hberlioz(1600)-mequinho(1840):0-1
04/09/2019:Défi( 5J+36H/c 30J Max ) perepeinard34(1430)-turbo(1510):0-1
04/09/2019:Défi( 5J+36H/c 30J Max ) turbo(1520)-titit1(1230):0-1
04/09/2019:A8b turbo(1500)-petitlulu64(1650):1-0
04/09/2019:A8b petitlulu64(1650)-lecevenol(1300):1-0
04/09/2019:Tournoi n°20039 paul2012(1500)-jlr(1450):0-1
04/09/2019:Tournoi n°19956 jlr(1440)-sam94(1460):1-0
04/09/2019:Tournoi n°20138 joel(1540)-wenoketo(1590):0-1
04/09/2019:Eq:Pirates du Mat-Mission Impossible : alizarine(2410)-akhaline(2340):1-0
04/09/2019:Eq:Royal Kids-Les Rebelles : regor(2050)-skyfall(1970):0-1
04/09/2019:Eq:Les Seigneurs de l Atlantide-La Crim Team : tjspret(1850)-zincou75(2110):1/2-1/2
04/09/2019:Eq:les modestes-Mission Impossible : adrifou(1800)-breitenbach(2340):0-1
04/09/2019:Coupe Niveau 5 fly(2000)-elghribi(1980):1/2-1/2
04/09/2019:Coupe Niveau 4 verson(1820)-elghribi(1970):1-0
04/09/2019:Défi( 5J+36H/c 30J Max ) perepeinard34(1410)-turbo(1510):1-0
04/09/2019:Défi cocodou(1910)-hubble(1880):0-1
04/09/2019:Défi cocodou(1910)-goedendag(1920):0-1
04/09/2019:Défi( 5J+36H/c 30J Max ) katastrofic(1460)-jetjet91330(1970):1-0
04/09/2019:Défi roidechecs(1400)-fabio985(1860):0-1
04/09/2019:Défi( 5J+36H/c 30J Max ) maximax(1350)-perepeinard34(1400):0-1
04/09/2019:chaud chaud mathador93(1520)-tartu(1680):0-1
04/09/2019:A8b lecevenol(1300)-sebastien(1060):1-0
04/09/2019:Najdorf à foison upsalin(2010)-fly(2010):0-1
04/09/2019:Najdorf à foison tiounet(1700)-skalfa(1770):0-1
04/09/2019:Tetraktus 23 upsalin(1990)-tartu(1770):1-0
04/09/2019:Tournoi n°20106 tifointer(1870)-verson(1870):1-0
04/09/2019:Tournoi n°19926 gilcello(1870)-picasso(1870):0-1
04/09/2019:Tournoi n°20139 verson(1830)-elghribi(1970):1/2-1/2
04/09/2019:Tournoi n°19944 jlr(1440)-magyar(1490):0-1
04/09/2019:Eq:Vikings-Les Corsaires de Lechiquier : scroff(2700)-tombelaine(2220):1-0
04/09/2019:Eq:Les Gens du Sud-Pirates du Mat : blutch70(2210)-dragon(1930):1-0
04/09/2019:Coupe Niveau 4 kasad(1810)-mpatruyo(2170):0-1
04/09/2019:Coupe Niveau 5 elghribi(1980)-blackbishop(1920):1/2-1/2
04/09/2019:Coupe Niveau 5 elghribi(1980)-percy62(2150):0-1
04/09/2019:Coupe Niveau 6 verson(1830)-fly(2030):1/2-1/2
04/09/2019:Défi( 5J+36H/c 30J Max ) hberlioz(1580)-upsalin(1990):1-0
04/09/2019:Défi chomi64(1850)-den(1920):1-0
04/09/2019:Amical( 5J+36H/c 30J Max ) orlane(1350)-april(2130):0-1
04/09/2019:Défi baudoin(1970)-chomi64(1990):0-1
04/09/2019:Défi( 5J+36H/c 30J Max ) holyhour(1830)-samjf(1300):1-0
04/09/2019:Défi ohnopleyel(1390)-malvina(1360):0-1
04/09/2019:Défi thierry06(1680)-orlane(1370):1-0
04/09/2019:Défi nimzoindien(1880)-nathand(2070):0-1
04/09/2019:Tetraktus 23 upsalin(1990)-turbo(1530):1-0
04/09/2019:Tournoi échelle division 3 upsalin(2010)-ovo(1990):1/2-1/2
04/09/2019:Tournoi n°20077 kaiser69(1650)-mandrak(1670):0-1
04/09/2019:Tournoi n°19974 argento(2199)-dodogod(2100):1-0
04/09/2019:Tournoi n°20084 legrillon(1730)-cramsnellac(1730):1-0
04/09/2019:Eq:Pirates du Mat-Les diplomates : daiwen(2290)-yogour(2220):0-1
04/09/2019:Coupe Niveau 5 djayphil(2300)-fly(2020):0-1
04/09/2019:Coupe Niveau 2 patau(1790)-tartu(1730):0-1
04/09/2019:Défi gambitor(1510)-tryphon(1530):1-0
04/09/2019:Défi( 5J+36H/c 30J Max ) upsalin(2030)-vb83(1430):1-0
04/09/2019:Défi( 5J+36H/c 30J Max ) hberlioz(1600)-perepeinard34(1440):1-0
04/09/2019:Défi( 5J+36H/c 30J Max ) hberlioz(1580)-pascalou50(1810):1-0
04/09/2019:Défi joelcouturier(1240)-ys07(1390):0-1
04/09/2019:Défi( 5J+36H/c 30J Max ) hberlioz(1570)-cathy17(1000):1-0
04/09/2019:Défi( 5J+36H/c 30J Max ) hberlioz(1570)-perepeinard34(1400):1-0
04/09/2019:Défi kerenor(1720)-luciens(1270):1-0
04/09/2019:Gambit dame accepté bubblegum(1830)-dpcarballo(2230):0-1
04/09/2019:A8b petitlulu64(1650)-coyotov(1700):1-0
04/09/2019:A8b yab414(1600)-coyotov(1700):1-0
04/09/2019:Tetraktus 23 turbo(1530)-tiounet(1650):0-1
04/09/2019:Tournoi échelle élite zincou75(2120)-ptitefrez(2110):1-0
04/09/2019:Tournoi échelle élite zincou75(2120)-zax(2180):1/2-1/2
05/09/2019:Tournoi n°20094 domenico(1840)-jmarcboury(1940):0-1
05/09/2019:Tournoi n°19831 cioran(2039)-chomi64(1790):1-0
05/09/2019:Défi( 5J+36H/c 30J Max ) jfho1403(1599)-fragol(1720):0-1
05/09/2019:Défi kaspy(2010)-chomi64(1960):0-1
05/09/2019:Défi( 5J+36H/c 30J Max ) duncanlaurence2019(1219)-pitchoune50(1030):1-0
05/09/2019:chaud chaud legrillon(1760)-mathador93(1520):1-0
05/09/2019:Tournoi n°20026 bylka(1810)-chomi64(1870):1-0
05/09/2019:Tournoi n°19882 alain64(2230)-vickort(2300):1/2-1/2
05/09/2019:Eq:les modestes-Mission Impossible : breitenbach(2340)-adrifou(1800):1-0
05/09/2019:Défi kaspi007(2160)-rabah53(2160):1/2-1/2
05/09/2019:Tournoi n°19997 albescab(1650)-cedric77(1510):1-0
05/09/2019:Tournoi n°19948 vvvv(1720)-chomi64(1740):0-1
05/09/2019:Tournoi n°20092 takshil(1499)-glouton(1740):0-1
05/09/2019:Coupe Niveau 6 stanyves(2150)-coups42(2480):0-1
05/09/2019:Défi coups42(2480)-fafamanga(2240):1-0
05/09/2019:Défi chomi64(1960)-rvsinovitch(2060):1-0
05/09/2019:Défi( 5J+12H/c 10J Max ) patau(1780)-nimzoindien(1860):0-1
05/09/2019:Défi chess54(1510)-xao(1560):1-0
05/09/2019:Défi( 5J+36H/c 30J Max ) hberlioz(1590)-panchoa(1650):0-1
05/09/2019:Défi roidechecs(1400)-duncanlaurence2019(1179):0-1
05/09/2019:Tartaruga 5 mollusque(1910)-fly(2040):0-1
05/09/2019:Tournoi n°19847 sergesee(1540)-pilouface(1500):0-1
05/09/2019:Tournoi n°20035 arno(1830)-manulatus(1870):0-1
05/09/2019:Tournoi n°20106 verson(1860)-leredoutable(1710):1-0
05/09/2019:Tournoi n°20091 leredoutable(1710)-percheval(1740):1-0
05/09/2019:Tournoi n°20132 verson(1780)-simer(1720):1/2-1/2
05/09/2019:Tournoi n°20123 coyotov(1700)-albescab(1700):1-0
05/09/2019:Tournoi n°20064 verson(1830)-louis67(1600):1-0
05/09/2019:Tournoi n°20127 seb(1770)-verson(1820):1-0
05/09/2019:Tournoi n°20052 1thibou(1820)-leredoutable(1680):1-0
05/09/2019:Tournoi n°20075 verson(1880)-leredoutable(1680):0-1
05/09/2019:Tournoi n°20111 verson(1830)-leredoutable(1740):1-0
05/09/2019:Tournoi n°20118 patau(1730)-verson(1830):0-1
05/09/2019:Tournoi n°20113 burgman(2100)-verson(1820):1-0
05/09/2019:Tournoi n°20136 simer(1710)-verson(1820):0-1
05/09/2019:Coupe Niveau 2 onetwoyve(1770)-leredoutable(1710):1-0
05/09/2019:Coupe Niveau 3 doudou(1700)-patau(1790):1/2-1/2
05/09/2019:Coupe Niveau 1 jlr(1480)-sebastien(1100):1-0
05/09/2019:Coupe Niveau 3 verson(1830)-patau(1760):0-1
05/09/2019:Défi jpjay(1810)-arno(1810):0-1
05/09/2019:Défi cortaz(1870)-zozo(1630):1-0
05/09/2019:Défi( 30J+12H/c 30J Max ) indya(1810)-kieffer51(2150):0-1
05/09/2019:Défi tiounet(1670)-zozo(1690):0-1
05/09/2019:Défi patau(1790)-claudius94(2260):0-1
05/09/2019:Défi kaspy(2000)-steflam(1410):1-0
05/09/2019:Défi roger72(1530)-marmotte50(2250):0-1
05/09/2019:Défi nathand(2070)-hubble(1940):1-0
05/09/2019:Défi( 5J+36H/c 30J Max ) ghostdog(1680)-mano(1540):1-0
05/09/2019:Défi( 5J+36H/c 30J Max ) patau(1770)-upsalin(2040):1-0
05/09/2019:Défi cortaz(1850)-jpjay(1820):0-1
05/09/2019:Défi( 5J+12H/c 10J Max ) verson(1830)-nimzoindien(1870):1-0
05/09/2019:Le Roi est mort 7 turbo(1520)-epervier14(1440):0-1
05/09/2019:A8b petitlulu64(1650)-tiounet(1660):0-1
05/09/2019:A8b coyotov(1700)-petitlulu64(1650):0-1
05/09/2019:A8b coyotov(1700)-lecevenol(1300):1-0
05/09/2019:Tetraktus 20 c13e(1780)-harrypotter(1610):1-0
05/09/2019:Tournoi n°19716 myka(1800)-francis94(1980):0-1
05/09/2019:Tournoi n°20125 zax(2140)-oranmore(2020):0-1
05/09/2019:Tournoi n°20033 mudra(2240)-argento(2199):0-1
05/09/2019:Tournoi n°20062 breitenbach(2310)-oranmore(2030):1-0
05/09/2019:Tournoi n°20121 tiounet(1670)-vvvv(1750):0-1
05/09/2019:Tournoi n°20125 xey(2010)-zax(2140):0-1
05/09/2019:Eq:Les Corsaires de Lechiquier-les modestes : sherezo(2670)-scroff(2690):1/2-1/2
05/09/2019:Coupe Niveau 4 jmarcboury(1940)-elghribi(1980):0-1
05/09/2019:Défi arno(1790)-youliyouli(1850):1-0
05/09/2019:Défi( 5J+36H/c 30J Max ) anumisme(1440)-ohnopleyel(1370):0-1
05/09/2019:Défi chocotov(1990)-chomi64(1840):1-0
05/09/2019:Défi jazzzz(2090)-bassdark(2020):0-1
05/09/2019:Défi ohnopleyel(1380)-max2007(1370):1-0
05/09/2019:Défi zayka(1950)-degun(1990):1/2-1/2
05/09/2019:Défi pourquoipas(1500)-gambitmiau(1670):1-0
05/09/2019:Défi jimi50(1910)-hubble(1960):0-1
05/09/2019:Défi( 5J+36H/c 30J Max ) goedendag(1960)-bertelsen(1670):1-0
05/09/2019:Eté 2019 n°1 legrillon(1740)-brettsinclair(1740):0-1
05/09/2019:Gambite de Boudapeste legrillon(1710)-leet(1790):1-0
05/09/2019:Tournoi Thématique Française coups42(2520)-retraite53(2430):0-1
05/09/2019:Marion nous stripchess3(1640)-upsalin(2030):0-1
05/09/2019:A8b lecevenol(1300)-tiounet(1660):0-1
05/09/2019:Tournoi échelle division 1 patau(1780)-daniel1(1720):1-0
05/09/2019:Tournoi n°20126 upsalin(1990)-elghribi(1970):1-0
05/09/2019:Tournoi n°20067 kendo2d(1850)-arno(1800):1-0
05/09/2019:Tournoi n°20133 tinenfant(1820)-verson(1790):0-1
05/09/2019:Tournoi n°20091 tiounet(1660)-percheval(1740):1-0
05/09/2019:Tournoi n°20092 takshil(1499)-magyar(1490):0-1
05/09/2019:Défi erod(1310)-bigoudi(1040):0-1
05/09/2019:Défi chomi64(1840)-elghribi(1980):0-1
05/09/2019:Défi katastrofic(1470)-lecevenol(1360):1-0
05/09/2019:Défi( 5J+36H/c 30J Max ) viki(1780)-teacup(1720):1-0
05/09/2019:Défi chomi64(1840)-elghribi(1990):1-0
05/09/2019:Gant bite de Boudapeste stripchess3(1630)-pitouwb(1830):0-1
05/09/2019:Najdorf à foison xey(2020)-upsalin(2010):0-1
05/09/2019:Tournoi n°19776 hinnol(1770)-verson(1830):1-0
05/09/2019:Tournoi n°20112 spizdee(1690)-nogean(1630):1-0
05/09/2019:Tournoi n°20121 vvvv(1740)-coyotov(1690):0-1
05/09/2019:Défi( 5J+36H/c 30J Max ) jfho1403(1599)-anumisme(1410):1-0
05/09/2019:Défi kaby771(2100)-nimzoindien(1860):1-0
05/09/2019:Défi( 5J+36H/c 30J Max ) ryba(1870)-verson(1890):1-0
05/09/2019:Défi( 5J+36H/c 30J Max ) joel(1530)-pierrejean(1380):0-1
05/09/2019:Défi vvvv(1750)-tonton77(1680):1-0
05/09/2019:chaud chaud petitlulu64(1610)-mathador93(1520):1-0
05/09/2019:A8b turbo(1500)-yab414(1600):0-1
05/09/2019:Tournoi n°19903 holyhour(1780)-tartu(1670):0-1
05/09/2019:Tournoi n°20066 vb83(1390)-katastrofic(1430):0-1
05/09/2019:Tournoi n°20126 verson(1820)-glouton(1820):1-0
05/09/2019:Tournoi n°20123 albescab(1700)-tiounet(1660):1-0
05/09/2019:Tournoi n°19999 flip(1589)-olilac(1290):1-0
05/09/2019:Eq:O fou d hello-LES CHATTERBOX : jazzzz(2060)-flo71(1970):0-1
05/09/2019:Défi( 5J+36H/c 30J Max ) gambou(1690)-pj612(1770):1-0
05/09/2019:Défi eanouis(2130)-cioran(2350):0-1
05/09/2019:Défi( 5J+36H/c 30J Max ) perepeinard34(1400)-titine(1400):0-1
05/09/2019:Défi( 5J+36H/c 30J Max ) perepeinard34(1400)-bubbly(1380):1-0
05/09/2019:PtiteloDeviendraGrandAvec2Fous petitlulu64(1640)-stripchess3(1640):1-0
05/09/2019:Gisèle 42 tartu(1710)-stripchess3(1690):0-1
05/09/2019:Modernité xey(1960)-intrigue(1690):1-0
05/09/2019:A8b turbo(1500)-lecevenol(1300):0-1
05/09/2019:Najdorf à foison upsalin(2010)-youliyouli(1840):1-0
05/09/2019:Tetraktus 22 epervier14(1440)-stripchess3(1650):0-1
05/09/2019:Tournoi n°20110 doriphore(1960)-verson(1820):1-0
05/09/2019:Tournoi n°20127 marian77(1799)-tartu(1760):0-1
05/09/2019:Tournoi n°20127 verson(1820)-marian77(1799):1-0
05/09/2019:Tournoi n°20108 gognol(1840)-verson(1830):0-1
05/09/2019:Tournoi n°20138 joel(1540)-francus(1660):0-1
05/09/2019:Eq:les modestes-les fous de bassans : ericb(2300)-chrislee76(2440):0-1
05/09/2019:Coupe Niveau 4 jogador49(1960)-fly(2020):1-0
05/09/2019:Défi gonzok67(1760)-kiki38(1560):1-0
05/09/2019:Défi cortaz(1830)-maximeg(1740):1-0
05/09/2019:Défi( 5J+36H/c 30J Max ) asvel69(1820)-gognol(1850):0-1
05/09/2019:Défi( 5J+36H/c 30J Max ) gaby1811(1130)-anumisme(1430):0-1
05/09/2019:Défi chomi64(1750)-jpjay(1810):1-0
05/09/2019:Défi( 5J+36H/c 30J Max ) orlane(1350)-anumisme(1490):0-1
05/09/2019:Défi( 5J+36H/c 30J Max ) hberlioz(1610)-bertelsen(1670):0-1
05/09/2019:Défi( 5J+36H/c 30J Max ) alain84(1740)-teacup(1730):1-0
05/09/2019:Défi elghribi(1990)-chomi64(1840):1-0
05/09/2019:Défi( 5J+12H/c 10J Max ) nimzoindien(1860)-jajaf1959(1810):1-0
05/09/2019:Défi pierre1(1720)-alain84(1760):0-1
05/09/2019:Défi elghribi(1970)-hubble(1980):1-0
05/09/2019:Défi( 5J+36H/c 30J Max ) upsalin(1990)-hberlioz(1580):1-0
05/09/2019:Défi( 5J+12H/c 10J Max ) nimzoindien(1870)-verson(1830):1/2-1/2
05/09/2019:A8b yab414(1600)-tiounet(1660):1-0
05/09/2019:Najdorf à foison xey(2020)-tiounet(1700):0-1
05/09/2019:Tetraktus 23 tartu(1770)-fly(2030):0-1
05/09/2019:Tournoi échelle division 1 domenico(1860)-jogador49(1970):1/2-1/2
05/09/2019:Tournoi n°19786 arno(1690)-leet(1790):1-0
05/09/2019:Tournoi n°20139 franroc(2060)-elghribi(1970):1-0
05/09/2019:Tournoi n°20092 magyar(1490)-samjf(1290):1-0
05/09/2019:Tournoi n°20131 spizdee(1730)-scarfield(1760):1-0
05/09/2019:Tournoi n°20126 elghribi(1960)-doriphore(1960):0-1
05/09/2019:Tournoi n°20062 nicodemouscron(2120)-kichmat(2000):1-0
05/09/2019:Tournoi n°20123 tiounet(1670)-panchoa(1620):1/2-1/2
05/09/2019:Eq:O fou d hello-cotenstock : hinnol(1780)-yab414(1660):1-0
05/09/2019:Eq:cotenstock-Les Gens du Sud : jimi50(1890)-harrypotter(1640):1-0
05/09/2019:Coupe Niveau 7 george1955(2700)-silveur(1990):1-0
05/09/2019:Coupe Niveau 2 harrypotter(1640)-intrigue(1750):0-1
05/09/2019:Coupe Niveau 7 lool(2740)-vodouz(2260):1-0
05/09/2019:Coupe Niveau 3 verson(1780)-harrypotter(1760):1-0
05/09/2019:Défi( 5J+36H/c 30J Max ) marlu(1600)-rocinante(1500):0-1
05/09/2019:Défi youpla14(999)-ohnopleyel(1380):1/2-1/2
05/09/2019:Défi( 5J+36H/c 30J Max ) jfho1403(1599)-anumisme(1410):1-0
05/09/2019:Défi morloch(1880)-carabas(2130):0-1
05/09/2019:Défi rvsinovitch(2060)-morloch(1940):1-0
05/09/2019:Défi achille85(2040)-hubble(1900):1-0
05/09/2019:Défi jyf(1840)-chomi64(1780):0-1
05/09/2019:Défi elghribi(1980)-chomi64(1860):1-0
05/09/2019:Défi( 5J+36H/c 30J Max ) perepeinard34(1420)-turbo(1510):1/2-1/2
05/09/2019:Défi( 5J+36H/c 30J Max ) anumisme(1370)-samjf(1290):0-1
05/09/2019:Défi elghribi(1970)-cortaz(1850):1-0
05/09/2019:Gambite de Boudapeste flmnh(1700)-leet(1790):1-0
05/09/2019:A8b petitlulu64(1650)-turbo(1500):1-0
05/09/2019:Tetraktus 21 salut(1880)-karkaskat(2230):0-1
05/09/2019:Tetraktus 23 karkaskat(2220)-harrypotter(1740):1-0
05/09/2019:Tetraktus 23 epervier14(1430)-fly(2030):0-1
06/09/2019:Tournoi n°19947 scarfield(1790)-stripchess3(1630):1/2-1/2
06/09/2019:Eq:Pirates du Mat-Les Rebelles : stanyves(2150)-rackam(2080):0-1
06/09/2019:Coupe Niveau 3 kasad(1900)-domenico(1800):1-0
06/09/2019:Défi florencia1260(1640)-sergiodevienne(1750):1-0
06/09/2019:Défi( 5J+36H/c 30J Max ) fly(2020)-stripchess3(1670):1-0
06/09/2019:Défi chobi(1750)-cortaz(1850):1-0
06/09/2019:Défi( 5J+36H/c 30J Max ) upsalin(1980)-patau(1760):1-0
06/09/2019:Os court stripchess3(1630)-skalfa(1740):0-1
06/09/2019:Tournoi n°19716 myka(1800)-chomi64(1970):0-1
06/09/2019:Tournoi n°19919 karadayi(1490)-alien(1130):0-1
06/09/2019:Défi( 5J+12H/c 10J Max ) berniz(2200)-coups42(2520):0-1
06/09/2019:Défi vvvv(1750)-maximeg(1740):1/2-1/2
06/09/2019:Défi( 5J+36H/c 30J Max ) anumisme(1370)-joelcouturier(1260):1-0
06/09/2019:Tetraktus 23 tiounet(1650)-stripchess3(1650):1/2-1/2
06/09/2019:Tournoi n°20099 scarfield(1750)-kawa750(1600):1-0
06/09/2019:Tournoi n°20135 tiounet(1670)-mokanne(1550):0-1
06/09/2019:Défi wenoketo(1590)-chess54(1520):1-0
06/09/2019:Défi achille85(2070)-bertelsen(1700):1-0
06/09/2019:Défi( 5J+36H/c 30J Max ) sebastien(1140)-anumisme(1420):0-1
06/09/2019:Défi neddy(1280)-roidechecs(1400):1-0
06/09/2019:Défi hubble(2010)-nimzoindien(1870):1-0
06/09/2019:Le Roi est mort 6 turbo(1530)-harrypotter(1640):0-1
06/09/2019:A8b lecevenol(1300)-coyotov(1700):0-1
06/09/2019:Najdorf à foison xey(2020)-flmnh(1720):1-0
06/09/2019:Tournoi thématique Anglaise tyakyx(2300)-alizarine(2420):0-1
06/09/2019:Tournoi n°20127 marian77(1799)-seb(1770):0-1
06/09/2019:Eq:Pirates du Mat-Royal Kids : bed2bed(1910)-daiwen(2200):0-1
06/09/2019:Défi zozo(1650)-intrigue(1650):1-0
06/09/2019:Défi tartu(1750)-madal222(1810):0-1
06/09/2019:Défi( 5J+36H/c 30J Max ) jajaf1959(1800)-patau(1730):0-1
06/09/2019:Défi kawa750(1600)-baloo(1450):1-0
06/09/2019:Défi cortaz(1850)-den(1890):0-1
06/09/2019:Défi( 5J+36H/c 30J Max ) regor(1980)-saez64(1799):1-0
06/09/2019:A8b lecevenol(1300)-turbo(1500):0-1
06/09/2019:A8b zozo(1670)-lecevenol(1300):1-0
06/09/2019:A8b coyotov(1700)-zozo(1670):1-0
06/09/2019:Tetraktus 22 turbo(1520)-epervier14(1440):0-1
06/09/2019:Tournoi n°20020 kichmat(2000)-kiki(2170):0-1
06/09/2019:Tournoi n°20097 nicodemouscron(2100)-blutch70(2220):1-0
06/09/2019:Tournoi n°19977 breitenbach(2330)-vickort(2270):1/2-1/2
06/09/2019:Tournoi n°20042 kiki37(1440)-paul2012(1500):1-0
06/09/2019:Tournoi n°20089 sebastien(1150)-jlr(1480):0-1
06/09/2019:Tournoi n°20049 jaimelamer(2090)-verson(1810):1-0
06/09/2019:Tournoi n°20085 myka(1770)-verson(1890):0-1
06/09/2019:Tournoi n°20092 jlr(1420)-takshil(1499):1-0
06/09/2019:Eq:Les Seigneurs de l Atlantide-Vikings : bubblegum(1830)-tumultusgallicus(1380):0-1
06/09/2019:Eq:Danielsen City-les modestes : azerty1(2090)-breitenbach(2320):1-0
06/09/2019:Eq:Pirates du Mat-Les Rebelles : rackam(2080)-stanyves(2150):1-0
06/09/2019:Coupe Niveau 4 xey(2010)-elghribi(1970):1-0
06/09/2019:Coupe Niveau 3 onetwoyve(1780)-elghribi(1960):1-0
06/09/2019:Coupe Niveau 3 tartu(1770)-verson(1820):1-0
06/09/2019:Défi( 5J+36H/c 30J Max ) vb83(1430)-anumisme(1390):1-0
06/09/2019:Défi rocinante(1560)-roidechecs(1370):1-0
06/09/2019:Défi roidechecs(1350)-anumisme(1450):0-1
06/09/2019:Défi doudou(1680)-angerpat(1470):1-0
06/09/2019:Défi( 5J+36H/c 30J Max ) anumisme(1380)-largo(1100):1-0
06/09/2019:Marion nous fly(2000)-intrigue(1650):1-0
06/09/2019:Tetraktus 23 tiounet(1650)-fly(2030):0-1
06/09/2019:Tournoi échelle division 1 doriphore(1980)-domenico(1850):1-0
06/09/2019:Tournoi n°19984 magyar(1480)-glouton(1499):0-1
06/09/2019:Coupe Niveau 3 panchoa(1620)-verson(1790):0-1
06/09/2019:Coupe Niveau 3 gonzok67(1750)-verson(1820):1/2-1/2
06/09/2019:Défi chess54(1500)-linselleschti(1550):1-0
06/09/2019:Défi( 5J+36H/c 30J Max ) verson(1890)-jipepe(1630):1-0
06/09/2019:Défi( 5J+36H/c 30J Max ) perepeinard34(1400)-lecevenol(1310):1-0
06/09/2019:Défi mokanne(1550)-mano(1540):1-0
06/09/2019:Défi fabio985(1860)-lecevenol(1320):1-0
06/09/2019:Tournoi n°20138 wenoketo(1600)-francus(1680):1-0
06/09/2019:Défi( 5J+36H/c 30J Max ) danielski(1500)-anumisme(1490):1-0
06/09/2019:Défi gaspard83(1500)-castor(1430):1-0
06/09/2019:Défi( 5J+36H/c 30J Max ) amanotep(1780)-cortaz(1890):0-1
06/09/2019:Défi( 5J+36H/c 30J Max ) lecevenol(1300)-dave04(1380):0-1
06/09/2019:Défi turbo(1500)-zozo(1670):0-1
06/09/2019:Défi wenoketo(1590)-intrigue(1680):1/2-1/2
06/09/2019:chaud chaud mathador93(1520)-legrillon(1760):0-1
06/09/2019:A8b turbo(1500)-zozo(1670):0-1
06/09/2019:A8b tiounet(1660)-lecevenol(1300):1-0
06/09/2019:Le vieux Roi 23 petitlulu64(1670)-tiounet(1660):1-0
06/09/2019:Le vieux Roi 23 coyotov(1710)-tiounet(1660):1-0
06/09/2019:Tournoi thématique Anglaise alizarine(2420)-tyakyx(2300):1-0
06/09/2019:Tournoi n°20061 percy62(2140)-burgman(2110):1-0
06/09/2019:Tournoi n°20020 kiki(2170)-berniz(2210):1-0
06/09/2019:Tournoi n°20048 legrillon(1760)-intrigue(1730):1-0
06/09/2019:Tournoi n°20038 albescab(1720)-foxie519(1650):0-1
06/09/2019:Tournoi n°20111 scarfield(1750)-verson(1840):1-0
06/09/2019:Tournoi n°20130 arno(1800)-verson(1780):1-0
06/09/2019:Tournoi n°20126 doriphore(1960)-verson(1820):1-0
06/09/2019:Tournoi n°20151 arno(1810)-verson(1830):1-0
06/09/2019:Eq:Vikings-Les Rebelles : skyfall(1990)-moutarde18(2060):1/2-1/2
06/09/2019:Eq:Les Gens du Sud-Les Rebelles : silveur(1990)-aphatsum(2730):0-1
06/09/2019:Coupe Niveau 5 vickort(2270)-verson(1830):1-0
06/09/2019:Défi tartu(1680)-cortaz(1840):1/2-1/2
06/09/2019:Défi anumisme(1420)-lecevenol(1320):1-0
06/09/2019:Défi( 5J+36H/c 30J Max ) titine(1390)-laurent69001(1460):0-1
06/09/2019:Défi bassdark(2010)-burgman(2100):0-1
06/09/2019:Défi arno(1790)-mainecoon(2130):1-0
06/09/2019:Défi arno(1790)-jimi50(1900):1-0
06/09/2019:Défi( 5J+36H/c 30J Max ) vvvv(1730)-gortax(2230):0-1
06/09/2019:Défi( 5J+36H/c 30J Max ) temistocles(1440)-gilmade(1650):1/2-1/2
06/09/2019:Défi( 5J+36H/c 30J Max ) holyhour(1790)-jub(1020):1-0
06/09/2019:Défi thierry06(1700)-doudou(1690):1-0
06/09/2019:Tournoi échelle division 2 gilcello(1810)-uji40(1700):1-0
06/09/2019:Tournoi échelle division 3 sebastien(1060)-takshil(1499):1-0
06/09/2019:Tournoi échelle champions jajaf1959(1810)-verson(1830):0-1
06/09/2019:Tournoi n°20106 intrigue(1630)-tifointer(1870):1-0
06/09/2019:CC Avr19 Asc(2/4) stanyves(2160)-ficherre(2190):0-1
06/09/2019:Tournoi n°19776 jyf(1800)-hinnol(1770):0-1
06/09/2019:Tournoi n°20033 francis95(1990)-argento(2199):0-1
06/09/2019:Eq:Les Gens du Sud-les modestes : thierry7ardeche(2020)-ryba(1870):1-0
06/09/2019:Coupe Niveau 3 panchoa(1650)-jogador49(1970):0-1
06/09/2019:Coupe Niveau 5 djayphil(2270)-elghribi(1960):1/2-1/2
06/09/2019:Coupe Niveau 3 tartu(1770)-coyotov(1720):1-0
06/09/2019:Défi fredoparis(1750)-intrigue(1630):0-1
06/09/2019:Défi temistocles(1440)-luz(1610):0-1
06/09/2019:Défi( 5J+36H/c 30J Max ) patau(1740)-legionnaire(1650):1-0
06/09/2019:Défi claudius94(2270)-xao(1560):1-0
06/09/2019:Défi( 5J+36H/c 30J Max ) anumisme(1420)-sebastien(1070):1-0
06/09/2019:Défi trebuchet(2030)-morloch(1870):1-0
06/09/2019:Défi bibisept(1890)-chomi64(1740):1/2-1/2
06/09/2019:Défi anumisme(1390)-sebastien(1120):1-0
06/09/2019:Défi( 5J+36H/c 30J Max ) sebastien(1060)-anumisme(1360):0-1
06/09/2019:Défi( 5J+36H/c 30J Max ) matlepuma(1340)-holyhour(1780):0-1
06/09/2019:Défi intrigue(1680)-goedendag(1960):1/2-1/2
06/09/2019:Défi goedendag(1960)-nimzoindien(1870):0-1
06/09/2019:Jaune est la révolution 6 jyf(1880)-karkaskat(2230):0-1
06/09/2019:Le Roi est mort 7 sebastien(1100)-epervier14(1440):0-1
06/09/2019:Najdorf à foison karkaskat(2220)-youliyouli(1840):1-0
06/09/2019:Le vieux Roi 23 intrigue(1690)-coyotov(1710):1/2-1/2
06/09/2019:Tournoi n°19741 nawy64(1510)-bibi07(1410):0-1
06/09/2019:Tournoi n°20138 francus(1680)-katastrofic(1490):1-0
06/09/2019:Tournoi n°20077 spizdee(1660)-kaiser69(1650):0-1
06/09/2019:Tournoi n°20070 u27940(1960)-silveur(2010):0-1
06/09/2019:Tournoi n°20055 fredoparis(1740)-legrillon(1750):0-1
06/09/2019:Tournoi n°20017 jpmr(1580)-katastrofic(1470):0-1
06/09/2019:Tournoi n°20012 katastrofic(1470)-bibi07(1470):0-1
06/09/2019:Tournoi n°19996 sam94(1500)-intrigue(1730):1/2-1/2
06/09/2019:Tournoi n°20114 coyotov(1690)-yab414(1610):1-0
06/09/2019:Coupe Niveau 6 senegaulois(1970)-berniz(2220):0-1
06/09/2019:Coupe Niveau 6 guig47(2120)-elghribi(2000):1-0
06/09/2019:Défi( 5J+12H/c 10J Max ) pascalou50(1800)-djayphil(2270):1/2-1/2
06/09/2019:Défi ecjc(1950)-kinkin(1920):1-0
06/09/2019:Défi( 5J+36H/c 30J Max ) duncanlaurence2019(1239)-pascalou50(1820):0-1
06/09/2019:Amical( 5J+36H/c 30J Max ) marieange88(1640)-jeanluc88(2160):0-1
06/09/2019:Défi( 5J+36H/c 30J Max ) holyhour(1840)-samjf(1280):1-0
06/09/2019:Jaune est la révolution 6 salut(1900)-zorglub42(2030):1-0
06/09/2019:Tournoi échelle division 2 stripchess3(1640)-ephixe(1710):0-1
07/09/2019:Tournoi n°20095 c13e(1780)-mage(1910):1-0
07/09/2019:Tournoi n°19775 philou(1940)-superlolo83(1920):0-1
07/09/2019:Tournoi n°19956 zozo(1680)-bobbietje(1540):0-1
07/09/2019:Tournoi n°20121 vvvv(1750)-simer(1740):0-1
07/09/2019:Défi( 5J+36H/c 30J Max ) perepeinard34(1420)-tumultusgallicus(1380):0-1
07/09/2019:Défi( 5J+36H/c 30J Max ) fly(2030)-stripchess3(1700):1-0
07/09/2019:Défi abc47(2110)-bassdark(1990):1-0
07/09/2019:Défi ramo(1700)-alain84(1740):1-0
07/09/2019:Tournoi échelle division 1 daniel1(1720)-zozo(1690):1-0
07/09/2019:Tournoi n°19115 murgu64(1820)-goldorak(2080):0-1
07/09/2019:Tournoi n°19961 jlr(1420)-nawy64(1540):1-0
07/09/2019:Tournoi n°19961 nawy64(1550)-joel(1540):0-1
07/09/2019:Tournoi n°19884 nawy64(1530)-jlr(1650):0-1
07/09/2019:Tournoi n°20084 jyf(1880)-cramsnellac(1710):1-0
07/09/2019:Défi( 5J+36H/c 30J Max ) anumisme(1380)-holyhour(1820):0-1
07/09/2019:Défi rocketman(2070)-rabah53(2160):0-1
07/09/2019:Défi wak(1809)-burgman(2110):1-0
07/09/2019:Défi arno(1810)-cloclo(1810):1-0
07/09/2019:Défi dave04(1380)-dan84(1420):0-1
07/09/2019:Défi ovo(2000)-cortaz(1800):0-1
07/09/2019:Tournoi n°20135 pilouface(1550)-tiounet(1650):1-0
07/09/2019:Tournoi n°20100 ghostdog(1650)-scarfield(1750):1-0
07/09/2019:Tournoi n°20095 mage(1910)-verson(1850):0-1
07/09/2019:Eq:Vikings-Les Seigneurs de l Atlantide : ratzi(2180)-capitaine(2150):1-0
07/09/2019:Coupe Niveau 3 verson(1810)-jogador49(1970):1/2-1/2
07/09/2019:Coupe Niveau 3 jogador49(1950)-verson(1880):1-0
07/09/2019:Défi pierrejean(1390)-katastrofic(1470):0-1
07/09/2019:Défi( 5J+36H/c 30J Max ) anumisme(1490)-marcol(1040):1-0
07/09/2019:Défi( 5J+36H/c 30J Max ) alain34(2150)-tiounet(1680):1-0
07/09/2019:Défi( 5J+36H/c 30J Max ) pierre1(1730)-gambou(1690):0-1
07/09/2019:Défi( 5J+36H/c 30J Max ) missmich(1410)-nanaluce(1310):1-0
07/09/2019:Défi( 5J+36H/c 30J Max ) rocinante(1510)-pierrejean(1420):1-0
07/09/2019:Défi( 5J+36H/c 30J Max ) anumisme(1370)-alien(1300):1-0
07/09/2019:Défi( 5J+36H/c 30J Max ) duncanlaurence2019(1239)-takshil(1499):1-0
07/09/2019:Najdorf à foison ptitefrez(2100)-tiounet(1700):1-0
07/09/2019:Tournoi échelle champions verson(1840)-jogador49(2040):1-0
07/09/2019:Tournoi n°19809 nawy64(1490)-jlr(1610):0-1
07/09/2019:Tournoi n°20104 arno(1790)-tartu(1750):0-1
07/09/2019:Tournoi n°20111 tiounet(1670)-albescab(1690):1-0
07/09/2019:Eq:les modestes-Les Corsaires de Lechiquier : hogar(2960)-z1000(2870):1/2-1/2
07/09/2019:Eq:Pirates du Mat-les modestes : mpatruyo(2200)-sp52(2350):1-0
07/09/2019:Eq:Pirates du Mat-LES CHATTERBOX : orchidee(2280)-jazzzz(2080):1-0
07/09/2019:Eq:LES CHATTERBOX-Les Seigneurs de l Atlantide : jazzzz(2060)-capitaine(2150):0-1
07/09/2019:Coupe Niveau 3 patau(1780)-tartu(1750):1/2-1/2
07/09/2019:Défi arno(1790)-viki(1800):0-1
07/09/2019:Défi chomi64(1970)-rvsinovitch(2070):1-0
07/09/2019:Défi jazzzz(2080)-petitjoueur(2080):0-1
07/09/2019:Défi pivoine78(1000)-mc2108(1170):0-1
07/09/2019:Défi tartu(1680)-berjay(1770):1-0
07/09/2019:Défi pangolin(2130)-jazzzz(2100):1-0
07/09/2019:Défi( 5J+36H/c 30J Max ) turbo(1510)-perepeinard34(1430):1-0
07/09/2019:Défi bonamur(1890)-morloch(1910):0-1
07/09/2019:Défi( 5J+36H/c 30J Max ) mc2108(1160)-variation(1199):1-0
07/09/2019:Défi( 5J+36H/c 30J Max ) bertelsen(1680)-patau(1730):1/2-1/2
07/09/2019:Défi( 5J+36H/c 30J Max ) linselleschti(1590)-patau(1780):1-0
07/09/2019:Défi( 5J+36H/c 30J Max ) ziviol(1450)-adrienne(1100):1-0
07/09/2019:Défi lancov(1890)-tonton77(1680):1-0
07/09/2019:Défi niko(2260)-wak(2189):0-1
07/09/2019:Gambite de Boudapeste tartu(1640)-leet(1790):1-0
07/09/2019:Najdorf à foison tiounet(1700)-youliyouli(1840):0-1
07/09/2019:Tetraktus 23 tartu(1770)-turbo(1530):1-0
07/09/2019:Tournoi n°20007 intrigue(1750)-c13e(1750):0-1
07/09/2019:Tournoi n°20095 manulatus(1910)-verson(1880):1-0
07/09/2019:Défi roxane(1450)-castor(1440):0-1
07/09/2019:Défi pj612(1780)-intrigue(1650):0-1
07/09/2019:Défi orlane(1370)-doudou(1670):0-1
07/09/2019:Défi( 5J+36H/c 30J Max ) swallow(2060)-swallow2(2120):1/2-1/2
07/09/2019:Défi( 5J+36H/c 30J Max ) lecevenol(1310)-anumisme(1360):0-1
07/09/2019:Défi dversix(1520)-geld108(1490):1-0
07/09/2019:Défi pj612(1780)-vvvv(1750):0-1
07/09/2019:Défi( 5J+12H/c 10J Max ) verson(1830)-nimzoindien(1860):1-0
07/09/2019:Le vieux Roi 23 tiounet(1660)-coyotov(1710):1-0
07/09/2019:Le vieux Roi 23 coyotov(1710)-intrigue(1690):0-1
07/09/2019:Shiva la douce tiounet(1640)-intrigue(1690):0-1
07/09/2019:Tetraktus 23 tartu(1770)-tiounet(1650):0-1
07/09/2019:Tournoi échelle division 2 ephixe(1710)-tiounet(1670):1-0
07/09/2019:Tournoi n°19922 wenoketo(1610)-nawy64(1530):1-0
07/09/2019:Tournoi n°20063 panchoa(1660)-jlr(1490):1-0
07/09/2019:Tournoi n°19956 jlr(1430)-panchoa(1630):0-1
07/09/2019:Tournoi n°20139 elghribi(1970)-degun(1970):0-1
07/09/2019:Coupe Niveau 3 dragon(1910)-jogador49(1960):0-1
07/09/2019:Coupe Niveau 4 jogador49(1980)-elghribi(2000):0-1
07/09/2019:Coupe Niveau 3 jogador49(1970)-elghribi(1990):1-0
07/09/2019:Coupe Niveau 5 elghribi(1940)-vickort(2270):0-1
07/09/2019:Défi( 5J+36H/c 30J Max ) turbo(1520)-perepeinard34(1440):1-0
07/09/2019:Défi( 5J+36H/c 30J Max ) perepeinard34(1400)-lecevenol(1300):1-0
07/09/2019:Défi( 5J+36H/c 30J Max ) fragol(1740)-reemyyy(1650):1-0
07/09/2019:Défi manu(2040)-goedendag(1930):1-0
07/09/2019:Défi fabio985(1860)-lecevenol(1310):1-0
07/09/2019:Défi cortaz(1850)-tiounet(1670):0-1
07/09/2019:Défi wak(2349)-artorg(2100):1-0
07/09/2019:Défi( 5J+36H/c 30J Max ) pitchoune50(1010)-sebastien(1000):1-0
07/09/2019:A8b turbo(1500)-sebastien(1060):1-0
07/09/2019:A8b sebastien(1060)-lecevenol(1300):0-1
07/09/2019:Najdorf à foison karkaskat(2220)-tiounet(1700):1-0
07/09/2019:Shiva la douce connecticcut(1820)-tiounet(1640):1-0
07/09/2019:Tetraktus 24 tiounet(1640)-lool(2750):0-1
07/09/2019:Tetraktus 24 tiounet(1640)-doriphore(2000):0-1
07/09/2019:Tournoi n°19961 nawy64(1540)-wenoketo(1670):0-1
07/09/2019:Tournoi n°20029 verson(1860)-c13e(1800):0-1
07/09/2019:Tournoi n°20068 leredoutable(1660)-spizdee(1660):0-1
07/09/2019:Tournoi n°20127 leredoutable(1750)-marian77(1799):1-0
07/09/2019:Tournoi n°20131 legrillon(1720)-arno(1800):0-1
07/09/2019:Tournoi n°20111 leredoutable(1750)-scarfield(1760):0-1
07/09/2019:Eq:les modestes-Pirates du Mat : chrislee76(2440)-volatile(2520):1-0
07/09/2019:Eq:Les Gens du Sud-LechiquierDesHurlus : gortax(2200)-emmanuel(1990):1-0
07/09/2019:Eq:Les Seigneurs de l Atlantide-Danielsen City : azerty1(2110)-capitaine(2150):0-1
07/09/2019:Coupe Niveau 6 breitenbach(2340)-grouik(2370):1-0
07/09/2019:Coupe Niveau 2 zozo(1690)-leredoutable(1700):1-0
07/09/2019:Défi godon1987(1319)-kerenor(1720):0-1
07/09/2019:Défi godon1987(1319)-kerenor(1720):0-1
07/09/2019:Défi payne42(1650)-wenoketo(1630):0-1
07/09/2019:Défi petitlulu64(1660)-linselleschti(1610):1-0
07/09/2019:Défi( 5J+36H/c 30J Max ) variation(1199)-anumisme(1370):0-1
07/09/2019:A8b sebastien(1060)-petitlulu64(1650):0-1
07/09/2019:Tournoi n°20139 verson(1820)-franroc(2060):0-1
07/09/2019:Tournoi n°19912 sebastien(1230)-angelyakke(1460):0-1
07/09/2019:Tournoi n°20063 jlr(1490)-wenoketo(1630):0-1
07/09/2019:Tournoi n°20113 burgman(2100)-bb7553(1910):1-0
07/09/2019:Tournoi n°20082 vickort(2240)-retraite53(2430):1-0
07/09/2019:Tournoi n°20122 joel(1570)-patetmat(1510):1/2-1/2
07/09/2019:Tournoi n°20147 elghribi(1960)-verson(1840):1/2-1/2
07/09/2019:Tournoi n°20108 verson(1840)-legrillon(1720):1/2-1/2
07/09/2019:Eq:Les Rebelles-Royal Kids : skyfall(1960)-tartu(1740):1-0
07/09/2019:Défi( 5J+36H/c 30J Max ) anumisme(1390)-perepeinard34(1400):0-1
07/09/2019:Défi aristote62(2240)-bournivergne(2260):1-0
07/09/2019:Défi( 5J+36H/c 30J Max ) turbo(1540)-perepeinard34(1440):1-0
07/09/2019:Défi katastrofic(1470)-turbo(1510):1-0
07/09/2019:Défi( 5J+36H/c 30J Max ) hberlioz(1620)-perepeinard34(1450):1-0
07/09/2019:Gambite de Boudapeste leet(1790)-tartu(1640):0-1
07/09/2019:Le vieux Roi 23 intrigue(1690)-tiounet(1660):0-1
07/09/2019:Tournoi n°20104 scarfield(1750)-arno(1790):0-1
07/09/2019:Tournoi n°20075 snarf(1630)-simer(1750):0-1
07/09/2019:Tournoi n°20098 epervier14(1440)-katastrofic(1470):0-1
07/09/2019:Tournoi n°20108 legrillon(1720)-kawa750(1620):1-0
07/09/2019:Coupe Niveau 3 elghribi(1950)-tartu(1730):1-0
07/09/2019:Défi( 5J+36H/c 30J Max ) rocinante(1550)-arzbro(1480):1-0
07/09/2019:Défi pahlo111(1690)-pgo(1780):0-1
07/09/2019:Défi( 5J+36H/c 30J Max ) perepeinard34(1390)-lecavaliernoir(1520):1-0
07/09/2019:Défi den(1910)-arno(1790):1-0
07/09/2019:Défi( 5J+36H/c 30J Max ) cathy17(1000)-deric(1050):1-0
07/09/2019:Modernité xey(1960)-connecticcut(1780):1-0
07/09/2019:Najdorf à foison skalfa(1770)-tiounet(1700):1-0
07/09/2019:Shiva la douce tiounet(1640)-connecticcut(1820):1-0
07/09/2019:Tournoi n°20116 cobraxx10(2460)-amgadgong(2470):0-1
07/09/2019:Tournoi n°20136 simer(1720)-scarfield(1750):0-1
07/09/2019:Tournoi n°19849 nawy64(1520)-kaiser69(1600):0-1
07/09/2019:Tournoi n°19997 mathador93(1520)-albescab(1650):1-0
07/09/2019:Tournoi n°20116 vickort(2270)-oscar(2310):1/2-1/2
07/09/2019:Défi( 5J+36H/c 30J Max ) anumisme(1420)-twtw(999):1-0
07/09/2019:Défi riothamus(1720)-pascalou50(1810):0-1
07/09/2019:Défi( 5J+36H/c 30J Max ) anumisme(1390)-marcol(1070):1-0
07/09/2019:Défi serjo(1360)-voyageur14(1360):0-1
07/09/2019:Défi( 5J+36H/c 30J Max ) jajaf1959(1800)-patau(1780):0-1
07/09/2019:Tartaruga 5 karkaskat(2230)-electronlibre(1880):1/2-1/2
07/09/2019:Najdorf à foison skalfa(1770)-flmnh(1720):1-0
07/09/2019:Tetraktus 21 pgo(1790)-salut(1880):1/2-1/2
07/09/2019:Tetraktus 22 karkaskat(2200)-pgo(1800):1-0
07/09/2019:Tetraktus 24 turbo(1480)-tiounet(1640):1-0
08/09/2019:Tournoi n°20116 amgadgong(2470)-vickort(2270):1-0
08/09/2019:Eq:Pirates du Mat-Royal Kids : skalfa(1750)-alizarine(2430):0-1
08/09/2019:Défi beru(1570)-fabio985(1860):1/2-1/2
08/09/2019:Défi( 5J+36H/c 30J Max ) pgo(1790)-gambou(1690):1-0
08/09/2019:Défi lancien57(1600)-doudou(1670):0-1
08/09/2019:Défi olilac(1290)-joelcouturier(1270):0-1
08/09/2019:Défi( 5J+36H/c 30J Max ) duncanlaurence2019(1139)-deric(1050):1-0
08/09/2019:Défi francus(1660)-fragol(1740):0-1
08/09/2019:Tartaruga 5 electronlibre(1880)-karkaskat(2230):0-1
08/09/2019:Modernité connecticcut(1780)-pgo(1770):0-1
08/09/2019:Le Roi est mort 8 stripchess3(1630)-gui004(1129):1-0
08/09/2019:Tournoi thématique Anglaise alizarine(2420)-coups42(2500):0-1
08/09/2019:Tetraktus 22 pgo(1800)-stripchess3(1650):1/2-1/2
08/09/2019:Tournoi n°19798 climax(1569)-mikeharris(1600):1-0
08/09/2019:Tournoi n°20069 verson(1870)-jogador49(1960):0-1
08/09/2019:Tournoi n°20058 jogador49(1970)-verson(1830):1/2-1/2
08/09/2019:Coupe Niveau 4 elghribi(1980)-abc47(2110):1-0
08/09/2019:Défi( 5J+36H/c 30J Max ) gui004(1129)-vvvv(1790):0-1
08/09/2019:Défi( 5J+36H/c 30J Max ) pitchoune50(1020)-pascalou50(1800):0-1
08/09/2019:Tournoi n°20133 gonzok67(1740)-verson(1790):0-1
08/09/2019:Tournoi n°20019 jogador49(1970)-pgo(1790):1/2-1/2
08/09/2019:Eq:Les Gens du Sud-LechiquierDesHurlus : verson(1840)-linselleschti(1580):1-0
08/09/2019:Défi( 5J+36H/c 30J Max ) rocinante(1530)-castor(1440):1-0
08/09/2019:Amical( 5J+36H/c 30J Max ) marieange88(1640)-mick(1950):0-1
08/09/2019:Défi( 5J+36H/c 30J Max ) rocinante(1510)-perepeinard34(1410):0-1
08/09/2019:Défi deric(1050)-sebastien(1050):0-1
08/09/2019:Modernité pgo(1770)-connecticcut(1780):0-1
08/09/2019:Tournoi échelle division 1 pgo(1790)-rons(2610):0-1
08/09/2019:Tournoi échelle champions artorg(2100)-salut(1880):0-1
08/09/2019:Tournoi n°20105 jogador49(1960)-verson(1860):1-0
08/09/2019:Tournoi n°20130 verson(1790)-moris54(1950):0-1
08/09/2019:Tournoi n°19922 nawy64(1530)-jlr(1620):0-1
08/09/2019:Tournoi n°19820 jlr(1610)-nawy64(1500):1-0
08/09/2019:Tournoi n°20119 sebastien(1000)-gui004(1129):0-1
08/09/2019:Coupe Niveau 4 elghribi(1980)-kasad(1900):1-0
08/09/2019:Défi( 5J+36H/c 30J Max ) pitchoune50(1020)-sebastien(1000):1-0
08/09/2019:Défi( 5J+36H/c 30J Max ) sebastien(1000)-pitchoune50(1020):0-1
08/09/2019:Défi( 5J+36H/c 30J Max ) sebastien(1000)-pitchoune50(1010):0-1
08/09/2019:Défi lecevenol(1300)-maluel(1620):0-1
08/09/2019:Défi alain84(1760)-maximeg(1740):0-1
08/09/2019:Défi( 5J+36H/c 30J Max ) moris54(1950)-pascalou50(1800):1-0
08/09/2019:Défi( 5J+36H/c 30J Max ) sebastien(1000)-gui004(1129):0-1
08/09/2019:A 8 a petitlulu64(1630)-zozo(1690):1-0
08/09/2019:A8b lecevenol(1300)-zozo(1670):0-1
08/09/2019:Le Roi est mort 8 tiounet(1640)-lecevenol(1300):1-0
08/09/2019:Marion nous artorg(2110)-intrigue(1650):1/2-1/2
08/09/2019:Tetraktus 21 pgo(1790)-karkaskat(2230):0-1
08/09/2019:Tetraktus 22 epervier14(1440)-karkaskat(2200):0-1
08/09/2019:Tournoi échelle champions jogador49(1970)-tinenfant(1870):1/2-1/2
08/09/2019:Tournoi échelle division 3 jlr(1460)-sebastien(1000):1-0
08/09/2019:Tournoi n°20125 petitjoueur(2060)-zax(2140):0-1
08/09/2019:Tournoi n°20105 doriphore(1960)-erviaf(1850):1-0
08/09/2019:Tournoi n°20042 cicerond(1450)-kiki37(1440):0-1
08/09/2019:Tournoi n°20138 katastrofic(1490)-wenoketo(1600):0-1
08/09/2019:Tournoi n°19946 doriphore(1930)-erviaf(1880):1-0
08/09/2019:Tournoi n°20132 simer(1720)-ghostdog(1680):0-1
08/09/2019:Tournoi n°20122 wenoketo(1590)-panchoa(1620):1-0
08/09/2019:Eq:Vikings-Les Rebelles : moutarde18(2060)-skyfall(1990):0-1
08/09/2019:Coupe Niveau 1 jlr(1420)-cedric77(1510):0-1
08/09/2019:Défi tartu(1690)-temistocles(1440):1-0
08/09/2019:Défi( 5J+36H/c 30J Max ) simer(1760)-c13e(1750):0-1
08/09/2019:Défi arno(1790)-doudou(1680):0-1
08/09/2019:Défi berjay(1790)-nathand(2070):0-1
08/09/2019:Défi speedyfil(1570)-longjohn(1500):0-1
08/09/2019:Défi wenoketo(1580)-kawa750(1620):1-0
08/09/2019:Défi malvina(1380)-takshil(1499):1-0
08/09/2019:Tetraktus 23 tiounet(1650)-karkaskat(2220):0-1
08/09/2019:Tournoi n°20136 scarfield(1750)-verson(1830):1-0
08/09/2019:CC Aut19 Asc(3/4) c13e(1800)-pgo(1790):1-0
08/09/2019:Tournoi n°20123 tiounet(1700)-oliver5(1480):0-1
08/09/2019:Tournoi n°20097 blutch70(2220)-thierry7ardeche(2020):0-1
08/09/2019:Tournoi n°19963 c13e(1760)-leredoutable(1720):1-0
08/09/2019:Tournoi n°20045 legrillon(1770)-leredoutable(1700):1-0
08/09/2019:Tournoi n°20052 simer(1750)-leredoutable(1680):1-0
08/09/2019:Tournoi n°20079 alien(1280)-aigle31000(1230):0-1
08/09/2019:Tournoi n°20115 legros(1780)-onetwoyve(1790):0-1
08/09/2019:Défi jimi50(1900)-intrigue(1680):1-0
08/09/2019:Défi payne42(1610)-temistocles(1440):0-1
08/09/2019:Défi( 5J+36H/c 30J Max ) temistocles(1440)-jpmr(1600):0-1
08/09/2019:Défi( 5J+36H/c 30J Max ) alain34(2170)-kaspi007(2190):1-0
08/09/2019:Défi( 5J+36H/c 30J Max ) gambou(1690)-u27940(1970):0-1
08/09/2019:Défi( 5J+36H/c 30J Max ) anumisme(1360)-youpla14(999):1-0
08/09/2019:Saint-Valentin 2019 n°1 yab414(1630)-trebillig(1650):1-0
08/09/2019:Shiva la douce intrigue(1690)-tiounet(1640):1/2-1/2
08/09/2019:Tournoi échelle division 1 gonzok67(1770)-verson(1840):0-1
08/09/2019:Tournoi n°20003 desaintfegor(1780)-sylvainwb(1710):1-0
08/09/2019:Tournoi n°20092 samjf(1290)-takshil(1499):1-0
08/09/2019:Tournoi n°20154 tartu(1770)-verson(1830):1-0
08/09/2019:Tournoi n°20135 tiounet(1670)-paul2012(1520):1-0
08/09/2019:Tournoi n°20155 doriphore(2000)-elghribi(1940):1-0
08/09/2019:Coupe Niveau 3 verson(1860)-leredoutable(1720):1-0
08/09/2019:Coupe Niveau 7 dragon(1930)-vickort(2260):0-1
08/09/2019:Défi pourquoipas(1510)-marmotte50(2270):0-1
08/09/2019:Défi wenoketo(1630)-payne42(1660):0-1
08/09/2019:Défi tonton77(1680)-lancov(1890):0-1
08/09/2019:Défi morloch(1860)-lancov(1880):1-0
08/09/2019:Défi morloch(1870)-nico(2020):0-1
08/09/2019:Défi( 5J+36H/c 30J Max ) anumisme(1500)-bisontinlavertue(1550):0-1
08/09/2019:Défi olilac(1290)-penelope45(1330):0-1
08/09/2019:Défi( 5J+36H/c 30J Max ) tichaton(1450)-chessgaston(2180):0-1
08/09/2019:Défi hubble(1990)-ecjc(1970):1-0
08/09/2019:Défi arno(1800)-cortaz(1830):0-1
08/09/2019:Défi tonton77(1680)-kaspy(1960):0-1
08/09/2019:Défi bibisept(1920)-intrigue(1730):1-0
08/09/2019:Défi kawa750(1630)-pourquoipas(1480):0-1
08/09/2019:Le vieux Roi 23 tiounet(1660)-intrigue(1690):1-0
08/09/2019:Le Roi est mort 8 turbo(1480)-tiounet(1640):0-1
08/09/2019:Le Roi est mort 6 qsdmlk(1620)-epervier14(1430):1-0
08/09/2019:Tetraktus 23 tartu(1770)-epervier14(1430):1-0
08/09/2019:CC Automne 2018 letyjo(2870)-hogar(2980):1/2-1/2
08/09/2019:Tournoi n°20139 degun(1970)-franroc(2060):0-1
08/09/2019:Tournoi n°20136 domenico(1820)-patau(1760):0-1
08/09/2019:Tournoi n°20140 katastrofic(1490)-kiki37(1490):0-1
08/09/2019:Tournoi n°20066 jlr(1490)-katastrofic(1430):0-1
08/09/2019:Tournoi n°20136 verson(1830)-domenico(1820):0-1
08/09/2019:Tournoi n°20140 julie2000(999)-katastrofic(1510):1-0
08/09/2019:Tournoi n°20155 elghribi(1940)-verson(1840):0-1
08/09/2019:Tournoi n°20054 wenoketo(1630)-jlr(1510):1-0
08/09/2019:Tournoi n°20149 verson(1840)-tartu(1730):1-0
08/09/2019:Eq:Les Gens du Sud-Danielsen City : ryba(1870)-azerty1(2130):0-1
08/09/2019:Eq:Pirates du Mat-Les Gens du Sud : emmanuel(2030)-alizarine(2420):0-1
08/09/2019:Défi ryba(1870)-eloyoy(1990):1-0
08/09/2019:Défi tartu(1690)-temistocles(1440):1-0
08/09/2019:Défi arno(1790)-cortaz(1850):0-1
08/09/2019:Défi baloo(1450)-geld108(1510):0-1
08/09/2019:Amical( 5J+36H/c 30J Max ) penelope45(1330)-gobois(1640):0-1
08/09/2019:Défi jpjay(1830)-arno(1790):1/2-1/2
08/09/2019:Défi( 5J+36H/c 30J Max ) julie2000(999)-mano(1540):0-1
08/09/2019:Défi( 5J+36H/c 30J Max ) julie2000(999)-pitchoune50(1050):1-0
08/09/2019:Défi( 5J+36H/c 30J Max ) swallow(2080)-twtw(1099):1-0
08/09/2019:Défi( 5J+36H/c 30J Max ) dave04(1380)-dan84(1420):0-1
08/09/2019:Défi youpla13(999)-tropa(1340):0-1
08/09/2019:Défi wenoketo(1650)-alain84(1740):1-0
08/09/2019:Défi intrigue(1680)-fisher(1640):1-0
08/09/2019:Défi intrigue(1680)-kawa750(1620):0-1
08/09/2019:Défi( 5J+36H/c 30J Max ) julie2000(999)-augustin(1450):1-0
08/09/2019:Gambit dame accepté dpcarballo(2230)-intrigue(1690):1-0
08/09/2019:Tetraktus 23 epervier14(1430)-tiounet(1650):1-0
08/09/2019:Tournoi n°20137 scarfield(1750)-saez64(1799):1-0
08/09/2019:Tournoi n°20056 c13e(1740)-ghostdog(1640):1-0
08/09/2019:Coupe Niveau 4 tifointer(1880)-pasctin(1960):0-1
08/09/2019:Coupe Niveau 5 patau(1740)-elghribi(1970):0-1
08/09/2019:Coupe Niveau 2 tiounet(1640)-legionnaire(1640):0-1
08/09/2019:Défi gambitor(1480)-turbo(1530):0-1
08/09/2019:Défi trebillig(1730)-luz(1630):0-1
08/09/2019:Défi( 5J+36H/c 30J Max ) perepeinard34(1440)-malvina(1380):1-0
08/09/2019:Défi( 5J+36H/c 30J Max ) julie2000(999)-perepeinard34(1450):0-1
08/09/2019:Défi( 5J+36H/c 30J Max ) roidechecs(1380)-julie2000(999):1-0
08/09/2019:Défi hubble(1860)-swallow(2060):0-1
08/09/2019:Défi( 5J+36H/c 30J Max ) pasq60(1260)-anumisme(1360):0-1
08/09/2019:Défi burgman(2080)-bassdark(2000):0-1
08/09/2019:Défi turbo(1490)-tryphon(1500):1-0
08/09/2019:Défi( 5J+36H/c 30J Max ) paul2012(1480)-julie2000(999):1-0
08/09/2019:Défi claudius94(2190)-tiounet(1640):1-0
08/09/2019:Tournoi n°20041 leredoutable(1700)-albescab(1700):1-0
08/09/2019:Tournoi n°20064 jipepe(1640)-baranowsky(1690):0-1
08/09/2019:Eq:Vikings-LES CHATTERBOX : jazzzz(2030)-moutarde18(2070):1-0
08/09/2019:Coupe Niveau 5 c13e(1780)-tifointer(1860):1-0
08/09/2019:Coupe Niveau 6 elghribi(1960)-alain64(2290):0-1
08/09/2019:Défi temistocles(1440)-jipepe(1660):0-1
08/09/2019:Défi( 5J+36H/c 30J Max ) pascalou50(1800)-eloyoy(1980):0-1
08/09/2019:Défi( 45J+12H/c 45J Max ) woozie(2030)-indya(1880):1-0
08/09/2019:Défi carabas(2120)-hubble(1910):1-0
08/09/2019:Défi sergiodevienne(1750)-thierry06(1700):1-0
08/09/2019:Défi( 5J+36H/c 30J Max ) djayphil(2260)-pascalou50(1800):1-0
08/09/2019:Tartaruga 5 fly(2040)-electronlibre(1880):1-0
08/09/2019:A8b coyotov(1700)-yab414(1600):0-1
08/09/2019:Tetraktus 23 fly(2030)-stripchess3(1650):1-0
09/09/2019:Tournoi n°20074 qsdmlk(1640)-spizdee(1660):0-1
09/09/2019:Défi hubble(2000)-elghribi(1960):1-0
09/09/2019:PtiteloDeviendraGrandAvec2Fous mathador93(1510)-lecevenol(1280):0-1
09/09/2019:chaud chaud mathador93(1520)-pgo(1790):1-0
09/09/2019:chaud chaud mathador93(1520)-petitlulu64(1610):0-1
09/09/2019:CMC Niveau 3 zincou75(1970)-zeus87(1950):0-1
09/09/2019:Tournoi n°20061 burgman(2110)-breitenbach(2300):1/2-1/2
09/09/2019:Défi( 5J+36H/c 30J Max ) ghostdog(1670)-patau(1770):0-1
09/09/2019:Tournoi n°20029 c13e(1800)-desaintfegor(1780):1-0
09/09/2019:Tournoi n°20091 percheval(1740)-verson(1890):0-1
09/09/2019:Défi xao(1560)-fabio985(1880):0-1
09/09/2019:Défi( 5J+36H/c 30J Max ) sebastien(1200)-youpla13(999):1-0
09/09/2019:Défi( 5J+36H/c 30J Max ) manulatus(1890)-patau(1800):1-0
09/09/2019:Tournoi n°19985 artistepeintre(1550)-mokanne(1530):1-0
09/09/2019:Tournoi n°20139 degun(1970)-verson(1820):1/2-1/2
09/09/2019:Tournoi n°19834 miramar(1560)-loal(1530):0-1
09/09/2019:Tournoi n°20152 verson(1830)-pgo(1820):0-1
09/09/2019:Tournoi n°20048 jyf(1890)-fredoparis(1740):1-0
09/09/2019:Tournoi n°20085 ghostdog(1650)-myka(1770):0-1
09/09/2019:Tournoi n°20096 cedric77(1500)-tiounet(1670):0-1
09/09/2019:Eq:Pirates du Mat-Les Corsaires de Lechiquier : eltche(2390)-unsingeenhiver(2800):0-1
09/09/2019:Eq:Mission Impossible-Les Corsaires de Lechiquier : tyakyx(2260)-blitzman(2680):0-1
09/09/2019:Coupe Niveau 2 pgo(1750)-gulliver7761(1720):0-1
09/09/2019:Coupe Niveau 3 verson(1810)-coyotov(1730):1-0
09/09/2019:Défi arno(1790)-jpjay(1820):1-0
09/09/2019:Défi godon1987(1369)-rocinante(1540):0-1
09/09/2019:Défi( 5J+36H/c 30J Max ) rocinante(1510)-deric(1050):1-0
09/09/2019:Défi( 5J+36H/c 30J Max ) patau(1780)-snarf(1630):0-1
09/09/2019:Gisèle 42 vachefolle(2120)-fly(2010):0-1
09/09/2019:A8b zozo(1670)-coyotov(1700):1-0
09/09/2019:Tournoi échelle division 1 verson(1830)-tinenfant(1820):0-1
09/09/2019:Tournoi n°20141 pier13(1760)-ghostdog(1680):1-0
09/09/2019:Tournoi n°20141 ghostdog(1680)-albescab(1720):1-0
09/09/2019:Tournoi n°19847 nawy64(1520)-sergesee(1540):0-1
09/09/2019:CC Aut19 Asc(3/4) pgo(1790)-c13e(1800):0-1
09/09/2019:Tournoi n°20150 ghostdog(1690)-verson(1830):1-0
09/09/2019:Tournoi n°20150 ghostdog(1690)-myka(1770):1-0
09/09/2019:Défi( 5J+36H/c 30J Max ) perepeinard34(1440)-teacup(1680):1-0
09/09/2019:Défi den(1910)-arno(1790):1-0
09/09/2019:Défi titine(1390)-deric(1050):1-0
09/09/2019:Défi( 5J+36H/c 30J Max ) perepeinard34(1430)-turbo(1510):0-1
09/09/2019:Défi( 5J+36H/c 30J Max ) perepeinard34(1400)-titine(1400):1-0
09/09/2019:Défi( 5J+12H/c 10J Max ) nimzoindien(1870)-breitenbach(2300):1/2-1/2
09/09/2019:Défi( 5J+36H/c 30J Max ) perepeinard34(1440)-turbo(1540):0-1
09/09/2019:Défi( 5J+36H/c 30J Max ) perepeinard34(1450)-maximax(1380):1-0
09/09/2019:Défi lecevenol(1320)-nimzoindien(1870):0-1
09/09/2019:Défi malvina(1400)-bigoudi(1030):1-0
09/09/2019:Tetraktus 24 lool(2750)-turbo(1480):1-0
09/09/2019:Tournoi n°19958 moris54(2000)-bed2bed(1940):0-1
09/09/2019:Eq:les modestes-Pirates du Mat : alizarine(2420)-pilinapolgar(2490):1/2-1/2
09/09/2019:Défi( 5J+12H/c 10J Max ) nimzoindien(1870)-verson(1840):0-1
09/09/2019:Tournoi n°19882 vickort(2300)-mudra(2260):1-0
09/09/2019:Tournoi n°20046 sebastien(1180)-orlane(1370):0-1
09/09/2019:Eq:Mission Impossible-Les Corsaires de Lechiquier : blitzman(2680)-tyakyx(2260):1-0
09/09/2019:Eq:O fou d hello-Les Gens du Sud : flo71(1980)-verson(1830):1-0
09/09/2019:Coupe Niveau 4 verson(1830)-senegaulois(1970):1-0
09/09/2019:Défi kerenor(1720)-max2007(1340):1-0
09/09/2019:Défi cortaz(1840)-arno(1790):1-0
09/09/2019:Défi anumisme(1380)-godon1987(1369):1-0
09/09/2019:Défi anumisme(1420)-sebastien(1070):1-0
09/09/2019:Défi berjay(1790)-claudius94(2260):0-1
09/09/2019:Défi( 5J+12H/c 10J Max ) jajaf1959(1810)-nimzoindien(1860):1-0
09/09/2019:Shiva la douce skalfa(1770)-tiounet(1640):1-0
09/09/2019:Tetraktus 24 tiounet(1640)-stripchess3(1630):0-1
09/09/2019:Tournoi échelle division 3 lecevenol(1320)-jlr(1450):0-1
09/09/2019:Tournoi n°20128 wenoketo(1590)-blackrider(1700):1-0
09/09/2019:Tournoi n°20021 lecevenol(1380)-jlr(1460):1-0
09/09/2019:Tournoi n°20050 baranowsky(1690)-desaintfegor(1780):0-1
09/09/2019:Tournoi n°20145 wenoketo(1600)-joel(1530):1-0
09/09/2019:Tournoi n°20083 wenoketo(1640)-jlr(1490):1-0
09/09/2019:Tournoi n°20122 jlr(1430)-panchoa(1630):0-1
09/09/2019:Tournoi n°20039 paul2012(1500)-yyyg(1460):1-0
09/09/2019:Tournoi n°20039 yyyg(1460)-jlr(1450):0-1
09/09/2019:Eq:O fou d hello-Les Gens du Sud : verson(1830)-flo71(1980):1-0
09/09/2019:Défi kaspy(2000)-hubble(1599):0-1
09/09/2019:Défi michel(1300)-kerenor(1700):0-1
09/09/2019:Défi( 5J+36H/c 30J Max ) hberlioz(1600)-jimi50(1890):0-1
09/09/2019:Défi titine(1400)-michel(1280):1-0
09/09/2019:Défi( 5J+12H/c 10J Max ) verson(1820)-nimzoindien(1870):0-1
09/09/2019:Défi fabio985(1890)-payne42(1620):0-1
09/09/2019:Défi tartu(1750)-tunellavage(1660):0-1
09/09/2019:Défi( 5J+36H/c 30J Max ) jogador49(1960)-chomi64(1850):1-0
09/09/2019:Défi titine(1390)-maximax(1340):1-0
09/09/2019:Défi( 5J+36H/c 30J Max ) chess54(1510)-mano(1540):1-0
09/09/2019:Défi tiounet(1660)-mrhodge(2109):1-0
09/09/2019:Défi alain84(1760)-gobois(1650):1-0
09/09/2019:Défi nimzoindien(1870)-flo71(1980):1-0
09/09/2019:Tetraktus 23 turbo(1530)-karkaskat(2220):0-1
09/09/2019:Tetraktus 24 tiounet(1640)-karkaskat(2240):0-1
09/09/2019:Tournoi n°20031 thierry7ardeche(2000)-breitenbach(2300):0-1
09/09/2019:Tournoi n°20019 pgo(1790)-c13e(1800):0-1
09/09/2019:Tournoi n°20025 aramis(1670)-pionfou(1670):0-1
09/09/2019:Tournoi n°20096 cedric77(1500)-coyotov(1690):0-1
09/09/2019:Tournoi n°20151 verson(1830)-desaintfegor(1800):1-0
09/09/2019:Eq:Pirates du Mat-LES CHATTERBOX : jazzzz(2050)-eltche(2440):1-0
09/09/2019:Eq:Royal Kids-Vikings : pascalou50(1710)-uliczny(1820):0-1
09/09/2019:Eq:Pirates du Mat-Les Gens du Sud : sp52(2360)-emmanuel(2020):1-0
09/09/2019:Eq:Les Gens du Sud-les fous de bassans : emmanuel(2010)-ericb(2300):0-1
09/09/2019:Coupe Niveau 5 mudra(2260)-stanyves(2160):1-0
09/09/2019:Coupe Niveau 4 minecraft(2040)-fly(2020):1-0
09/09/2019:Coupe Niveau 2 intrigue(1730)-pionfou(1700):1/2-1/2
09/09/2019:Défi florencia1260(1600)-mayaapof(1580):1-0
09/09/2019:Défi ravanh(2180)-goedendag(1940):1-0
09/09/2019:Défi anumisme(1490)-roidechecs(1270):0-1
09/09/2019:Défi roquefort(1980)-chomi64(1850):0-1
09/09/2019:Défi chomi64(2000)-rvsinovitch(2070):1-0
09/09/2019:Défi( 5J+36H/c 30J Max ) pascalou50(1810)-djayphil(2230):0-1
09/09/2019:Défi jazzzz(2100)-c13e(1759):0-1
09/09/2019:Défi( 5J+36H/c 30J Max ) julie2000(999)-maximax(1380):1-0
09/09/2019:Défi( 5J+36H/c 30J Max ) teacup(1720)-doudou(1670):0-1
09/09/2019:Défi( 5J+36H/c 30J Max ) dan84(1430)-rocinante(1500):1-0
09/09/2019:Défi midas(1660)-florencia1260(1650):1/2-1/2
09/09/2019:Défi( 5J+36H/c 30J Max ) pascalou50(1810)-julie2000(999):1-0
09/09/2019:Défi( 5J+36H/c 30J Max ) sebastien(1000)-pitchoune50(1020):0-1
09/09/2019:Défi max2007(1370)-maximax(1350):0-1
09/09/2019:Défi fabio985(1860)-lecevenol(1290):1-0
09/09/2019:Défi( 5J+36H/c 30J Max ) julie2000(999)-pourquoipas(1480):0-1
09/09/2019:Défi( 5J+36H/c 30J Max ) anumisme(1370)-sebastien(1060):1-0
09/09/2019:Défi( 5J+36H/c 30J Max ) gui004(1129)-deric(1050):1-0
09/09/2019:Défi nimzoindien(1870)-deric(1050):1-0
09/09/2019:Défi( 5J+36H/c 30J Max ) lanmath(999)-samjf(1290):0-1
09/09/2019:Tetraktus 22 epervier14(1440)-titit1(1220):1-0
09/09/2019:Tetraktus 23 stripchess3(1650)-tartu(1770):0-1
09/09/2019:Tournoi échelle division 3 sebastien(1000)-glouton(1920):0-1
09/09/2019:Tournoi n°19927 kasad(1900)-fly(2050):0-1
09/09/2019:Tournoi n°19982 louis76(1800)-jogador49(1980):0-1
09/09/2019:Tournoi n°19642 danivarl(1730)-leet(1770):1-0
09/09/2019:Tournoi n°20092 glouton(1719)-magyar(1480):1-0
09/09/2019:Tournoi n°19978 katastrofic(1470)-bibi07(1470):1-0
09/09/2019:Tournoi n°19947 erviaf(1880)-scarfield(1790):1-0
09/09/2019:Tournoi n°20060 tifointer(1870)-vvvv(1820):0-1
09/09/2019:Tournoi n°20150 patau(1760)-verson(1830):0-1
09/09/2019:Eq:les modestes-Les Corsaires de Lechiquier : apollon(2860)-z1000(2880):1/2-1/2
09/09/2019:Coupe Niveau 1 sebastien(1140)-vb83(1420):0-1
09/09/2019:Défi temistocles(1440)-dversix(1560):0-1
09/09/2019:Défi maluel(1620)-tiounet(1630):0-1
09/09/2019:Défi castor(1420)-tian(1330):1-0
09/09/2019:Défi( 5J+36H/c 30J Max ) chobi(1770)-ycar(1650):1-0
09/09/2019:Défi( 5J+36H/c 30J Max ) alien(1310)-anumisme(1360):0-1
09/09/2019:Défi achille85(2050)-wak(1809):0-1
09/09/2019:Défi( 5J+36H/c 30J Max ) mano(1540)-bubbly(1400):0-1
09/09/2019:Défi deric(1050)-malvina(1380):0-1
09/09/2019:Défi kawa750(1620)-intrigue(1680):0-1
09/09/2019:Défi( 5J+36H/c 30J Max ) matlepuma(1280)-titit1(1260):1-0
09/09/2019:Défi( 5J+12H/c 10J Max ) nimzoindien(1860)-goedendag(1970):0-1
09/09/2019:Marion nous fly(2000)-pgo(1790):1-0
09/09/2019:Tetraktus 23 harrypotter(1740)-turbo(1530):1-0
09/09/2019:Tetraktus 23 turbo(1530)-stripchess3(1650):0-1
09/09/2019:Tournoi n°20103 jmarcboury(1940)-elghribi(1990):1-0
09/09/2019:Tournoi n°20010 moris54(1970)-tifointer(1840):1-0
09/09/2019:Tournoi n°20141 albescab(1730)-simer(1720):1-0
09/09/2019:Tournoi n°20013 elghribi(1980)-jogador49(1960):1/2-1/2
09/09/2019:Tournoi n°20062 aslente(2170)-oranmore(2030):1-0
09/09/2019:Défi rocinante(1540)-buzz84(1430):1-0
09/09/2019:Défi( 5J+36H/c 30J Max ) patau(1780)-vvvv(1750):0-1
09/09/2019:Défi( 5J+36H/c 30J Max ) ghostdog(1680)-teacup(1680):1-0
09/09/2019:Défi( 5J+36H/c 30J Max ) berjay(1790)-tjspret(1850):1-0
09/09/2019:Défi( 5J+36H/c 30J Max ) pascalou50(1810)-moris54(1950):0-1
09/09/2019:Défi regor(1980)-chomi64(1840):1-0
09/09/2019:Défi( 5J+36H/c 30J Max ) pascalou50(1810)-hberlioz(1600):1-0
09/09/2019:Najdorf à foison tiounet(1700)-karkaskat(2220):0-1
09/09/2019:Najdorf à foison ptitefrez(2100)-fly(2010):1-0
10/09/2019:Tournoi n°20126 doriphore(1960)-glouton(1840):1-0
10/09/2019:Coupe Niveau 2 coyotov(1730)-panchoa(1640):1/2-1/2
10/09/2019:Tetraktus 24 stripchess3(1630)-jyf(1850):0-1
10/09/2019:Tournoi échelle champions elghribi(1940)-tifointer(1870):1-0
10/09/2019:Tournoi échelle division 2 ovo(2000)-tiounet(1650):1-0
10/09/2019:Tournoi n°19614 chomi64(1960)-fly(2030):1/2-1/2
10/09/2019:Tournoi n°19986 fly(2030)-chomi64(1820):0-1
10/09/2019:Tournoi n°20136 patau(1760)-scarfield(1750):1/2-1/2
10/09/2019:Tournoi n°19682 chomi64(1960)-fly(1980):1-0
10/09/2019:Tournoi n°20136 scarfield(1750)-domenico(1820):0-1
10/09/2019:Tournoi n°19989 bira47(1820)-verson(1810):0-1
10/09/2019:Coupe Niveau 2 patau(1770)-panchoa(1640):1-0
10/09/2019:Coupe Niveau 3 jmarcboury(1950)-leredoutable(1750):1-0
10/09/2019:Défi( 5J+36H/c 30J Max ) anumisme(1430)-gervaise(1020):1-0
10/09/2019:Défi( 5J+36H/c 30J Max ) anumisme(1380)-deric(1050):1-0
10/09/2019:Défi( 5J+36H/c 30J Max ) anumisme(1380)-deric(1050):1-0
10/09/2019:Défi( 5J+36H/c 30J Max ) anumisme(1380)-deric(1050):1-0
10/09/2019:Défi( 5J+36H/c 30J Max ) anumisme(1380)-deric(1050):1-0
10/09/2019:Défi( 5J+36H/c 30J Max ) anumisme(1380)-deric(1050):1-0
10/09/2019:Défi( 5J+36H/c 30J Max ) anumisme(1380)-deric(1050):1-0
10/09/2019:Tournoi n°19820 cedric77(1460)-laurent69001(1460):1-0
10/09/2019:Tournoi n°19993 amgadgong(2440)-cioran(2330):1-0
10/09/2019:Tournoi n°19847 sergesee(1540)-jlr(1630):1-0
10/09/2019:Tournoi n°20143 bb7553(1900)-albescab(1730):0-1
10/09/2019:Défi roidechecs(1350)-crocro34(1370):1-0
10/09/2019:Défi( 5J+36H/c 30J Max ) burgman(2090)-alain34(2170):1/2-1/2
10/09/2019:Défi( 5J+36H/c 30J Max ) vb83(1420)-pourquoipas(1490):0-1
10/09/2019:Défi( 5J+36H/c 30J Max ) chobi(1750)-matsonic(1750):1-0
10/09/2019:Défi epervier14(1450)-castor(1440):0-1
10/09/2019:Défi jpjay(1830)-arno(1800):0-1
10/09/2019:Gisèle 42 karkaskat(2240)-vachefolle(2120):1-0
10/09/2019:Gisèle 42 vachefolle(2120)-karkaskat(2240):0-1
10/09/2019:Marion nous pgo(1790)-fly(2000):0-1
10/09/2019:Le Roi est mort 8 tiounet(1640)-turbo(1480):1-0
10/09/2019:Tetraktus 22 epervier14(1440)-pgo(1800):1-0
10/09/2019:Tetraktus 23 turbo(1530)-fly(2030):0-1
10/09/2019:Tournoi échelle division 2 barake(1580)-ficherre(2290):0-1
10/09/2019:Tournoi n°20010 tifointer(1840)-c13e(1800):0-1
10/09/2019:Tournoi n°20088 lamagouille(1490)-ragg(1590):0-1
10/09/2019:Tournoi n°20032 warriorette(1890)-hargas(1990):1-0
10/09/2019:Tournoi n°20134 jyf(1860)-vvvv(1760):1-0
10/09/2019:Eq:Les Rebelles-Mission Impossible : hargas(1980)-apage(2020):0-1
10/09/2019:Eq:Les Rebelles-Mission Impossible : apage(2020)-hargas(1980):1-0
10/09/2019:Défi steflam(1490)-malvina(1360):1-0
10/09/2019:Défi( 5J+12H/c 10J Max ) elghribi(1990)-hargas(1990):1-0
10/09/2019:Défi titit1(1270)-malvina(1370):0-1
10/09/2019:Le vieux Roi 23 tiounet(1660)-petitlulu64(1670):0-1
10/09/2019:Le Roi est mort 8 epervier14(1440)-turbo(1480):1-0
10/09/2019:Le Roi est mort 8 lecevenol(1300)-turbo(1480):0-1
10/09/2019:Tournoi échelle division 3 bim(2130)-stripchess3(1630):1-0
10/09/2019:Tournoi n°19949 tinenfant(1850)-c13e(1760):1/2-1/2
10/09/2019:Tournoi n°20117 pierrejean(1410)-katastrofic(1490):1-0
10/09/2019:Tournoi n°20009 thierry7ardeche(2000)-emmanuel(2040):1-0
10/09/2019:Tournoi n°20110 desaintfegor(1820)-pgo(1810):1-0
10/09/2019:Eq:Les Quebecois-Vikings : janolapin(1840)-tombelaine(2230):0-1
10/09/2019:Défi pj612(1750)-tartu(1780):1-0
10/09/2019:Défi speedyfil(1550)-marcrode(1190):1/2-1/2
10/09/2019:Défi fabio985(1850)-castor(1440):1-0
10/09/2019:Marion nous intrigue(1650)-pgo(1790):0-1
10/09/2019:Tournoi n°19773 hinnol(1770)-scarfield(1690):1/2-1/2
10/09/2019:Tournoi n°20027 paul2012(1500)-katastrofic(1460):0-1
10/09/2019:Tournoi n°20022 panchoa(1650)-nogean(1630):0-1
10/09/2019:Tournoi n°20072 paul2012(1520)-harrypotter(1660):1-0
10/09/2019:Tournoi n°20110 jetjet91330(2020)-verson(1840):0-1
10/09/2019:Tournoi n°20138 katastrofic(1480)-joel(1540):1/2-1/2
10/09/2019:Tournoi n°20140 jlr(1450)-katastrofic(1480):1-0
10/09/2019:Eq:les modestes-Vikings : cobraxx10(2480)-pilinapolgar(2520):0-1
10/09/2019:Défi( 5J+36H/c 30J Max ) papymiche(1700)-hberlioz(1600):1-0
10/09/2019:Défi( 5J+36H/c 30J Max ) kawa750(1620)-dave04(1380):1-0
10/09/2019:Défi( 5J+36H/c 30J Max ) connecticcut(1800)-patau(1730):1-0
10/09/2019:Défi( 5J+36H/c 30J Max ) pitchoune50(1010)-duncanlaurence2019(1230):0-1
10/09/2019:Défi( 5J+36H/c 30J Max ) rocinante(1510)-augustin(1450):0-1
10/09/2019:Gisèle 42 alien(1130)-stripchess3(1690):0-1
10/09/2019:A8b tiounet(1660)-yab414(1600):0-1
10/09/2019:Shiva la douce tiounet(1640)-skalfa(1770):0-1
10/09/2019:Tournoi échelle élite nimzoindien(1870)-burgman(2080):0-1
10/09/2019:Tournoi n°20075 verson(1890)-snarf(1630):0-1
10/09/2019:Tournoi n°20153 simer(1730)-verson(1830):0-1
10/09/2019:Eq:O fou d hello-LES CHATTERBOX : sanvic76(2150)-jazzzz(2050):0-1
10/09/2019:Eq:Danielsen City-les modestes : fuji972(2000)-jetjet91330(2040):1-0
10/09/2019:Coupe Niveau 6 berniz(2220)-wak(2420):0-1
10/09/2019:Coupe Niveau 3 tartu(1760)-verson(1830):1-0
10/09/2019:Défi doudou(1680)-wenoketo(1580):1-0
10/09/2019:Défi( 5J+12H/c 10J Max ) nimzoindien(1850)-jajaf1959(1790):0-1
10/09/2019:Défi doudou(1680)-pourquoipas(1490):0-1
10/09/2019:Défi gobois(1650)-tartu(1780):1-0
10/09/2019:Défi jipix(2170)-tiounet(1670):1-0
10/09/2019:Défi deric(1050)-steflam(1530):0-1
10/09/2019:Défi( 5J+36H/c 30J Max ) hberlioz(1580)-perepeinard34(1450):1-0
10/09/2019:Gisèle 42 alien(1130)-karkaskat(2240):0-1
10/09/2019:Gisèle 42 alien(1130)-tartu(1710):0-1
10/09/2019:Le vieux Roi 23 intrigue(1690)-legrillon(1740):0-1
10/09/2019:Shiva la douce intrigue(1690)-connecticcut(1820):0-1
10/09/2019:Tetraktus 23 karkaskat(2220)-tartu(1770):1-0
10/09/2019:Tournoi n°20057 jlr(1500)-katastrofic(1450):0-1
10/09/2019:Tournoi n°20142 paul2012(1480)-samjf(1290):1-0
10/09/2019:Tournoi n°19977 cioran(2190)-milarepa(2360):1-0
10/09/2019:Tournoi n°19999 olilac(1290)-titit1(1160):0-1
10/09/2019:Tournoi n°20112 joel(1540)-pionfou(1700):0-1
10/09/2019:Tournoi n°20163 simer(1720)-verson(1820):1-0
10/09/2019:Défi( 5J+72H/c 100J Max ) xao(1570)-paul2012(1450):0-1
10/09/2019:Défi( 5J+36H/c 30J Max ) samjf(1300)-pionfou(1670):1-0
10/09/2019:Défi( 5J+36H/c 30J Max ) jimi50(1900)-pascalou50(1800):1-0
10/09/2019:Défi takshil(1499)-sebastien(1060):0-1
10/09/2019:Défi goedendag(1960)-popetto(1869):0-1
10/09/2019:Défi beru(1590)-intrigue(1680):1-0
10/09/2019:Tournoi n°19292 pline(2140)-francis95(2060):0-1
10/09/2019:Tournoi n°20094 jmarcboury(1930)-u27940(1990):1-0
10/09/2019:Tournoi n°19814 joel(1470)-angelyakke(1440):0-1
10/09/2019:Tournoi n°20107 tartu(1770)-vvvv(1750):0-1
10/09/2019:Tournoi n°20044 wenoketo(1660)-pionfou(1660):0-1
10/09/2019:Tournoi n°20088 ragg(1590)-tiounet(1660):0-1
10/09/2019:Coupe Niveau 3 c13e(1800)-gulliver7761(1720):1-0
10/09/2019:Coupe Niveau 2 emmanuel69(1790)-harrypotter(1640):1/2-1/2
10/09/2019:Coupe Niveau 2 tiounet(1670)-brettsinclair(1720):1-0
10/09/2019:Coupe Niveau 6 elghribi(1930)-fly(2050):0-1
10/09/2019:Défi fredbauduret(2000)-fly(2030):1-0
10/09/2019:Défi( 5J+36H/c 30J Max ) pascalou50(1810)-eloyoy(1960):0-1
10/09/2019:Défi intrigue(1680)-doudou(1680):0-1
10/09/2019:Défi( 5J+36H/c 30J Max ) julie2000(999)-roidechecs(1380):0-1
10/09/2019:Défi youliyouli(1860)-arno(1820):1-0
10/09/2019:Défi hubble(1960)-regor(1980):1-0
10/09/2019:Défi claudius94(2280)-angelyakke(1450):1-0
10/09/2019:Défi fly(2020)-madal222(1810):1-0
10/09/2019:Gant bite de Boudapeste pitouwb(1830)-fly(2010):0-1
10/09/2019:Jaune est la révolution 6 fly(2040)-jyf(1880):1-0
10/09/2019:Marion nous pgo(1790)-intrigue(1650):1/2-1/2
10/09/2019:Le Roi est mort 7 lecevenol(1330)-sebastien(1100):1-0
10/09/2019:Najdorf à foison youliyouli(1840)-xey(2020):1-0
10/09/2019:Shiva la douce fly(2040)-tiounet(1640):1-0
10/09/2019:Shiva la douce tiounet(1640)-fly(2040):0-1
10/09/2019:Le Roi est mort 8 lecevenol(1300)-tiounet(1640):0-1
10/09/2019:Memorial Lara XLVIII karkaskat(2240)-rons(2600):1-0
10/09/2019:Tetraktus 21 emmanuel(1990)-fly(2010):0-1
10/09/2019:Tetraktus 21 pgo(1790)-rons(2610):0-1
10/09/2019:Tetraktus 22 fly(2010)-karkaskat(2200):0-1
10/09/2019:Tetraktus 23 fly(2030)-harrypotter(1740):1-0
10/09/2019:Tetraktus 24 fly(2040)-tiounet(1640):1-0
10/09/2019:Tournoi échelle division 3 glouton(1910)-julie2000(999):1-0
10/09/2019:Tournoi n°20074 spizdee(1660)-danivarl(1660):1-0
10/09/2019:Tournoi n°20132 c13e(1760)-scarfield(1760):1-0
10/09/2019:Eq:Les Gens du Sud-O fou d hello : yab414(1660)-ryba(1880):0-1
10/09/2019:Eq:Les Gens du Sud-O fou d hello : dragon(1920)-yab414(1630):1-0
10/09/2019:Coupe Niveau 3 emmanuel69(1770)-pgo(1790):1-0
10/09/2019:Coupe Niveau 3 tifointer(1870)-elghribi(1970):0-1
10/09/2019:Coupe Niveau 6 wak(2420)-fly(2040):1-0
10/09/2019:Défi pheno(1730)-florencia1260(1710):1/2-1/2
10/09/2019:Défi fly(2030)-madal222(1810):1-0
10/09/2019:Défi( 5J+36H/c 30J Max ) alain84(1750)-loki51(1740):0-1
10/09/2019:Défi hubble(1980)-francis94(1980):1-0
10/09/2019:Défi eanouis(2130)-hubble(2010):1-0
10/09/2019:Défi( 5J+36H/c 30J Max ) nimzoindien(1870)-nathand(2050):0-1
10/09/2019:Défi( 5J+36H/c 30J Max ) regor(1980)-saez64(1799):1-0
11/09/2019:Tournoi n°19956 bobbietje(1540)-jlr(1440):1-0
11/09/2019:Tournoi n°20058 manulatus(1890)-pgo(1800):0-1
11/09/2019:Tournoi n°20126 glouton(1820)-elghribi(1960):1-0
11/09/2019:Coupe Niveau 6 volatile(2520)-fly(2030):1-0
11/09/2019:Défi hubble(2000)-elghribi(1940):1-0
11/09/2019:Défi hubble(1599)-lancov(1890):1-0
11/09/2019:Défi( 5J+36H/c 30J Max ) cortaz(1860)-vb83(1390):1-0
11/09/2019:Défi rabah53(2120)-kaspi007(2200):0-1
11/09/2019:Tournoi n°19880 thierry22(1650)-c13e(1639):0-1
11/09/2019:Tournoi n°20110 doriphore(1960)-desaintfegor(1820):1-0
11/09/2019:Tournoi n°20050 manu32(1840)-scarfield(1780):0-1
11/09/2019:Tournoi n°20150 myka(1780)-patau(1770):1-0
11/09/2019:Eq:Pirates du Mat-les modestes : thierry7ardeche(2090)-daiwen(2310):0-1
11/09/2019:Eq:Pirates du Mat-LES CHATTERBOX : jazzzz(2080)-orchidee(2280):0-1
11/09/2019:Coupe Niveau 2 brettsinclair(1730)-patau(1740):1-0
11/09/2019:Défi( 5J+36H/c 30J Max ) saez64(1589)-regor(1980):0-1
11/09/2019:Défi chocotov(1950)-moulric(1930):1-0
11/09/2019:Défi( 30J+12H/c 30J Max ) indya(1830)-bonamur(1890):0-1
11/09/2019:Défi vvvv(1750)-trueman(1890):0-1
11/09/2019:Défi jpjay(1820)-cortaz(1850):1/2-1/2
11/09/2019:Défi( 5J+12H/c 10J Max ) nimzoindien(1850)-verson(1830):1/2-1/2
11/09/2019:PtiteloDeviendraGrandAvec2Fous stripchess3(1640)-brettsinclair(1640):1/2-1/2
11/09/2019:Gisèle 42 fly(2010)-alien(1130):1-0
11/09/2019:Gisèle 42 alien(1130)-fly(2010):0-1
11/09/2019:Marion nous danivarl(1680)-artorg(2110):1-0
11/09/2019:Najdorf à foison flmnh(1720)-skalfa(1770):0-1
11/09/2019:Najdorf à foison ptitefrez(2100)-flmnh(1720):1-0
11/09/2019:Le vieux Roi 23 yyyg(1460)-tiounet(1660):0-1
11/09/2019:Le vieux Roi 23 yyyg(1460)-coyotov(1710):0-1
11/09/2019:Le vieux Roi 23 coyotov(1710)-yyyg(1460):1-0
11/09/2019:Modernité baudoin(1960)-goedendag(1920):0-1
11/09/2019:Tournoi échelle champions salut(1890)-jogador49(1950):0-1
11/09/2019:Tournoi n°20105 erviaf(1850)-jogador49(1960):0-1
11/09/2019:Tournoi n°19774 calisege2008(1460)-zozo(1710):1-0
11/09/2019:Tournoi n°20131 spizdee(1730)-legrillon(1720):1-0
11/09/2019:Tournoi n°19919 scipio(1449)-jlr(1430):0-1
11/09/2019:Tournoi n°20122 jlr(1430)-wenoketo(1590):0-1
11/09/2019:Tournoi n°20050 manu32(1840)-baranowsky(1690):0-1
11/09/2019:Coupe Niveau 3 domenico(1810)-panchoa(1650):1-0
11/09/2019:Défi zozo(1620)-wenoketo(1600):1-0
11/09/2019:Défi elghribi(1970)-zayka(1950):1/2-1/2
11/09/2019:Défi( 5J+36H/c 30J Max ) fly(2030)-vachefolle(1970):1-0
11/09/2019:Défi( 5J+36H/c 30J Max ) turbo(1530)-perepeinard34(1450):0-1
11/09/2019:Défi nimzoindien(1860)-trebuchet(2060):0-1
11/09/2019:Défi( 5J+36H/c 30J Max ) perepeinard34(1430)-turbo(1480):0-1
11/09/2019:Marion nous intrigue(1650)-alien(1290):1-0
11/09/2019:Le vieux Roi 23 tiounet(1660)-yyyg(1460):1-0
11/09/2019:Le vieux Roi 23 yyyg(1460)-intrigue(1690):0-1
11/09/2019:Le vieux Roi 23 yyyg(1460)-legrillon(1740):0-1
11/09/2019:Le vieux Roi 23 yyyg(1460)-stripchess3(1640):0-1
11/09/2019:Tournoi n°19966 emmanuel(2020)-chessgaston(2160):0-1
11/09/2019:Tournoi n°20068 spizdee(1660)-zukchess(1720):1-0
11/09/2019:Tournoi n°20124 jlr(1430)-zozo(1650):1-0
11/09/2019:Défi cloclo(1840)-tartu(1730):1-0
11/09/2019:Défi( 5J+36H/c 30J Max ) patau(1770)-bertelsen(1680):1-0
11/09/2019:Le vieux Roi 23 intrigue(1690)-yyyg(1460):1-0
11/09/2019:SBT4 zozo(1640)-tartu(1750):1-0
11/09/2019:Tournoi échelle division 2 tiounet(1620)-bim(2130):0-1
11/09/2019:Tournoi n°20129 nicodemouscron(2090)-jetjet91330(2050):1-0
11/09/2019:Tournoi n°20132 ghostdog(1690)-c13e(1760):0-1
11/09/2019:Tournoi n°20030 verson(1880)-danivarl(1670):1/2-1/2
11/09/2019:Tournoi n°20127 seb(1770)-tartu(1760):0-1
11/09/2019:Tournoi n°20150 patau(1770)-ghostdog(1690):1-0
11/09/2019:Eq:cotenstock-Pirates du Mat : daiwen(2170)-eloyoy(1990):1/2-1/2
11/09/2019:Eq:O fou d hello-Fair play : gulliver(2160)-vtt(1690):1-0
11/09/2019:Coupe Niveau 2 harrypotter(1640)-patau(1780):1-0
11/09/2019:Coupe Niveau 2 patau(1790)-harrypotter(1640):0-1
11/09/2019:Défi goedendag(1940)-oswaldo(1970):1/2-1/2
11/09/2019:Défi kawa750(1620)-wenoketo(1580):0-1
11/09/2019:Défi( 5J+36H/c 30J Max ) anumisme(1460)-chrispga(1420):1-0
11/09/2019:Défi( 5J+12H/c 10J Max ) lens37(2460)-coups42(2510):0-1
11/09/2019:Défi marcol(1070)-anumisme(1400):0-1
11/09/2019:Défi( 5J+36H/c 30J Max ) cortaz(1850)-chevaldetroie(2220):1-0
11/09/2019:Défi zozo(1680)-vvvv(1750):0-1
11/09/2019:Défi( 5J+36H/c 30J Max ) deric(1050)-anumisme(1380):0-1
11/09/2019:Défi( 5J+36H/c 30J Max ) deric(1050)-anumisme(1380):0-1
11/09/2019:Défi( 5J+36H/c 30J Max ) deric(1050)-anumisme(1380):0-1
11/09/2019:Défi( 5J+36H/c 30J Max ) deric(1050)-anumisme(1380):0-1
11/09/2019:Défi zozo(1670)-gobois(1650):1-0
11/09/2019:Défi tonton77(1680)-linselleschti(1630):0-1
11/09/2019:Défi( 5J+36H/c 30J Max ) zozo(1620)-tiounet(1660):1-0
11/09/2019:Défi deric(1050)-erod(1240):0-1
11/09/2019:Défi( 5J+36H/c 30J Max ) samjf(1280)-anumisme(1390):1-0
11/09/2019:chaud chaud harrypotter(1620)-petitlulu64(1610):1-0
11/09/2019:Tournoi Thématique Française retraite53(2430)-aslente(2170):1/2-1/2
11/09/2019:Tournoi Thématique Française aslente(2170)-retraite53(2430):1/2-1/2
11/09/2019:SBT4 tiounet(1640)-zozo(1640):1-0
11/09/2019:Tetraktus 23 tiounet(1650)-harrypotter(1740):1/2-1/2
11/09/2019:Tetraktus 24 doriphore(2000)-turbo(1480):1-0
11/09/2019:Tournoi n°20158 pgo(1790)-desaintfegor(1800):0-1
11/09/2019:Tournoi n°20135 mandrak(1670)-tiounet(1670):1-0
11/09/2019:Tournoi n°20130 xercott(1790)-arno(1800):0-1
11/09/2019:Tournoi n°20061 breitenbach(2300)-percy62(2140):1-0
11/09/2019:Tournoi n°20081 argento(2230)-burgman(2100):1-0
11/09/2019:Tournoi n°20039 alien(1320)-yyyg(1460):0-1
11/09/2019:Tournoi n°20158 verson(1840)-pgo(1800):1/2-1/2
11/09/2019:Tournoi n°20153 vvvv(1750)-verson(1840):0-1
11/09/2019:Eq:Pirates du Mat-Vikings : volatile(2510)-cobraxx10(2410):0-1
11/09/2019:Coupe Niveau 5 bigbobo(2270)-pgo(1810):1-0
11/09/2019:Défi julia(1490)-perepeinard34(1440):0-1
11/09/2019:Défi mayaapof(1580)-wenoketo(1610):0-1
11/09/2019:Défi youliyouli(1830)-vvvv(1750):0-1
11/09/2019:Défi( 5J+36H/c 30J Max ) perepeinard34(1450)-hberlioz(1610):0-1
11/09/2019:Défi largo(1100)-deric(1050):1-0
11/09/2019:Défi( 5J+12H/c 10J Max ) verson(1840)-nimzoindien(1850):1-0
11/09/2019:A 8 a sebastien(1150)-alien(1150):0-1
11/09/2019:Marion nous danivarl(1680)-alien(1290):1-0
11/09/2019:Le vieux Roi 23 petitlulu64(1670)-yyyg(1460):1-0
11/09/2019:Le vieux Roi 23 yyyg(1460)-petitlulu64(1670):0-1
11/09/2019:Tournoi échelle division 3 mrhodge(1699)-alien(1150):1-0
11/09/2019:Tournoi n°20158 desaintfegor(1800)-verson(1850):0-1
11/09/2019:Tournoi n°20101 pionfou(1690)-francus(1690):1-0
11/09/2019:Tournoi n°20056 c13e(1740)-verson(1830):1-0
11/09/2019:Tournoi n°20066 alien(1150)-jlr(1490):0-1
11/09/2019:Tournoi n°19776 danivarl(1740)-jyf(1800):0-1
11/09/2019:Tournoi n°20057 anumisme(1410)-alien(1150):0-1
11/09/2019:Tournoi n°19973 pionfou(1680)-mandrak(1680):1-0
11/09/2019:Tournoi n°20015 artistepeintre(1550)-pionfou(1700):1-0
11/09/2019:Tournoi n°20025 pionfou(1680)-albescab(1690):0-1
11/09/2019:Tournoi n°20050 verson(1800)-manu32(1840):1-0
11/09/2019:Tournoi n°20089 alien(1280)-katastrofic(1460):1-0
11/09/2019:Tournoi n°20112 pionfou(1700)-spizdee(1690):0-1
11/09/2019:Tournoi n°20122 joel(1550)-jlr(1430):0-1
11/09/2019:Tournoi n°20149 albescab(1730)-verson(1830):0-1
11/09/2019:Tournoi n°20155 elghribi(1940)-glouton(1910):1-0
11/09/2019:Eq:Les Rebelles-Les Seigneurs de l Atlantide : burgman(2080)-plaisance(2050):1-0
11/09/2019:Eq:Les Gens du Sud-Danielsen City : verson(1820)-azerty1(2130):0-1
11/09/2019:Eq:Les Gens du Sud-Danielsen City : azerty1(2130)-verson(1820):1-0
11/09/2019:Coupe Niveau 2 pionfou(1670)-harrypotter(1630):1/2-1/2
11/09/2019:Coupe Niveau 5 elghribi(1940)-verson(1830):1-0
11/09/2019:Défi bournivergne(2260)-bekheira(2060):1-0
11/09/2019:Défi intrigue(1680)-jipepe(1640):1-0
11/09/2019:Défi( 5J+36H/c 30J Max ) turbo(1510)-perepeinard34(1460):1-0
11/09/2019:Défi( 5J+36H/c 30J Max ) hberlioz(1610)-pgo(1830):0-1
11/09/2019:Défi maluel(1620)-turbo(1480):1-0
11/09/2019:Défi( 5J+12H/c 10J Max ) coups42(2520)-aslente(2190):1/2-1/2
11/09/2019:Défi( 5J+36H/c 30J Max ) asvel69(1820)-papyrolo(1860):0-1
11/09/2019:Défi( 5J+36H/c 30J Max ) papillon22(1800)-hberlioz(1580):1-0
11/09/2019:Défi 6nations(1740)-pj612(1770):0-1
11/09/2019:Le vieux Roi 23 yyyg(1460)-brettsinclair(1710):0-1
11/09/2019:Le vieux Roi 23 brettsinclair(1710)-yyyg(1460):1-0
11/09/2019:Tournoi échelle division 3 danivarl(1700)-sebastien(1000):1-0
11/09/2019:Tournoi échelle élite nimzoindien(1860)-volatile(2520):0-1
11/09/2019:Tournoi échelle élite fly(2020)-elghribi(1940):1-0
11/09/2019:Tournoi n°20162 pgo(1790)-elghribi(1930):0-1
11/09/2019:Tournoi n°19992 verson(1800)-c13e(1810):1-0
11/09/2019:Tournoi n°20038 raymar(1570)-albescab(1720):1-0
11/09/2019:Eq:Pirates du Mat-Vikings : cobraxx10(2410)-volatile(2510):1-0
11/09/2019:Coupe Niveau 6 stanyves(2150)-vodouz(2190):0-1
11/09/2019:Coupe Niveau 4 emmanuel(2040)-leredoutable(1680):0-1
11/09/2019:Coupe Niveau 2 panchoa(1620)-c13e(1750):1-0
11/09/2019:Coupe Niveau 6 fly(2010)-zax(2140):0-1
11/09/2019:Défi tiounet(1630)-wenoketo(1660):1-0
11/09/2019:Défi kerenor(1720)-max2007(1340):1-0
11/09/2019:Défi( 5J+36H/c 30J Max ) max2007(1370)-anumisme(1420):0-1
11/09/2019:Défi arno(1790)-cortaz(1840):1-0
11/09/2019:Défi( 5J+36H/c 30J Max ) chobi(1730)-fragol(1740):1-0
11/09/2019:Défi eclectic(1760)-roquefort(1970):0-1
11/09/2019:Marion nous intrigue(1650)-fly(2000):0-1
11/09/2019:Le Roi est mort 7 epervier14(1440)-tiounet(1680):0-1
11/09/2019:Shiva la douce intrigue(1690)-fly(2040):0-1
11/09/2019:Shiva la douce fly(2040)-epervier14(1440):1-0
11/09/2019:Shiva la douce connecticcut(1820)-fly(2040):1-0
11/09/2019:Shiva la douce connecticcut(1820)-intrigue(1690):1-0
11/09/2019:Le Roi est mort 8 tiounet(1640)-epervier14(1440):0-1
11/09/2019:Tournoi n°20139 franroc(2060)-silveur(1990):1-0
11/09/2019:Tournoi n°20100 bidoche(1640)-simer(1740):0-1
11/09/2019:Tournoi n°20136 patau(1760)-simer(1720):0-1
11/09/2019:Tournoi n°20132 scarfield(1760)-ghostdog(1690):1-0
11/09/2019:Tournoi n°20142 samjf(1290)-magyar(1520):0-1
11/09/2019:Tournoi n°20084 legrillon(1730)-jyf(1870):1-0
11/09/2019:Tournoi n°20125 oranmore(2020)-xey(2010):1-0
11/09/2019:Tournoi n°19992 c13e(1800)-doriphore(1960):0-1
11/09/2019:Tournoi n°19993 oscar(2310)-cioran(2330):1-0
11/09/2019:Tournoi n°20036 picasso(1900)-scarfield(1780):1-0
11/09/2019:Tournoi n°19912 angelyakke(1460)-paul2012(1450):0-1
11/09/2019:Tournoi n°20034 jlr(1500)-florencia1260(1650):0-1
11/09/2019:Tournoi n°20034 snarf(1630)-florencia1260(1650):0-1
11/09/2019:Tournoi n°20085 ghostdog(1640)-leredoutable(1690):1-0
11/09/2019:Tournoi n°20156 qsdmlk(1640)-katastrofic(1520):1-0
11/09/2019:Eq:LES CHATTERBOX-les modestes : jazzzz(2070)-chrislee76(2450):0-1
11/09/2019:Coupe Niveau 3 leredoutable(1700)-doriphore(1950):0-1
11/09/2019:Amical( 5J+36H/c 30J Max ) tichaton(1450)-mainecoon(2200):0-1
11/09/2019:Défi pourquoipas(1490)-maxzur(1660):1-0
11/09/2019:Défi( 5J+36H/c 30J Max ) anumisme(1430)-tian(1350):0-1
11/09/2019:Défi( 5J+36H/c 30J Max ) ziviol(1450)-fragol(1740):1-0
11/09/2019:Défi hubble(1910)-carabas(2120):1-0
11/09/2019:Défi( 5J+36H/c 30J Max ) scarfield(1770)-reemyyy(1670):0-1
11/09/2019:Défi cioran(2190)-jazzzz(2030):1-0
11/09/2019:Défi manu(2000)-hubble(1890):0-1
11/09/2019:Défi duncanlaurence2019(1179)-bigoudi(1000):0-1
11/09/2019:Défi( 5J+36H/c 30J Max ) hberlioz(1580)-patau(1780):0-1
11/09/2019:chaud chaud petitlulu64(1610)-legrillon(1760):1-0
11/09/2019:Le vieux Roi 23 legrillon(1740)-yyyg(1460):1-0
11/09/2019:Tetraktus 23 fly(2030)-karkaskat(2220):0-1
12/09/2019:Tournoi n°20082 alain64(2270)-amgadgong(2450):0-1
12/09/2019:Tournoi n°20123 panchoa(1620)-albescab(1700):0-1
12/09/2019:Tournoi n°20123 albescab(1700)-oliver5(1480):1-0
12/09/2019:Défi( 5J+36H/c 30J Max ) anibalou(1520)-gognol(1870):0-1
12/09/2019:Défi sergesee(1580)-marmotte50(2260):0-1
12/09/2019:Défi reemyyy(1650)-orlane(1350):1-0
12/09/2019:Le vieux Roi 23 stripchess3(1640)-yyyg(1460):1-0
12/09/2019:Tournoi échelle division 3 ovo(2000)-stripchess3(1640):1-0
12/09/2019:Tournoi n°19776 hinnol(1770)-danivarl(1740):1-0
12/09/2019:Tournoi n°20096 pilouface(1550)-glouton(1740):0-1
12/09/2019:Tournoi n°20155 verson(1820)-doriphore(2000):1/2-1/2
12/09/2019:Coupe Niveau 5 elghribi(1930)-dragon(1930):0-1
12/09/2019:Défi wenoketo(1710)-danivarl(1670):1-0
12/09/2019:Défi kaspy(2000)-eclectic(1710):0-1
12/09/2019:Défi amanotep(1790)-retinolls(1960):1-0
12/09/2019:Défi asvel69(1780)-ovo(2000):0-1
12/09/2019:Défi asvel69(1780)-glouton(1910):0-1
12/09/2019:Marion nous fly(2000)-danivarl(1680):1-0
12/09/2019:Tournoi n°19928 sebastien(1230)-dingue(1410):0-1
12/09/2019:Tournoi n°20155 ovo(2000)-doriphore(2000):0-1
12/09/2019:Tournoi n°20155 verson(1820)-ovo(2000):1-0
12/09/2019:Tournoi n°20115 legros(1780)-glouton(1740):0-1
12/09/2019:Tournoi n°20118 scarfield(1760)-patau(1730):1-0
12/09/2019:Tournoi n°20151 verson(1830)-jogador49(2030):1-0
12/09/2019:Coupe Niveau 4 verson(1830)-jogador49(1970):0-1
12/09/2019:Coupe Niveau 3 pasctin(1960)-patau(1770):1-0
12/09/2019:Défi nimzoindien(1850)-fredbauduret(2010):1-0
12/09/2019:Marion nous pgo(1790)-artorg(2110):1-0
12/09/2019:Marion nous danivarl(1680)-tiounet(1680):1-0
12/09/2019:Le vieux Roi 23 legrillon(1740)-tiounet(1660):1-0
12/09/2019:Tetraktus 22 pgo(1800)-fly(2010):0-1
12/09/2019:Tetraktus 24 lool(2750)-doriphore(2000):1-0
12/09/2019:Tournoi échelle division 1 pgo(1790)-gonzok67(1760):1-0
12/09/2019:Tournoi n°19989 1thibou(1830)-bira47(1820):1-0
12/09/2019:Tournoi n°20150 verson(1830)-myka(1780):1-0
12/09/2019:Tournoi n°20168 verson(1840)-tiounet(1640):1/2-1/2
12/09/2019:Eq:Pirates du Mat-Les Corsaires de Lechiquier : unsingeenhiver(2800)-eltche(2390):1-0
12/09/2019:Coupe Niveau 6 bournivergne(2270)-senegaulois(1940):1-0
12/09/2019:Défi ketchuplover(1499)-herakles(2050):1/2-1/2
12/09/2019:Défi madal222(1810)-mrhodge(1839):1-0
12/09/2019:Défi( 5J+36H/c 30J Max ) roidechecs(1370)-seb(1770):0-1
12/09/2019:Défi( 5J+36H/c 30J Max ) anumisme(1390)-turonne(1199):0-1
12/09/2019:Défi cortaz(1850)-arno(1780):1-0
12/09/2019:Défi( 5J+36H/c 30J Max ) bertelsen(1670)-goedendag(1960):0-1
12/09/2019:Shiva la douce epervier14(1440)-connecticcut(1820):0-1
12/09/2019:Tournoi n°19831 philou(1980)-cioran(1879):0-1
12/09/2019:Tournoi n°20072 harrypotter(1660)-mokanne(1540):1/2-1/2
12/09/2019:Tournoi n°20130 moris54(1950)-arno(1800):1-0
12/09/2019:Tournoi n°20056 leredoutable(1670)-c13e(1740):1-0
12/09/2019:Tournoi n°20113 elghribi(1960)-burgman(2100):1/2-1/2
12/09/2019:Eq:LES CHATTERBOX-Les Seigneurs de l Atlantide : hberlioz(1610)-tjspret(1820):1-0
12/09/2019:Coupe Niveau 5 bigbobo(2270)-daniel1(1740):1-0
12/09/2019:Défi( 5J+36H/c 30J Max ) anumisme(1490)-gaby1811(1130):1-0
12/09/2019:Défi mrhodge(1839)-maximeg(1730):0-1
12/09/2019:Défi( 5J+36H/c 30J Max ) gervaise(1000)-anumisme(1390):0-1
12/09/2019:Défi( 5J+12H/c 10J Max ) nimzoindien(1860)-patau(1770):0-1
12/09/2019:Défi arno(1840)-ovo(2000):1-0
12/09/2019:Défi papymiche(1690)-ovo(2000):1-0
12/09/2019:Marion nous danivarl(1680)-fly(2000):0-1
12/09/2019:Najdorf à foison youliyouli(1840)-tiounet(1700):0-1
12/09/2019:Tournoi échelle division 3 danivarl(1660)-harrypotter(1660):1-0
12/09/2019:Tournoi n°20010 verson(1840)-c13e(1800):1-0
12/09/2019:Tournoi n°20140 katastrofic(1500)-epervier14(1440):0-1
12/09/2019:Eq:Les Gens du Sud-les modestes : jetjet91330(2020)-ryba(1870):1-0
12/09/2019:Coupe Niveau 3 kasad(1900)-patau(1770):1-0
12/09/2019:Coupe Niveau 3 blackbishop(1930)-c13e(1740):0-1
12/09/2019:Coupe Niveau 3 elghribi(1980)-c13e(1800):1-0
12/09/2019:Coupe Niveau 6 fly(2050)-c13e(1840):0-1
12/09/2019:Défi( 5J+36H/c 30J Max ) warriorette(1940)-chessgaston(2180):0-1
12/09/2019:Défi( 5J+36H/c 30J Max ) pascalou50(1790)-hberlioz(1610):0-1
12/09/2019:Défi( 5J+36H/c 30J Max ) flmnh(1740)-patau(1760):1-0
12/09/2019:Défi( 5J+36H/c 30J Max ) patau(1770)-epervier14(1420):1-0
12/09/2019:Défi epervier14(1450)-katastrofic(1470):1/2-1/2
12/09/2019:Défi( 5J+36H/c 30J Max ) perepeinard34(1430)-anumisme(1390):1-0
12/09/2019:Défi vvvv(1750)-mainecoon(2130):1-0
12/09/2019:Défi( 5J+36H/c 30J Max ) patau(1750)-tbeau44(1720):0-1
12/09/2019:Défi bigoudi(1000)-duncanlaurence2019(1179):1-0
12/09/2019:Défi( 5J+36H/c 30J Max ) rocinante(1480)-malvina(1380):0-1
12/09/2019:Défi artorg(2080)-ovo(2000):1-0
12/09/2019:Défi( 5J+36H/c 30J Max ) pitchoune50(1050)-duncanlaurence2019(1250):0-1
12/09/2019:Tetraktus 24 fly(2040)-turbo(1480):1-0
12/09/2019:Tournoi n°20155 ovo(2000)-elghribi(1940):0-1
12/09/2019:Eq:Mission Impossible-Fair play : pioupiou22(1860)-afeyte(1810):1-0
12/09/2019:Défi tootsienet(1100)-anumisme(1380):0-1
12/09/2019:Défi( 5J+36H/c 30J Max ) patrick(1610)-vb83(1430):1-0
12/09/2019:Défi( 5J+36H/c 30J Max ) pionfou(1680)-samjf(1290):1-0
12/09/2019:Défi( 5J+36H/c 30J Max ) hberlioz(1600)-pgo(1770):0-1
12/09/2019:Tournoi n°20016 c13e(1800)-arno(1810):0-1
12/09/2019:Tournoi n°20016 c13e(1800)-verson(1820):0-1
12/09/2019:CC Juil19 c13e(1840)-alizarine(2420):0-1
12/09/2019:Tournoi n°20056 simer(1750)-c13e(1740):0-1
12/09/2019:Tournoi n°20093 jm29(1570)-wenoketo(1630):0-1
12/09/2019:Eq:Pirates du Mat-Royal Kids : alizarine(2430)-skalfa(1750):1-0
12/09/2019:Eq:Les Gens du Sud-Pirates du Mat : rackam(2100)-emmanuel69(1790):1-0
12/09/2019:Coupe Niveau 3 leet(1770)-elghribi(1950):0-1
12/09/2019:Coupe Niveau 3 doriphore(1940)-c13e(1750):1-0
12/09/2019:Coupe Niveau 2 patau(1780)-c13e(1770):1-0
12/09/2019:Coupe Niveau 4 c13e(1810)-verson(1880):0-1
12/09/2019:Défi( 5J+36H/c 30J Max ) wenoketo(1590)-vb83(1430):1-0
12/09/2019:Défi morloch(1880)-chocotov(1940):0-1
12/09/2019:Amical( 5J+12H/c 10J Max ) stripchess3(1640)-danivarl(1710):0-1
12/09/2019:Défi( 5J+36H/c 30J Max ) anumisme(1490)-buzz84(1450):0-1
12/09/2019:Défi luciens(1270)-maluel(1620):0-1
12/09/2019:Défi( 5J+36H/c 30J Max ) anumisme(1430)-samjf(1300):1-0
12/09/2019:LetournoidelaHaye stripchess3(1630)-pgo(1770):0-1
12/09/2019:Le vieux Roi 23 roschecx(1660)-yyyg(1460):1-0
12/09/2019:Le vieux Roi 23 yyyg(1460)-roschecx(1660):0-1
12/09/2019:Tournoi échelle élite zincou75(2120)-fly(2030):1-0
12/09/2019:Tournoi n°19786 leet(1780)-scarfield(1710):1-0
12/09/2019:Tournoi n°20168 tartu(1760)-verson(1840):1-0
12/09/2019:Tournoi n°19842 epervier14(1380)-jm29(1500):0-1
12/09/2019:Tournoi n°20155 glouton(1910)-ovo(2000):1-0
12/09/2019:Tournoi n°20032 hargas(1990)-doriphore(1960):0-1
12/09/2019:Tournoi n°20073 epervier14(1430)-jlr(1500):1-0
12/09/2019:Défi intrigue(1630)-epervier14(1450):0-1
12/09/2019:Défi claudius94(2190)-arno(1810):1-0
12/09/2019:Défi( 5J+36H/c 30J Max ) youpla14(1259)-julie2000(999):1-0
12/09/2019:Défi fisher(1640)-wenoketo(1630):1-0
12/09/2019:Défi( 5J+36H/c 30J Max ) julie2000(999)-anumisme(1400):0-1
12/09/2019:Défi tartu(1780)-achille85(2080):1-0
12/09/2019:Défi( 5J+36H/c 30J Max ) chobi(1750)-vvvv(1770):0-1
12/09/2019:Défi francis94(1970)-ovo(2000):1-0
12/09/2019:Défi koi34(1760)-ovo(2000):1-0
12/09/2019:Défi castor(1430)-ovo(2000):1-0
12/09/2019:Canicule sur 64 cases janolapin(1830)-zozo(1680):0-1
12/09/2019:Tetraktus 24 lool(2750)-fly(2040):1-0
12/09/2019:Tournoi n°20163 myka(1740)-simer(1720):1-0
12/09/2019:Tournoi n°20131 scarfield(1760)-legrillon(1720):1-0
12/09/2019:Tournoi n°20108 scarfield(1770)-legrillon(1720):1-0
12/09/2019:Tournoi n°20098 katastrofic(1460)-duncanlaurence2019(1179):1-0
12/09/2019:Coupe Niveau 4 elghribi(1990)-senegaulois(1970):1-0
12/09/2019:Défi( 5J+36H/c 30J Max ) noos(1620)-maxzur(1660):1-0
12/09/2019:Défi chess54(1520)-xao(1550):1-0
12/09/2019:Défi( 5J+36H/c 30J Max ) pionfou(1670)-patau(1780):0-1
12/09/2019:Défi den(1910)-ovo(2000):1-0
12/09/2019:Défi( 5J+36H/c 30J Max ) pionfou(1670)-samjf(1310):1-0
12/09/2019:Gant bite de Boudapeste fly(2010)-pitouwb(1830):0-1
12/09/2019:Gambit dame accepté dragon(1920)-bubblegum(1830):1/2-1/2
12/09/2019:Gant bite de Boudapeste ptitefrez(2090)-pitouwb(1830):1-0
12/09/2019:Le Roi est mort 7 epervier14(1440)-lecevenol(1330):1-0
12/09/2019:A8b yab414(1600)-lecevenol(1300):1-0
12/09/2019:Najdorf à foison fly(2010)-xey(2020):1-0
12/09/2019:Tournoi n°20055 c13e(1770)-legrillon(1750):1-0
12/09/2019:Tournoi n°20035 manulatus(1870)-c13e(1800):1-0
13/09/2019:Tournoi n°20163 simer(1720)-leredoutable(1690):0-1
13/09/2019:Tournoi n°20001 c13e(1800)-tartu(1690):0-1
13/09/2019:Tournoi n°20142 paul2012(1490)-magyar(1510):0-1
13/09/2019:Eq:Mission Impossible-O fou d hello : afeyte(1820)-vtt(1680):0-1
13/09/2019:Coupe Niveau 4 fly(2040)-c13e(1810):1/2-1/2
13/09/2019:Coupe Niveau 3 c13e(1800)-emmanuel69(1770):0-1
13/09/2019:Coupe Niveau 3 c13e(1800)-panchoa(1650):1-0
13/09/2019:Défi lecevenol(1310)-kerenor(1710):0-1
13/09/2019:Défi castor(1430)-epervier14(1440):0-1
13/09/2019:Défi( 5J+36H/c 30J Max ) eloyoy(1970)-pascalou50(1790):1-0
13/09/2019:Défi ghostdog(1680)-cortaz(1830):0-1
13/09/2019:Défi morloch(1870)-nico(2010):0-1
13/09/2019:Tartaruga3 retinolls(2020)-electronlibre(1850):0-1
13/09/2019:Tetraktus 24 stripchess3(1630)-fly(2040):0-1
13/09/2019:Tournoi n°20132 verson(1790)-scarfield(1760):1-0
13/09/2019:Tournoi n°20081 burgman(2110)-breitenbach(2310):0-1
13/09/2019:Tournoi n°20131 scarfield(1760)-arno(1790):0-1
13/09/2019:Tournoi n°20002 danivarl(1690)-qsdmlk(1620):1-0
13/09/2019:Coupe Niveau 3 kasad(1900)-tinenfant(1830):1-0
13/09/2019:Amical( 5J+12H/c 10J Max ) danivarl(1710)-stripchess3(1640):1-0
13/09/2019:Défi( 5J+36H/c 30J Max ) stripchess3(1650)-danivarl(1680):0-1
13/09/2019:Défi( 5J+36H/c 30J Max ) fragol(1740)-donjon(1730):1-0
13/09/2019:Défi( 5J+36H/c 30J Max ) djayphil(2240)-pascalou50(1790):1-0
13/09/2019:Marion nous stripchess3(1640)-fly(2000):0-1
13/09/2019:Marion nous tiounet(1680)-stripchess3(1640):1-0
13/09/2019:Najdorf à foison xey(2020)-youliyouli(1840):1-0
13/09/2019:Le vieux Roi 23 tiounet(1660)-legrillon(1740):0-1
13/09/2019:Shiva la douce tiounet(1640)-stripchess3(1630):0-1
13/09/2019:Tournoi n°20106 tifointer(1870)-flip(1790):1-0
13/09/2019:Tournoi n°20139 silveur(1990)-verson(1820):1-0
13/09/2019:Tournoi n°20110 pgo(1790)-jetjet91330(2020):1/2-1/2
13/09/2019:Tournoi n°20151 desaintfegor(1800)-c13e(1800):1-0
13/09/2019:Tournoi n°20158 verson(1840)-jogador49(2030):1/2-1/2
13/09/2019:Eq:O fou d hello-Fair play : vtt(1690)-gulliver(2160):1-0
13/09/2019:Défi cortaz(1830)-intrigue(1680):1-0
13/09/2019:Défi( 5J+36H/c 30J Max ) moris54(1950)-pascalou50(1790):1-0
13/09/2019:Défi lecevenol(1300)-nimzoindien(1860):0-1
13/09/2019:Défi( 5J+36H/c 30J Max ) myka(1750)-berjay(1770):1-0
13/09/2019:Défi( 5J+36H/c 30J Max ) patau(1790)-youliyouli(1840):1-0
13/09/2019:Défi( 5J+36H/c 30J Max ) duncanlaurence2019(1179)-vulcain14(1510):1-0
13/09/2019:Défi doudou(1680)-zozo(1670):1-0
13/09/2019:Défi( 5J+12H/c 10J Max ) nimzoindien(1850)-verson(1840):1/2-1/2
13/09/2019:Défi( 5J+36H/c 30J Max ) arno(1830)-killbot(1499):1-0
13/09/2019:Shiva la douce epervier14(1440)-fly(2040):0-1
13/09/2019:Tournoi échelle division 1 zozo(1690)-rons(2610):0-1
13/09/2019:Tournoi n°20117 dave04(1420)-pierrejean(1410):0-1
13/09/2019:Tournoi n°20107 tartu(1770)-fredoparis(1750):0-1
13/09/2019:Tournoi n°19956 zozo(1670)-jlr(1420):1-0
13/09/2019:Tournoi n°20034 zozo(1690)-jlr(1460):1-0
13/09/2019:Tournoi n°20144 intrigue(1680)-magyar(1520):1-0
13/09/2019:Eq:O fou d hello-cotenstock : yab414(1660)-hinnol(1780):0-1
13/09/2019:SBT4 tartu(1750)-zozo(1640):1/2-1/2
13/09/2019:Tournoi échelle division 3 glouton(1910)-jlr(1470):1-0
13/09/2019:CC Juin19 Asc(1/4) ramses2(2460)-pgcbies(2820):0-1
13/09/2019:CC Juin19 Asc(1/4) pgcbies(2820)-ramses2(2460):1-0
13/09/2019:Tournoi n°20128 blackrider(1700)-jlr(1450):1-0
13/09/2019:Tournoi n°19936 ffred(1580)-wenoketo(1650):0-1
13/09/2019:Tournoi n°20098 duncanlaurence2019(1179)-jlr(1450):0-1
13/09/2019:Tournoi n°20151 arno(1810)-desaintfegor(1800):1/2-1/2
13/09/2019:Tournoi n°20170 joel(1510)-wenoketo(1650):0-1
13/09/2019:Coupe Niveau 2 onetwoyve(1760)-jlr(1510):1-0
13/09/2019:Coupe Niveau 5 elghribi(1960)-bigbobo(2270):0-1
13/09/2019:Défi roquefort(1940)-goedendag(1940):1-0
13/09/2019:Défi duncanlaurence2019(1179)-bigoudi(1000):0-1
13/09/2019:Tournoi n°20167 arno(1810)-verson(1850):1/2-1/2
13/09/2019:Tournoi n°20149 verson(1830)-bed2bed(1900):0-1
13/09/2019:Tournoi n°20148 u27940(1990)-oranmore(2020):1-0
13/09/2019:Coupe Niveau 4 elghribi(1930)-verson(1850):1-0
13/09/2019:Défi( 5J+36H/c 30J Max ) rocinante(1550)-baloo(1450):1-0
13/09/2019:Défi tiounet(1670)-c13e(1760):1-0
13/09/2019:Défi( 5J+36H/c 30J Max ) stripchess3(1690)-danivarl(1650):1-0
13/09/2019:Défi( 5J+36H/c 30J Max ) cramsnellac(1730)-chobi(1750):0-1
13/09/2019:Défi jimi50(1910)-cramsnellac(1730):1-0
13/09/2019:Défi cramsnellac(1750)-patau(1780):0-1
13/09/2019:Défi gui004(1129)-deric(1050):1-0
13/09/2019:Défi gui004(1129)-titit1(1270):1-0
13/09/2019:Défi( 5J+12H/c 10J Max ) patau(1730)-nimzoindien(1850):1-0
13/09/2019:SBT4 tiounet(1640)-coyotov(1690):0-1
13/09/2019:SBT4 petitlulu64(1700)-tiounet(1640):1-0
13/09/2019:Tournoi n°20128 jlr(1440)-wenoketo(1560):0-1
13/09/2019:Tournoi n°20072 harrypotter(1660)-pilouface(1510):1-0
13/09/2019:Tournoi n°20037 mick13(1650)-leredoutable(1680):0-1
13/09/2019:Tournoi n°20131 arno(1800)-spizdee(1730):1-0
13/09/2019:Tournoi n°20067 kendo2d(1840)-doriphore(1960):0-1
13/09/2019:Tournoi n°20127 verson(1820)-leredoutable(1750):1-0
13/09/2019:Tournoi n°20120 breitenbach(2290)-doriphore(2000):1-0
13/09/2019:Coupe Niveau 2 tiounet(1670)-leredoutable(1720):0-1
13/09/2019:Défi grognasse(1540)-neddy(1280):0-1
13/09/2019:Défi( 5J+36H/c 30J Max ) duncanlaurence2019(1210)-lecevenol(1290):1-0
13/09/2019:Défi( 5J+36H/c 30J Max ) janolapin(1840)-vb83(1390):1-0
13/09/2019:Défi( 40J+12H/c 40J Max ) nogean(1630)-indya(1850):0-1
13/09/2019:Défi lancien57(1600)-kawa750(1590):1-0
13/09/2019:Défi doudou(1680)-angerpat(1470):1-0
13/09/2019:Défi( 5J+36H/c 30J Max ) perepeinard34(1400)-zozo(1670):0-1
13/09/2019:Défi marmotte50(2280)-steflam(1530):1-0
13/09/2019:Défi( 5J+12H/c 10J Max ) verson(1880)-nimzoindien(1840):0-1
13/09/2019:Tournoi échelle division 1 domenico(1820)-verson(1840):1-0
13/09/2019:Tournoi n°20095 manulatus(1910)-pgo(1800):1-0
13/09/2019:Tournoi n°20163 verson(1820)-leredoutable(1690):1-0
13/09/2019:Tournoi n°20105 pgo(1800)-doriphore(1970):0-1
13/09/2019:Tournoi n°19992 arno(1800)-c13e(1800):0-1
13/09/2019:Tournoi n°19974 dodogod(2120)-emmanuel(2000):1-0
13/09/2019:Tournoi n°20088 ragg(1590)-coyotov(1690):0-1
13/09/2019:Tournoi n°20114 yab414(1610)-wenoketo(1600):1-0
13/09/2019:Tournoi n°20153 verson(1840)-leredoutable(1720):1-0
13/09/2019:Eq:Les Gens du Sud-Vikings : ratzi(2180)-verson(1840):1-0
13/09/2019:Coupe Niveau 2 intrigue(1710)-harrypotter(1620):1/2-1/2
13/09/2019:Coupe Niveau 7 wak(2460)-hilts(2330):1-0
13/09/2019:Défi lancov(2010)-chomi64(1980):1-0
13/09/2019:Défi anumisme(1460)-penelope45(1330):0-1
13/09/2019:Défi( 5J+36H/c 30J Max ) anumisme(1380)-pasq60(1270):1-0
13/09/2019:Défi( 5J+36H/c 30J Max ) julie2000(999)-turbo(1500):0-1
13/09/2019:Défi rabah53(2140)-hubble(2000):0-1
13/09/2019:Défi cortaz(1800)-tartu(1780):1-0
13/09/2019:Défi( 5J+36H/c 30J Max ) rocinante(1510)-marlu(1570):0-1
13/09/2019:chaud chaud legrillon(1760)-brettsinclair(1700):1-0
13/09/2019:Najdorf à foison xey(2020)-karkaskat(2220):1-0
13/09/2019:SBT4 coyotov(1690)-tartu(1750):1-0
13/09/2019:Tetraktus 24 turbo(1480)-karkaskat(2240):0-1
13/09/2019:Tournoi échelle alizarine(2430)-franroc(2040):1/2-1/2
13/09/2019:Tournoi n°20141 simer(1720)-ghostdog(1680):1-0
13/09/2019:Tournoi n°20164 wenoketo(1660)-francus(1660):1-0
13/09/2019:Tournoi n°20142 samjf(1290)-orlane(1350):1-0
13/09/2019:Tournoi n°20064 scarfield(1750)-jipepe(1640):1-0
13/09/2019:Coupe Niveau 2 harrypotter(1640)-patau(1680):1-0
13/09/2019:Défi leredoutable(1710)-chocotov(1980):0-1
13/09/2019:Défi morloch(1890)-achille85(2080):1-0
13/09/2019:Défi mrhodge(1839)-pj612(1770):0-1
13/09/2019:Défi jimi50(1880)-ovo(2000):1-0
13/09/2019:Défi( 5J+36H/c 30J Max ) julie2000(1310)-anumisme(1400):0-1
13/09/2019:Canicule sur 64 cases legrillon(1710)-janolapin(1830):1-0
13/09/2019:Marion nous artorg(2110)-fly(2000):1-0
13/09/2019:Tournoi n°20164 francus(1660)-katastrofic(1500):1-0
13/09/2019:Tournoi n°20159 albescab(1680)-mathador93(1510):1-0
13/09/2019:Tournoi n°20153 scarfield(1760)-simer(1730):0-1
13/09/2019:Tournoi n°20153 scarfield(1760)-vvvv(1750):0-1
13/09/2019:Défi calisege2008(1390)-duncanlaurence2019(1179):1-0
13/09/2019:Défi( 5J+36H/c 30J Max ) alain84(1750)-patau(1730):1-0
13/09/2019:Défi( 5J+36H/c 30J Max ) joelcouturier(1240)-anumisme(1430):0-1
13/09/2019:Défi( 5J+36H/c 30J Max ) gonzok67(1770)-asvel69(1820):1-0
13/09/2019:Défi joelcouturier(1250)-anumisme(1380):0-1
13/09/2019:Défi( 5J+36H/c 30J Max ) turbo(1480)-perepeinard34(1450):1-0
13/09/2019:Défi roxane(1450)-castor(1420):0-1
13/09/2019:Défi ovo(2000)-regor(1980):0-1
13/09/2019:Défi( 5J+36H/c 30J Max ) anumisme(1400)-samjf(1310):1-0
13/09/2019:Tartaruga 5 electronlibre(1880)-fly(2040):1-0
13/09/2019:chaud chaud mathador93(1520)-harrypotter(1620):0-1
13/09/2019:Tetraktus 24 fly(2040)-karkaskat(2240):0-1
13/09/2019:Tournoi échelle ptitefrez(2090)-alizarine(2430):0-1
13/09/2019:Tournoi échelle fly(2020)-alizarine(2430):1/2-1/2
14/09/2019:Tournoi n°20170 pionfou(1680)-joel(1520):1-0
14/09/2019:Tournoi n°20084 scarfield(1750)-legrillon(1720):1-0
14/09/2019:Tournoi n°19614 bonamur(1930)-chomi64(1990):1-0
14/09/2019:Tournoi n°20095 mage(1910)-manulatus(1920):0-1
14/09/2019:Tournoi n°20015 pionfou(1700)-lamagouille(1500):1-0
14/09/2019:Défi tian(1330)-fr7d(1540):0-1
14/09/2019:Défi( 5J+36H/c 30J Max ) pascalou50(1810)-vb83(1430):1/2-1/2
14/09/2019:Défi morloch(1870)-flo71(2000):0-1
14/09/2019:Défi ovo(2000)-pj612(1750):0-1
14/09/2019:Défi ovo(2000)-patau(1780):0-1
14/09/2019:Défi ovo(2000)-ramo(1720):0-1
14/09/2019:Défi ovo(2000)-jpjay(1820):0-1
14/09/2019:Défi ovo(2000)-bertelsen(1670):0-1
14/09/2019:Eté 2019 n°1 brettsinclair(1750)-patrick(1610):0-1
14/09/2019:Un miserable boudapeste fly(2030)-ptitefrez(2110):0-1
14/09/2019:Tetraktus 24 karkaskat(2240)-stripchess3(1630):1-0
14/09/2019:Tournoi échelle division 2 rahamchess(1770)-ficherre(2290):1/2-1/2
14/09/2019:Tournoi n°19554 vtt(1640)-jlr(1470):1-0
14/09/2019:Tournoi n°19869 yab414(1660)-jlr(1640):1-0
14/09/2019:Tournoi n°19880 jlr(1620)-challenger2015(1690):0-1
14/09/2019:Tournoi n°20017 jlr(1450)-pionfou(1700):0-1
14/09/2019:Tournoi n°19996 jlr(1460)-sam94(1500):0-1
14/09/2019:Tournoi n°20027 jlr(1460)-katastrofic(1480):0-1
14/09/2019:Tournoi n°20046 jlr(1450)-vb83(1390):0-1
14/09/2019:Tournoi n°20034 snarf(1630)-jlr(1490):1-0
14/09/2019:Tournoi n°20098 katastrofic(1470)-jlr(1490):1-0
14/09/2019:Coupe Niveau 3 patau(1800)-jlr(1500):1-0
14/09/2019:Défi( 5J+36H/c 30J Max ) holyhour(1830)-samjf(1290):1-0
14/09/2019:Défi( 5J+36H/c 30J Max ) teacup(1690)-tiounet(1700):1-0
14/09/2019:Défi fr7d(1530)-mrhodge(1699):1-0
14/09/2019:Tournoi n°19892 jmjustice(1540)-c13e(1840):0-1
14/09/2019:Tournoi n°20088 lamagouille(1490)-coyotov(1710):0-1
14/09/2019:Tournoi n°20118 scarfield(1760)-verson(1830):1-0
14/09/2019:Tournoi n°20081 capitaine(2140)-argento(2230):0-1
14/09/2019:Tournoi n°20069 jogador49(1960)-pgo(1770):1-0
14/09/2019:Coupe Niveau 3 jogador49(1970)-pgo(1790):1-0
14/09/2019:Défi( 5J+36H/c 30J Max ) perepeinard34(1460)-hberlioz(1600):0-1
14/09/2019:Défi lecevenol(1330)-mrhodge(1839):1-0
14/09/2019:Défi( 5J+36H/c 30J Max ) turbo(1510)-perepeinard34(1460):0-1
14/09/2019:Défi largo(1100)-sebastien(1000):0-1
14/09/2019:Eté 2019 n°1 patrick(1610)-legrillon(1740):0-1
14/09/2019:Najdorf à foison fly(2010)-flmnh(1720):1-0
14/09/2019:Tournoi échelle division 3 julie2000(999)-sebastien(1000):1-0
14/09/2019:Tournoi échelle division 3 glouton(1900)-lecevenol(1300):1-0
14/09/2019:Tournoi n°20137 verson(1820)-scarfield(1760):1-0
14/09/2019:Tournoi n°20040 philou(1950)-tifointer(1870):1-0
14/09/2019:Tournoi n°20152 pgo(1820)-doriphore(2000):0-1
14/09/2019:Tournoi n°20080 pgo(1800)-kendo2d(1840):1-0
14/09/2019:Tournoi n°20144 magyar(1520)-danielski(1490):1-0
14/09/2019:Eq:les modestes-Pirates du Mat : eltche(2450)-sherezo(2700):0-1
14/09/2019:Coupe Niveau 5 guig47(2140)-doriphore(1960):1-0
14/09/2019:Défi duncanlaurence2019(1179)-calisege2008(1390):0-1
14/09/2019:Défi regor(2010)-popetto(1809):1/2-1/2
14/09/2019:Défi sergiodevienne(1750)-tbeau44(1730):0-1
14/09/2019:Défi( 5J+36H/c 30J Max ) patau(1770)-legionnaire(1640):0-1
14/09/2019:Défi ovo(2000)-kawa750(1630):0-1
14/09/2019:Défi popetto(2019)-goedendag(1950):1-0
14/09/2019:Défi( 5J+36H/c 30J Max ) hberlioz(1610)-scarfield(1770):0-1
14/09/2019:Tournoi échelle division 1 pgo(1780)-patau(1730):1-0
14/09/2019:Tournoi n°20124 zozo(1630)-foxie519(1670):1-0
14/09/2019:Tournoi n°19966 chatak(2280)-percy62(2140):1-0
14/09/2019:Tournoi n°20049 jaimelamer(2090)-pgo(1800):1-0
14/09/2019:Tournoi n°20140 kiki37(1520)-julie2000(999):1-0
14/09/2019:Tournoi n°20134 legrillon(1750)-vvvv(1750):0-1
14/09/2019:Tournoi n°20149 scarfield(1760)-verson(1830):0-1
14/09/2019:Eq:Mission Impossible-Fair play : afeyte(1810)-pioupiou22(1860):0-1
14/09/2019:Coupe Niveau 3 patau(1770)-verson(1840):1-0
14/09/2019:Défi kasad(1830)-gulliver(2220):0-1
14/09/2019:Défi morloch(1890)-eloyoy(1980):1-0
14/09/2019:Défi patau(1740)-cortaz(1830):1-0
14/09/2019:Défi( 5J+36H/c 30J Max ) elghribi(1990)-c13e(1760):1-0
14/09/2019:Défi( 5J+36H/c 30J Max ) lancov(1860)-alain34(2180):1-0
14/09/2019:Défi nimzoindien(1870)-carabas(2120):0-1
14/09/2019:Défi anumisme(1420)-julie2000(1310):1-0
14/09/2019:Défi tiounet(1630)-wenoketo(1660):0-1
14/09/2019:Shiva la douce fly(2040)-connecticcut(1820):0-1
14/09/2019:SBT4 zozo(1640)-tiounet(1640):1-0
14/09/2019:Tetraktus 23 stripchess3(1650)-karkaskat(2220):0-1
14/09/2019:Tournoi échelle division 1 zozo(1690)-ephixe(1700):0-1
14/09/2019:Tournoi échelle division 1 pgo(1800)-ephixe(1710):1-0
14/09/2019:Tournoi n°20156 wenoketo(1630)-katastrofic(1510):1-0
14/09/2019:Tournoi n°20140 jlr(1480)-julie2000(999):1-0
14/09/2019:Tournoi n°20002 vulcain14(1520)-jlr(1440):0-1
14/09/2019:Tournoi n°20073 jlr(1500)-katastrofic(1430):0-1
14/09/2019:Tournoi n°20153 verson(1820)-scarfield(1770):1-0
14/09/2019:Coupe Niveau 4 verson(1830)-percy62(2160):0-1
14/09/2019:Défi( 5J+36H/c 30J Max ) swallow2(2120)-swallow(2070):1-0
14/09/2019:Défi( 5J+36H/c 30J Max ) julie2000(999)-neddy(1280):0-1
14/09/2019:Défi ys07(1390)-sebastien(1000):1-0
14/09/2019:Défi malvina(1370)-jm29(1580):0-1
14/09/2019:Défi( 5J+36H/c 30J Max ) anumisme(1400)-neddy(1290):0-1
14/09/2019:Défi pascalou50(1800)-fly(2020):0-1
14/09/2019:Défi silv(2220)-hubble(2010):0-1
14/09/2019:Défi anumisme(1400)-julie2000(1240):1-0
14/09/2019:Défi julie2000(1310)-anumisme(1400):0-1
14/09/2019:Os court tartu(1690)-stripchess3(1630):1/2-1/2
14/09/2019:Os court stripchess3(1630)-jogador49(1990):0-1
14/09/2019:SBT4 coyotov(1690)-tiounet(1640):1-0
14/09/2019:SBT4 tiounet(1640)-lecevenol(1300):1-0
14/09/2019:Tournoi échelle division 3 julie2000(1310)-danivarl(1720):0-1
14/09/2019:Tournoi n°20128 joel(1550)-jlr(1450):1-0
14/09/2019:Tournoi n°20152 verson(1830)-doriphore(2000):0-1
14/09/2019:Tournoi n°20032 jmarcboury(1920)-hargas(1990):1-0
14/09/2019:Tournoi n°20083 jlr(1490)-aramis(1700):0-1
14/09/2019:Tournoi n°20089 sebastien(1150)-alien(1280):1-0
14/09/2019:Eq:Pirates du Mat-les modestes : jetjet91330(2060)-daiwen(2310):1-0
14/09/2019:Eq:Pirates du Mat-Les Quebecois : sinople(2320)-daiwen(2200):1-0
14/09/2019:Eq:Les Corsaires de Lechiquier-cotenstock : akkullanu(2590)-apollon(2860):0-1
14/09/2019:Coupe Niveau 6 alain64(2290)-fly(2050):1-0
14/09/2019:Défi madal222(1820)-fly(2030):0-1
14/09/2019:Défi( 5J+36H/c 30J Max ) perepeinard34(1470)-hberlioz(1610):0-1
14/09/2019:Défi( 5J+36H/c 30J Max ) gambou(1700)-verson(1820):0-1
14/09/2019:Défi( 5J+36H/c 30J Max ) coyotov(1710)-gambou(1700):0-1
14/09/2019:Défi( 5J+36H/c 30J Max ) anumisme(1370)-lecevenol(1300):1-0
14/09/2019:Défi bigoudi(1020)-sebastien(1300):1-0
14/09/2019:Défi julie2000(1230)-anumisme(1420):0-1
14/09/2019:Le vieux Roi 23 stripchess3(1640)-coyotov(1710):1-0
14/09/2019:Tournoi n°20026 vangogh(2090)-warriorette(1890):1-0
14/09/2019:CC Aut19 eldiablo90(2840)-conde7(2840):1/2-1/2
14/09/2019:Tournoi n°19978 katastrofic(1480)-bonafous(1410):1-0
14/09/2019:Tournoi n°20153 simer(1730)-vvvv(1750):1-0
14/09/2019:Tournoi n°20115 ephixe(1710)-verson(1830):0-1
14/09/2019:Tournoi n°20142 jlr(1450)-samjf(1300):0-1
14/09/2019:Tournoi n°20161 katastrofic(1500)-julie2000(1310):1-0
14/09/2019:Tournoi n°20072 jlr(1490)-harrypotter(1660):0-1
14/09/2019:Tournoi n°20110 pgo(1810)-doriphore(1960):0-1
14/09/2019:Eq:Mission Impossible-Fair play : adrifou(1480)-lejardinier(2070):0-1
14/09/2019:Eq:cotenstock-Les Gens du Sud : emmanuel69(1770)-eloyoy(1980):1/2-1/2
14/09/2019:Coupe Niveau 5 verson(1870)-dodogod(2090):0-1
14/09/2019:Coupe Niveau 1 julie2000(999)-jlr(1490):0-1
14/09/2019:Coupe Niveau 6 elghribi(1950)-bigbobo(2280):0-1
14/09/2019:Coupe Niveau 3 elghribi(1960)-tiounet(1610):1-0
14/09/2019:Défi kiki38(1580)-longjohn(1510):0-1
14/09/2019:Défi( 5J+36H/c 30J Max ) gervaise(1010)-anumisme(1370):0-1
14/09/2019:Défi( 5J+36H/c 30J Max ) gambou(1700)-siddharta(1810):0-1
14/09/2019:Défi( 5J+36H/c 30J Max ) anumisme(1410)-scipio(1440):0-1
14/09/2019:Défi tbeau44(1730)-degun(1980):1/2-1/2
14/09/2019:Défi cortaz(1800)-doudou(1680):1-0
14/09/2019:Défi( 5J+36H/c 30J Max ) vb83(1420)-chobi(1750):0-1
14/09/2019:Défi( 5J+36H/c 30J Max ) chobi(1750)-bylka(1820):0-1
14/09/2019:Défi( 5J+36H/c 30J Max ) anumisme(1380)-sebastien(1000):1-0
14/09/2019:Défi cortaz(1800)-ramo(1720):1-0
14/09/2019:Gant bite de Boudapeste fly(2010)-mollusque(1910):1-0
14/09/2019:Un miserable boudapeste stripchess3(1690)-ptitefrez(2110):0-1
14/09/2019:Le Roi est mort 8 turbo(1480)-lecevenol(1300):0-1
14/09/2019:Tournoi échelle champions tifointer(1870)-emmanuel69(1790):1-0
14/09/2019:Tournoi échelle division 1 gonzok67(1750)-doriphore(2030):0-1
14/09/2019:Tournoi n°20161 julie2000(1320)-jlr(1470):0-1
14/09/2019:Tournoi n°20124 foxie519(1670)-jlr(1450):1-0
14/09/2019:Tournoi n°20140 julie2000(999)-epervier14(1440):0-1
14/09/2019:Tournoi n°19910 johan1977(2050)-doriphore(1880):1/2-1/2
14/09/2019:Tournoi n°20161 joel(1490)-julie2000(1170):1-0
14/09/2019:Tournoi n°20181 simer(1710)-verson(1870):0-1
14/09/2019:Coupe Niveau 2 jlr(1440)-harrypotter(1640):1-0
14/09/2019:Coupe Niveau 2 patau(1770)-jlr(1490):1-0
14/09/2019:Défi tian(1330)-serjo(1340):1-0
14/09/2019:Défi( 5J+36H/c 30J Max ) fly(2020)-stripchess3(1670):1-0
14/09/2019:Défi scapin(2629)-artorg(2110):1-0
14/09/2019:Défi julie2000(1320)-christian(999):1-0
14/09/2019:Défi arno(1790)-jpjay(1830):0-1
14/09/2019:Défi sebastien(1010)-christian(999):1-0
14/09/2019:Défi fr7d(1570)-wenoketo(1580):0-1
14/09/2019:Défi tiounet(1650)-orlane(1380):1-0
14/09/2019:Défi fly(2040)-hubble(2020):1/2-1/2
14/09/2019:Défi anumisme(1420)-julie2000(1210):1-0
14/09/2019:Un miserable boudapeste stripchess3(1690)-fly(2030):0-1
14/09/2019:Le vieux Roi 23 petitlulu64(1670)-stripchess3(1640):0-1
14/09/2019:Le vieux Roi 23 coyotov(1710)-legrillon(1740):0-1
14/09/2019:Shiva la douce connecticcut(1820)-petitlulu64(1670):1-0
14/09/2019:Tetraktus 24 turbo(1480)-stripchess3(1630):1-0
14/09/2019:Tetraktus 24 stripchess3(1630)-lool(2750):0-1
14/09/2019:Tournoi échelle champions blackbishop(1920)-fly(2020):0-1
14/09/2019:Tournoi échelle champions salut(1930)-fly(2050):0-1
14/09/2019:Tournoi échelle élite volatile(2510)-elghribi(1950):1-0
14/09/2019:Tournoi n°20164 wenoketo(1660)-katastrofic(1500):1-0
14/09/2019:Tournoi n°20061 percy62(2140)-tinou(2290):1-0
14/09/2019:Coupe Niveau 2 gulliver7761(1720)-patau(1690):1/2-1/2
14/09/2019:Coupe Niveau 5 elghribi(1950)-fly(2020):1-0
14/09/2019:Défi( 5J+36H/c 30J Max ) anumisme(1350)-tropa(1350):1-0
14/09/2019:Défi fly(2010)-roquefort(1950):1/2-1/2
14/09/2019:Défi elghribi(1960)-goedendag(1940):1/2-1/2
14/09/2019:Marion nous stripchess3(1640)-danivarl(1680):0-1
14/09/2019:Najdorf à foison youliyouli(1840)-fly(2010):0-1
14/09/2019:Le vieux Roi 23 legrillon(1740)-coyotov(1710):1/2-1/2
14/09/2019:Tetraktus 24 karkaskat(2240)-lool(2750):0-1
15/09/2019:Coupe Niveau 2 leredoutable(1660)-gonzok67(1760):0-1
15/09/2019:Coupe Niveau 2 harrypotter(1760)-panchoa(1610):1-0
15/09/2019:Défi leredoutable(1710)-roquefort(1970):0-1
15/09/2019:Le Roi est mort 6 harrypotter(1640)-qsdmlk(1620):1-0
15/09/2019:Najdorf à foison youliyouli(1840)-karkaskat(2220):1-0
15/09/2019:Tournoi échelle division 2 yab414(1610)-harrypotter(1740):1-0
15/09/2019:Eq:Pirates du Mat-les modestes : eltche(2410)-breitenbach(2300):1/2-1/2
15/09/2019:Coupe Niveau 3 francus(1680)-jogador49(1970):1-0
15/09/2019:Défi arno(1810)-rocketman(2050):1-0
15/09/2019:Défi rocketman(2040)-morloch(1860):0-1
15/09/2019:Défi( 5J+36H/c 30J Max ) joelcouturier(1250)-anumisme(1400):0-1
15/09/2019:Tournoi n°20107 fredoparis(1750)-vvvv(1750):0-1
15/09/2019:Tournoi n°20154 verson(1840)-scarfield(1760):1-0
15/09/2019:Tournoi n°20177 scarfield(1760)-verson(1880):1-0
15/09/2019:Coupe Niveau 6 berniz(2220)-vladtepes(2570):0-1
15/09/2019:Défi castor(1440)-gambitor(1480):1-0
15/09/2019:Défi( 5J+36H/c 30J Max ) nanaluce(1310)-anumisme(1490):0-1
15/09/2019:Défi( 5J+36H/c 30J Max ) patau(1780)-donjon(1760):1-0
15/09/2019:Défi nathand(2070)-morloch(1870):1/2-1/2
15/09/2019:Marion nous alien(1290)-danivarl(1680):0-1
15/09/2019:Tournoi n°20011 intrigue(1730)-gilcello(1800):1/2-1/2
15/09/2019:Eq:LES CHATTERBOX-Les Gens du Sud : emmanuel(2000)-onetwoyve(1810):1-0
15/09/2019:Coupe Niveau 8 george1955(2700)-maitreabord(2710):1/2-1/2
15/09/2019:Coupe Niveau 3 intrigue(1650)-pgo(1790):0-1
15/09/2019:Défi intrigue(1630)-gaspard83(1500):1-0
15/09/2019:Défi morloch(1880)-goedendag(1930):1/2-1/2
15/09/2019:Défi nico(2010)-hubble(1940):0-1
15/09/2019:Défi( 5J+36H/c 30J Max ) turbo(1520)-titit1(1250):0-1
15/09/2019:Défi( 5J+36H/c 30J Max ) berjay(1790)-asvel69(1820):0-1
15/09/2019:Défi( 5J+36H/c 30J Max ) geld108(1540)-lilou(1460):1-0
15/09/2019:Défi artorg(2080)-hubble(2010):0-1
15/09/2019:Défi( 5J+36H/c 30J Max ) boisdechene(1640)-vb83(1420):1-0
15/09/2019:Défi zozo(1650)-wenoketo(1660):1-0
15/09/2019:Marion nous alien(1290)-intrigue(1650):0-1
15/09/2019:Shiva la douce intrigue(1690)-petitlulu64(1670):1-0
15/09/2019:SBT4 lecevenol(1300)-zozo(1640):0-1
15/09/2019:Tournoi n°19801 rvsinovitch(2080)-sorim(2110):0-1
15/09/2019:Tournoi n°20082 retraite53(2430)-alain64(2270):1-0
15/09/2019:Tournoi n°20050 desaintfegor(1780)-manu32(1840):1-0
15/09/2019:Tournoi n°20073 epervier14(1430)-alien(1270):1-0
15/09/2019:Tournoi n°20079 alien(1290)-duncanlaurence2019(999):0-1
15/09/2019:Tournoi n°19984 flip(1770)-glouton(1499):0-1
15/09/2019:Eq:Pirates du Mat-Danielsen City : daiwen(2170)-xao(1560):1-0
15/09/2019:Eq:Les Gens du Sud-Pirates du Mat : emmanuel69(1790)-rackam(2100):0-1
15/09/2019:Eq:les modestes-Les Gens du Sud : ryba(1880)-berniz(2220):0-1
15/09/2019:Coupe Niveau 5 doriphore(1960)-berniz(2220):0-1
15/09/2019:Coupe Niveau 4 doriphore(1970)-kasad(1900):0-1
15/09/2019:Coupe Niveau 2 jlr(1450)-panchoa(1620):0-1
15/09/2019:Coupe Niveau 3 verson(1830)-kasad(1910):0-1
15/09/2019:Coupe Niveau 3 verson(1860)-panchoa(1640):1-0
15/09/2019:Défi julia(1500)-castor(1440):0-1
15/09/2019:Défi fisher(1640)-pourquoipas(1480):1/2-1/2
15/09/2019:Défi sebastien(1000)-largo(1100):1-0
15/09/2019:Défi( 5J+36H/c 30J Max ) titit1(1270)-julie2000(1150):1-0
15/09/2019:Défi( 5J+12H/c 10J Max ) coups42(2510)-lens37(2460):1-0
15/09/2019:Défi( 5J+36H/c 30J Max ) fredbauduret(1980)-asvel69(1810):1-0
15/09/2019:Défi( 5J+36H/c 30J Max ) ryba(1870)-verson(1840):1-0
15/09/2019:SBT4 coyotov(1690)-zozo(1640):1-0
15/09/2019:Tetraktus 23 epervier14(1430)-turbo(1530):1-0
15/09/2019:Tournoi n°20139 elghribi(1970)-silveur(1990):0-1
15/09/2019:Eq:Pirates du Mat-Les Gens du Sud : daiwen(2170)-goedendag(1890):1-0
15/09/2019:Eq:Les Gens du Sud-Danielsen City : azerty1(2130)-ryba(1870):1-0
15/09/2019:Eq:Les Seigneurs de l Atlantide-cotenstock : eloyoy(1970)-bubblegum(1810):0-1
15/09/2019:Défi( 5J+36H/c 30J Max ) pitchoune50(1010)-titit1(1260):0-1
15/09/2019:Défi arno(1790)-bibisept(1930):1-0
15/09/2019:Défi( 5J+36H/c 30J Max ) julie2000(1320)-perepeinard34(1470):0-1
15/09/2019:Défi( 5J+36H/c 30J Max ) perepeinard34(1430)-lecevenol(1290):0-1
15/09/2019:Défi( 5J+36H/c 30J Max ) verson(1840)-ryba(1870):1-0
15/09/2019:Défi( 5J+36H/c 30J Max ) gui004(1129)-pitchoune50(1010):0-1
15/09/2019:Défi lecevenol(1320)-katastrofic(1490):0-1
15/09/2019:Défi chobi(1730)-tbeau44(1730):0-1
15/09/2019:Défi( 5J+36H/c 30J Max ) gambou(1700)-fragol(1750):1-0
15/09/2019:Tournoi échelle division 3 jlr(1460)-stripchess3(1640):0-1
15/09/2019:Tournoi n°20133 verson(1790)-xercott(1790):0-1
15/09/2019:Tournoi n°20150 verson(1840)-brettsinclair(1710):1-0
15/09/2019:Tournoi n°20185 verson(1850)-simer(1720):1-0
15/09/2019:Coupe Niveau 3 domenico(1810)-verson(1840):0-1
15/09/2019:Défi maya24(1580)-fr7d(1590):1-0
15/09/2019:Défi patau(1780)-lancien57(1600):1-0
15/09/2019:Défi hubble(1960)-morloch(1880):1-0
15/09/2019:Défi achille85(2070)-eclectic(1760):0-1
15/09/2019:Défi( 5J+36H/c 30J Max ) gambou(1700)-jimi50(1880):1-0
15/09/2019:Défi( 5J+36H/c 30J Max ) julie2000(1150)-titit1(1270):0-1
15/09/2019:Défi julie2000(1210)-anumisme(1420):0-1
15/09/2019:Défi( 5J+36H/c 30J Max ) perepeinard34(1440)-titine(1370):0-1
15/09/2019:Défi wenoketo(1580)-midas(1660):0-1
15/09/2019:Défi( 5J+36H/c 30J Max ) lecevenol(1310)-perepeinard34(1450):1-0
15/09/2019:Défi( 5J+36H/c 30J Max ) anumisme(1410)-perepeinard34(1460):1-0
15/09/2019:Défi( 5J+36H/c 30J Max ) anumisme(1400)-julie2000(1240):1-0
15/09/2019:Tetraktus 24 karkaskat(2240)-doriphore(2000):1/2-1/2
15/09/2019:Tournoi échelle division 1 artorg(2100)-jogador49(1950):1-0
15/09/2019:Tournoi échelle division 3 danivarl(1690)-jlr(1450):1-0
15/09/2019:Tournoi échelle division 2 patau(1780)-zozo(1630):1-0
15/09/2019:Tournoi n°20168 tiounet(1640)-tartu(1750):0-1
15/09/2019:Tournoi n°19801 emmanuel(2000)-dodogod(2130):1-0
15/09/2019:Tournoi n°20136 domenico(1820)-simer(1720):0-1
15/09/2019:Tournoi n°20002 vulcain14(1520)-qsdmlk(1620):0-1
15/09/2019:Tournoi n°20130 verson(1780)-xercott(1800):0-1
15/09/2019:Tournoi n°20083 vb83(1420)-aramis(1700):0-1
15/09/2019:Tournoi n°20108 gognol(1840)-scarfield(1760):1-0
15/09/2019:Tournoi n°20154 scarfield(1760)-tartu(1770):1-0
15/09/2019:Tournoi n°20134 vvvv(1760)-scarfield(1760):1-0
15/09/2019:Tournoi n°20149 tartu(1730)-scarfield(1760):1-0
15/09/2019:Coupe Niveau 3 elghribi(1960)-jogador49(1960):0-1
15/09/2019:Coupe Niveau 3 intrigue(1650)-verson(1880):0-1
15/09/2019:Coupe Niveau 3 verson(1880)-elghribi(1950):0-1
15/09/2019:Défi wenoketo(1590)-beru(1570):1-0
15/09/2019:Défi hubble(2010)-swallow(2070):1-0
15/09/2019:Défi wenoketo(1630)-zozo(1630):0-1
15/09/2019:Défi payne42(1660)-intrigue(1650):1-0
15/09/2019:Défi( 5J+36H/c 30J Max ) julie2000(1150)-titit1(1270):0-1
15/09/2019:Défi david969(1930)-cortaz(1850):0-1
15/09/2019:Défi tiounet(1650)-cortaz(1800):1/2-1/2
15/09/2019:Défi( 5J+36H/c 30J Max ) perepeinard34(1430)-turbo(1490):0-1
15/09/2019:Défi( 5J+36H/c 30J Max ) julie2000(1130)-titit1(1280):0-1
15/09/2019:Défi( 5J+36H/c 30J Max ) duncanlaurence2019(1160)-julie2000(1250):1-0
15/09/2019:Os court tartu(1690)-rahamchess(1850):1-0
15/09/2019:Tournoi échelle champions tifointer(1870)-salut(1900):0-1
15/09/2019:Tournoi échelle hilts(2330)-zax(2140):0-1
15/09/2019:Tournoi n°20103 jmarcboury(1940)-verson(1870):1-0
15/09/2019:Tournoi n°19936 ffred(1580)-patau(1680):0-1
15/09/2019:Tournoi n°20134 jyf(1870)-scarfield(1740):1-0
15/09/2019:Tournoi n°20098 epervier14(1450)-duncanlaurence2019(1179):1-0
15/09/2019:Tournoi n°20165 spizdee(1810)-scarfield(1770):1-0
15/09/2019:Tournoi n°20183 verson(1850)-elghribi(1960):0-1
15/09/2019:Coupe Niveau 4 guig47(2120)-verson(1840):1-0
15/09/2019:Coupe Niveau 2 legionnaire(1640)-tartu(1760):0-1
15/09/2019:Défi( 5J+36H/c 30J Max ) patau(1770)-tbeau44(1720):1/2-1/2
15/09/2019:Défi( 5J+36H/c 30J Max ) kawa750(1620)-patau(1770):1/2-1/2
15/09/2019:Défi pourquoipas(1480)-beru(1600):0-1
15/09/2019:Défi anumisme(1440)-julie2000(1110):1-0
15/09/2019:Défi julie2000(1120)-anumisme(1440):0-1
15/09/2019:Défi( 5J+36H/c 30J Max ) titit1(1290)-julie2000(1120):1-0
15/09/2019:Défi gaspard83(1540)-maluel(1620):0-1
15/09/2019:Défi julie2000(1160)-anumisme(1430):0-1
15/09/2019:Défi anumisme(1380)-titit1(1160):0-1
15/09/2019:Défi( 5J+36H/c 30J Max ) anumisme(1360)-titit1(1220):0-1
15/09/2019:Défi kawa750(1630)-wenoketo(1600):0-1
15/09/2019:Défi turbo(1490)-katastrofic(1500):0-1
15/09/2019:Défi( 5J+36H/c 30J Max ) pitchoune50(1050)-titit1(1290):0-1
15/09/2019:Défi( 5J+36H/c 30J Max ) julie2000(1080)-joel(1500):0-1
15/09/2019:Défi julie2000(1150)-anumisme(1420):0-1
15/09/2019:Tetraktus 24 jyf(1850)-tiounet(1640):1-0
15/09/2019:Tournoi n°20098 vb83(1430)-katastrofic(1470):0-1
15/09/2019:Tournoi n°19930 doriphore(1900)-akchich(1920):1-0
15/09/2019:Tournoi n°19999 olilac(1290)-alien(1150):0-1
15/09/2019:Tournoi n°19885 louis67(1630)-akchich(1799):0-1
15/09/2019:Tournoi n°20125 xey(2010)-petitjoueur(2060):0-1
15/09/2019:Tournoi n°20098 duncanlaurence2019(1179)-vb83(1420):0-1
15/09/2019:Tournoi n°20138 brettsinclair(1700)-katastrofic(1480):1-0
15/09/2019:Eq:les modestes-Les Seigneurs de l Atlantide : chronik(2180)-chrislee76(2420):0-1
15/09/2019:Eq:Pirates du Mat-O fou d hello : legrillon(1680)-daiwen(2200):0-1
15/09/2019:Coupe Niveau 2 brettsinclair(1730)-harrypotter(1720):1-0
15/09/2019:Coupe Niveau 3 legionnaire(1640)-patau(1780):0-1
15/09/2019:Défi fafamanga(2190)-hubble(1980):1-0
15/09/2019:Défi wenoketo(1590)-beru(1570):1/2-1/2
15/09/2019:Défi payne42(1640)-wenoketo(1630):1-0
15/09/2019:Défi( 5J+36H/c 30J Max ) danivarl(1680)-stripchess3(1650):1-0
15/09/2019:Défi rocinante(1530)-tryphon(1490):0-1
15/09/2019:Défi( 5J+36H/c 30J Max ) perepeinard34(1440)-rocinante(1530):0-1
15/09/2019:Défi( 5J+36H/c 30J Max ) stripchess3(1690)-fly(2010):1/2-1/2
15/09/2019:Os court stripchess3(1630)-connecticcut(1840):0-1
15/09/2019:Tetraktus 23 stripchess3(1650)-harrypotter(1740):1/2-1/2
15/09/2019:Tetraktus 23 harrypotter(1740)-epervier14(1430):0-1
15/09/2019:Tournoi échelle division 2 ephixe(1740)-patau(1780):0-1
16/09/2019:Tournoi n°19927 fly(2050)-mollusque(1910):1-0
16/09/2019:Coupe Niveau 2 panchoa(1650)-harrypotter(1640):0-1
16/09/2019:Défi( 5J+36H/c 30J Max ) stripchess3(1640)-danivarl(1700):0-1
16/09/2019:Défi( 5J+36H/c 30J Max ) duncanlaurence2019(1230)-maximax(1380):0-1
16/09/2019:Défi janolapin(1820)-berjay(1790):1-0
16/09/2019:Défi chocotov(2000)-david969(1930):1-0
16/09/2019:Défi trueman(1890)-madal222(1810):1-0
16/09/2019:Défi( 5J+12H/c 10J Max ) pascalou50(1770)-djayphil(2240):0-1
16/09/2019:Défi( 5J+36H/c 30J Max ) stripchess3(1640)-danivarl(1720):1-0
16/09/2019:Défi( 5J+36H/c 30J Max ) anumisme(1400)-samjf(1310):1-0
16/09/2019:Marion nous pgo(1790)-stripchess3(1640):1-0
16/09/2019:Tournoi échelle zax(2170)-alizarine(2430):0-1
16/09/2019:Tournoi échelle division 3 stripchess3(1640)-glouton(1910):0-1
16/09/2019:Défi nicodemouscron(2120)-niko(2240):0-1
16/09/2019:Défi sergiodevienne(1740)-cortaz(1800):0-1
16/09/2019:Défi( 5J+36H/c 30J Max ) anumisme(1380)-lilou(1480):1-0
16/09/2019:Shiva la douce petitlulu64(1670)-tiounet(1640):1/2-1/2
16/09/2019:Tournoi n°20119 julie2000(999)-sebastien(1000):1-0
16/09/2019:Tournoi n°20079 sebastien(1120)-alien(1280):1-0
16/09/2019:Tournoi n°20066 dingue(1470)-alien(1150):1-0
16/09/2019:Tournoi n°20117 pierrejean(1410)-jlr(1450):1-0
16/09/2019:Eq:Vikings-Les Corsaires de Lechiquier : levelmax(2910)-ngeorget(2540):1-0
16/09/2019:Eq:les modestes-Vikings : ratzi(2130)-mpatruyo(2170):0-1
16/09/2019:Défi katastrofic(1500)-pierrejean(1400):1-0
16/09/2019:A8b petitlulu64(1650)-zozo(1670):1-0
16/09/2019:Tournoi n°20163 ghostdog(1710)-verson(1820):0-1
16/09/2019:Tournoi n°20168 vvvv(1770)-verson(1840):0-1
16/09/2019:Eq:cotenstock-Les Gens du Sud : harrypotter(1640)-jimi50(1890):0-1
16/09/2019:Coupe Niveau 4 verson(1870)-gilcello(1810):0-1
16/09/2019:Coupe Niveau 2 harrypotter(1690)-patau(1770):0-1
16/09/2019:Coupe Niveau 3 verson(1860)-harrypotter(1720):1-0
16/09/2019:Coupe Niveau 2 brettsinclair(1730)-harrypotter(1740):1-0
16/09/2019:Coupe Niveau 4 patau(1770)-zax(2130):0-1
16/09/2019:Défi castor(1440)-dversix(1560):1-0
16/09/2019:Défi tbeau44(1730)-vvvv(1750):0-1
16/09/2019:Défi( 5J+36H/c 30J Max ) turbo(1490)-perepeinard34(1430):0-1
16/09/2019:Défi( 5J+36H/c 30J Max ) perepeinard34(1420)-julie2000(1080):1-0
16/09/2019:Défi kawa750(1590)-harrypotter(1610):1-0
16/09/2019:Défi intrigue(1730)-gambitmiau(1680):0-1
16/09/2019:Défi duncanlaurence2019(1179)-joelcouturier(1260):0-1
16/09/2019:Défi ecjc(1990)-hubble(2000):1/2-1/2
16/09/2019:Défi( 5J+12H/c 10J Max ) nimzoindien(1830)-verson(1870):1-0
16/09/2019:Défi arno(1800)-trebuchet(2070):0-1
16/09/2019:chaud chaud harrypotter(1620)-tartu(1680):1-0
16/09/2019:Shiva la douce connecticcut(1820)-epervier14(1440):1-0
16/09/2019:SBT4 zozo(1640)-coyotov(1690):1-0
16/09/2019:Tetraktus 23 epervier14(1430)-stripchess3(1650):1/2-1/2
16/09/2019:Tournoi échelle champions elghribi(1950)-nimzoindien(1840):1-0
16/09/2019:Tournoi n°19891 gaynormand(1770)-berthe(1750):0-1
16/09/2019:Tournoi n°20073 alien(1270)-katastrofic(1460):1-0
16/09/2019:Eq:Pirates du Mat-les modestes : pilinapolgar(2520)-eltche(2390):1/2-1/2
16/09/2019:Eq:Pirates du Mat-les modestes : breitenbach(2300)-eltche(2410):1/2-1/2
16/09/2019:Coupe Niveau 3 uji40(1680)-kasad(1880):1/2-1/2
16/09/2019:Coupe Niveau 1 alien(1130)-jlr(1410):0-1
16/09/2019:Coupe Niveau 3 kasad(1900)-domenico(1830):1-0
16/09/2019:Défi( 5J+36H/c 30J Max ) grognasse(1540)-geld108(1530):0-1
16/09/2019:Défi( 5J+36H/c 30J Max ) julie2000(1080)-titit1(1300):0-1
16/09/2019:Défi( 5J+36H/c 30J Max ) artistepeintre(1590)-julie2000(1340):1-0
16/09/2019:Défi( 5J+36H/c 30J Max ) julie2000(1100)-titit1(1290):0-1
16/09/2019:Défi( 5J+36H/c 30J Max ) pierrejean(1400)-rocinante(1530):1-0
16/09/2019:Défi( 5J+36H/c 30J Max ) julie2000(1120)-perepeinard34(1460):0-1
16/09/2019:Défi( 5J+36H/c 30J Max ) verson(1860)-tunellavage(1710):0-1
16/09/2019:Défi( 5J+36H/c 30J Max ) duncanlaurence2019(1230)-largo(1100):1-0
16/09/2019:SBT4 tartu(1750)-coyotov(1690):0-1
16/09/2019:Tartaruga6 pgo(1790)-zozo(1660):1-0
16/09/2019:Tournoi échelle division 3 lecevenol(1290)-julie2000(1220):1-0
16/09/2019:CC Printemps 2019 pournelle(2700)-ramses2(2540):1-0
16/09/2019:Tournoi n°20075 snarf(1630)-tartu(1730):0-1
16/09/2019:Tournoi n°20044 jlr(1440)-jm29(1570):0-1
16/09/2019:Tournoi n°20096 glouton(1740)-cedric77(1500):1-0
16/09/2019:Coupe Niveau 6 dragon(1940)-wak(2460):0-1
16/09/2019:Coupe Niveau 2 patau(1740)-panchoa(1630):1-0
16/09/2019:Défi youliyouli(1820)-riothamus(1720):1-0
16/09/2019:Défi( 5J+36H/c 30J Max ) tunellavage(1710)-verson(1860):0-1
16/09/2019:Défi gambitmiau(1700)-figaro(1849):0-1
16/09/2019:Défi orlane(1350)-challenger2015(1710):1-0
16/09/2019:Défi( 5J+36H/c 30J Max ) anumisme(1380)-largo(1100):1-0
16/09/2019:Défi( 5J+36H/c 30J Max ) pitchoune50(1050)-duncanlaurence2019(1190):0-1
16/09/2019:Najdorf à foison youliyouli(1840)-skalfa(1770):1-0
16/09/2019:Tartaruga6 pgo(1790)-tiounet(1600):1-0
16/09/2019:Tournoi n°20010 c13e(1800)-moris54(1970):1-0
16/09/2019:Tournoi n°20141 papyrolo(1880)-simer(1720):1-0
16/09/2019:Tournoi n°20163 verson(1820)-myka(1740):1-0
16/09/2019:Tournoi n°20183 verson(1840)-pgo(1800):0-1
16/09/2019:Tournoi n°20117 jlr(1430)-dave04(1390):1-0
16/09/2019:Coupe Niveau 4 jogador49(1970)-vodouz(2180):1-0
16/09/2019:Défi( 5J+36H/c 30J Max ) anumisme(1360)-titit1(1240):1-0
16/09/2019:Défi pournelle(2730)-pgcbies(2820):1/2-1/2
16/09/2019:Défi( 5J+36H/c 30J Max ) stripchess3(1670)-fly(2040):0-1
16/09/2019:Défi( 5J+36H/c 30J Max ) artistepeintre(1550)-amanotep(1800):1-0
16/09/2019:Défi intrigue(1730)-xao(1550):1-0
16/09/2019:Eté 2019 n°2 sylvainwb(1760)-pitouwb(1840):1-0
16/09/2019:Marion nous fly(2000)-stripchess3(1640):1-0
16/09/2019:Marion nous tiounet(1680)-danivarl(1680):0-1
16/09/2019:Le vieux Roi 23 tiounet(1660)-stripchess3(1640):0-1
16/09/2019:Tournoi n°20133 verson(1790)-picasso(1880):1-0
16/09/2019:Tournoi n°19949 scarfield(1780)-c13e(1750):1-0
16/09/2019:Tournoi n°20186 verson(1860)-pgo(1800):1-0
16/09/2019:Tournoi n°20186 desaintfegor(1820)-verson(1860):0-1
16/09/2019:Tournoi n°20179 franroc(2110)-blutch70(2210):0-1
16/09/2019:Tournoi n°20110 desaintfegor(1820)-jetjet91330(2020):0-1
16/09/2019:Tournoi n°20180 verson(1880)-myka(1750):1-0
16/09/2019:Coupe Niveau 8 wak(2490)-lool(2750):0-1
16/09/2019:Coupe Niveau 3 verson(1840)-pgo(1800):0-1
16/09/2019:Défi david969(1970)-baudoin(1950):0-1
16/09/2019:Défi pasq60(1260)-kerenor(1710):0-1
16/09/2019:Défi anumisme(1390)-gervaise(1030):1-0
16/09/2019:Défi riothamus(1720)-koi34(1800):1-0
16/09/2019:Défi( 5J+36H/c 30J Max ) perepeinard34(1420)-turbo(1480):1-0
16/09/2019:Défi cortaz(1800)-doudou(1680):1-0
16/09/2019:Défi vvvv(1750)-tetene(1780):0-1
16/09/2019:Défi maximeg(1740)-zayka(1940):1-0
16/09/2019:Défi sylvia13(1399)-maximax(1380):1-0
16/09/2019:Défi maluel(1620)-baloo(1410):1-0
16/09/2019:Défi( 5J+36H/c 30J Max ) pionfou(1680)-samjf(1300):1-0
16/09/2019:Le vieux Roi 23 petitlulu64(1670)-coyotov(1710):1/2-1/2
16/09/2019:Tournoi n°19978 bonafous(1410)-jlr(1420):0-1
16/09/2019:Tournoi n°20167 bonamur(1880)-arno(1810):1-0
16/09/2019:Tournoi n°20106 verson(1870)-flip(1790):0-1
16/09/2019:Tournoi n°20156 qsdmlk(1650)-wenoketo(1630):0-1
16/09/2019:Tournoi n°20190 scarfield(1760)-verson(1870):0-1
16/09/2019:Tournoi n°20189 tartu(1740)-verson(1870):0-1
16/09/2019:Tournoi n°20178 katastrofic(1500)-kiki37(1530):0-1
16/09/2019:Tournoi n°20015 panchoa(1620)-artistepeintre(1550):1-0
16/09/2019:Coupe Niveau 4 senegaulois(1970)-doriphore(1950):1-0
16/09/2019:Coupe Niveau 5 fly(2040)-verson(1870):1-0
16/09/2019:Coupe Niveau 7 fly(2020)-c13e(1830):0-1
16/09/2019:Coupe Niveau 2 vtt(1770)-intrigue(1650):0-1
16/09/2019:Défi baloo(1450)-gaspard83(1500):1-0
16/09/2019:Défi( 5J+36H/c 30J Max ) payne42(1660)-matsonic(1740):1-0
16/09/2019:Défi wenoketo(1660)-pourquoipas(1500):1-0
16/09/2019:Défi trebuchet(2030)-morloch(1890):1-0
16/09/2019:Défi jimi50(1910)-chomi64(1850):0-1
16/09/2019:Défi( 5J+36H/c 30J Max ) asvel69(1800)-bubblegum(1820):0-1
16/09/2019:Défi bassdark(1990)-abc47(2110):1-0
16/09/2019:Défi( 5J+36H/c 30J Max ) chevaldetroie(2220)-cortaz(1820):0-1
16/09/2019:Shiva la douce fly(2040)-intrigue(1690):1/2-1/2
16/09/2019:Shiva la douce fly(2040)-petitlulu64(1670):1-0
16/09/2019:Shiva la douce petitlulu64(1670)-intrigue(1690):0-1
16/09/2019:Shiva la douce epervier14(1440)-intrigue(1690):0-1
16/09/2019:Shiva la douce epervier14(1440)-stripchess3(1630):0-1
16/09/2019:SBT4 tiounet(1640)-petitlulu64(1700):0-1
16/09/2019:SBT4 petitlulu64(1700)-coyotov(1690):1-0
16/09/2019:Tournoi n°20139 silveur(1990)-degun(1970):0-1
16/09/2019:Tournoi n°19833 rvsinovitch(2060)-sorim(2110):1/2-1/2
16/09/2019:Tournoi n°20164 albescab(1700)-francus(1660):1-0
16/09/2019:Tournoi n°20162 louis76(1830)-warriorette(1900):1-0
16/09/2019:Tournoi n°20058 pgo(1800)-jogador49(1970):1-0
16/09/2019:Tournoi n°19937 holyhour(1790)-verson(1840):1/2-1/2
16/09/2019:Tournoi n°19919 scipio(1510)-karadayi(1490):1-0
16/09/2019:Tournoi n°20176 verson(1890)-arno(1810):1-0
16/09/2019:Eq:CHESS MASTER-Mission Impossible : adrifou(1810)-chocotov(2000):0-1
16/09/2019:Coupe Niveau 6 fly(2020)-vodouz(2260):0-1
16/09/2019:Coupe Niveau 7 vodouz(2260)-fly(1990):1-0
16/09/2019:Défi( 5J+36H/c 30J Max ) viki(1740)-akchich(1979):1-0
16/09/2019:Défi hubble(2040)-nathand(2110):1-0
16/09/2019:Défi chocotov(1960)-hubble(1880):1/2-1/2
16/09/2019:Défi tryphon(1520)-gambitor(1480):1-0
16/09/2019:Défi( 5J+36H/c 30J Max ) gambitor(1490)-rocinante(1520):1-0
16/09/2019:Os court rahamchess(1850)-jogador49(1990):1-0
16/09/2019:Un miserable boudapeste stripchess3(1690)-pgo(1780):0-1
16/09/2019:Marion nous stripchess3(1640)-intrigue(1650):1-0
16/09/2019:Shiva la douce tiounet(1640)-petitlulu64(1670):1-0
16/09/2019:SBT4 epervier14(1460)-tiounet(1640):1-0
16/09/2019:Tetraktus 24 stripchess3(1630)-doriphore(2000):1/2-1/2
16/09/2019:Tournoi échelle division 2 zozo(1630)-ephixe(1720):1-0
16/09/2019:Tournoi n°20090 lyly(1600)-panchoa(1650):0-1
16/09/2019:Tournoi n°20187 coyotov(1700)-wenoketo(1680):0-1
16/09/2019:Tournoi n°20108 kawa750(1620)-gognol(1840):0-1
16/09/2019:Eq:Les Seigneurs de l Atlantide-Pirates du Mat : pgcd(2110)-rackam(2090):1/2-1/2
16/09/2019:Eq:les fous de bassans-Royal Kids : trueman(1890)-manulatus(1890):1-0
16/09/2019:Eq:Vikings-Danielsen City : azerty1(2130)-pascalou50(1760):1-0
16/09/2019:Coupe Niveau 2 harrypotter(1610)-saruman(1770):1-0
16/09/2019:Coupe Niveau 5 fly(2010)-silveur(2000):0-1
16/09/2019:Défi( 5J+12H/c 10J Max ) aigle12(1440)-siddharta(1810):0-1
16/09/2019:Défi( 5J+36H/c 30J Max ) michel(1280)-sylvia13(1399):0-1
16/09/2019:Défi( 5J+36H/c 30J Max ) anumisme(1430)-michel(1300):1-0
16/09/2019:Défi deric(1050)-pivoine78(1000):1-0
16/09/2019:Amical( 5J+12H/c 10J Max ) danivarl(1730)-stripchess3(1630):1-0
16/09/2019:Défi chomi64(2000)-rocketman(2030):0-1
16/09/2019:Défi( 5J+36H/c 30J Max ) samjf(1310)-anumisme(1430):0-1
16/09/2019:Défi( 5J+36H/c 30J Max ) fly(2020)-stripchess3(1610):1-0
16/09/2019:Défi anumisme(1430)-julie2000(1160):1-0
16/09/2019:Défi( 5J+36H/c 30J Max ) anumisme(1400)-calisege2008(1400):0-1
16/09/2019:Gambit dame accepté rahamchess(1840)-stripchess3(1640):0-1
16/09/2019:Gant bite de Boudapeste dragon(1900)-pitouwb(1830):1-0
16/09/2019:chaud chaud brettsinclair(1700)-legrillon(1760):0-1